[[{"header":{"parameterUnit":"m.s-1","parameterCategory":1,"la1":30.6,"la2":29.2853,"lo1":-89.7004,"lo2":-87.6739,"dy":0.0162,"dx":0.0183,"nx":112,"ny":82,"refTime":"2025-05-23T18:00:00:Z","depth":0,"parameterNumber":2,"parameterNumberName":"U-component_of_WINDS"},"data":[0.0,0.0,0.0,0.0,0.0,0.0,0.0,0.0,0.0,0.0,0.0,0.0,0.0,0.0,0.0,0.0,0.0,0.0,0.0,0.0,0.0,0.0,0.0,0.0,0.0,0.0,0.0,0.0,0.0,0.0,0.0,0.0,0.0,0.0,0.0,0.0,0.0,0.0,0.0,0.0,0.0,0.0,0.0,0.0,0.0,0.0,0.0,0.0,0.0,0.0,0.0,0.0,0.0,0.0,0.0,0.0,0.0,0.0,0.0,0.0,0.0,0.0,0.0,0.0,0.0,0.0,0.0,0.0,0.0,0.0,0.0,0.0,0.0,0.0,0.0,0.0,0.0,0.0,0.0,0.0,0.0,0.0,0.0,0.0,0.0,0.0,0.0,0.0,0.0,0.0,-1.0711,-1.1592,-1.2885,-1.4038,-1.4884,-1.3721,-1.305,-1.329,0.0,0.0,0.0,0.0,0.0,0.0,0.0,0.0,0.0,0.0,0.0,0.0,0.0,0.0,0.0,0.0,0.0,0.0,0.0,0.0,0.0,0.0,0.0,0.0,0.0,0.0,0.0,0.0,0.0,0.0,0.0,0.0,0.0,0.0,0.0,0.0,0.0,0.0,0.0,0.0,0.0,0.0,0.0,0.0,0.0,0.0,0.0,0.0,0.0,0.0,0.0,0.0,0.0,0.0,0.0,0.0,0.0,0.0,0.0,0.0,0.0,0.0,0.0,0.0,0.0,0.0,0.0,0.0,0.0,0.0,0.0,0.0,0.0,0.0,0.0,0.0,0.0,0.0,0.0,0.0,0.0,0.0,0.0,0.0,0.0,0.0,0.0,0.0,0.0,0.0,0.0,0.0,0.0,0.0,0.0,0.0,0.0,0.0,0.0,0.0,0.0,0.0,0.0,0.0,-1.1516,-1.3621,-1.4529,-1.5066,-1.5227,-1.4499,-1.3856,-1.3407,0.0,0.0,0.0,0.0,0.0,0.0,0.0,0.0,0.0,0.0,0.0,0.0,0.0,0.0,0.0,0.0,0.0,0.0,0.0,0.0,0.0,0.0,0.0,0.0,0.0,0.0,0.0,0.0,0.0,0.0,0.0,0.0,0.0,0.0,0.0,0.0,0.0,0.0,0.0,0.0,0.0,0.0,0.0,0.0,0.0,0.0,0.0,0.0,0.0,0.0,0.0,0.0,0.0,0.0,0.0,0.0,0.0,0.0,0.0,0.0,0.0,0.0,0.0,0.0,0.0,0.0,0.0,0.0,0.0,0.0,0.0,0.0,0.0,0.0,0.0,0.0,0.0,0.0,0.0,0.0,0.0,0.0,0.0,0.0,0.0,0.0,0.0,0.0,0.0,0.0,0.0,0.0,0.0,0.0,0.0,0.0,0.0,0.0,0.0,0.0,0.0,0.0,0.0,-1.1,-1.2585,-1.4139,-1.4892,-1.5328,-1.5448,-1.4746,-1.3959,-1.3134,-1.2068,0.0,0.0,0.0,0.0,0.0,0.0,0.0,0.0,0.0,0.0,0.0,0.0,0.0,0.0,0.0,0.0,0.0,0.0,0.0,0.0,0.0,0.0,0.0,0.0,0.0,0.0,0.0,0.0,0.0,0.0,0.0,0.0,0.0,0.0,0.0,0.0,0.0,0.0,0.0,0.0,0.0,0.0,0.0,0.0,0.0,0.0,0.0,0.0,0.0,0.0,0.0,0.0,0.0,0.0,0.0,0.0,0.0,0.0,0.0,0.0,0.0,0.0,0.0,0.0,0.0,0.0,0.0,0.0,0.0,0.0,0.0,0.0,0.0,0.0,0.0,0.0,0.0,0.0,0.0,0.0,0.0,0.0,0.0,0.0,0.0,0.0,0.0,0.0,0.0,0.0,0.0,0.0,0.0,0.0,0.0,0.0,0.0,0.0,0.0,0.0,0.0,0.0,-1.2401,-1.34,-1.4428,-1.4993,-1.5358,-1.5522,-1.4775,-1.39,-1.2952,-1.1843,0.0,0.0,0.0,0.0,0.0,0.0,0.0,0.0,0.0,0.0,0.0,0.0,0.0,0.0,0.0,0.0,0.0,0.0,0.0,0.0,0.0,0.0,0.0,0.0,0.0,0.0,0.0,0.0,0.0,0.0,0.0,0.0,0.0,0.0,0.0,0.0,0.0,0.0,0.0,0.0,0.0,0.0,0.0,0.0,0.0,0.0,0.0,0.0,0.0,0.0,0.0,0.0,0.0,0.0,0.0,0.0,0.0,0.0,0.0,0.0,0.0,0.0,0.0,0.0,0.0,0.0,0.0,0.0,0.0,0.0,0.0,0.0,0.0,0.0,0.0,0.0,0.0,0.0,0.0,0.0,0.0,0.0,0.0,0.0,0.0,0.0,0.0,0.0,0.0,0.0,0.0,0.0,0.0,0.0,0.0,0.0,0.0,0.0,0.0,0.0,0.0,0.0,-1.2801,-1.3571,-1.508,-1.5269,-1.5313,-1.5328,-1.4703,-1.398,-1.322,-1.1992,0.0,0.0,0.0,0.0,0.0,0.0,0.0,0.0,0.0,0.0,0.0,0.0,0.0,0.0,0.0,0.0,0.0,0.0,0.0,0.0,0.0,0.0,0.0,0.0,0.0,0.0,0.0,0.0,0.0,0.0,0.0,0.0,0.0,0.0,0.0,0.0,0.0,0.0,0.0,0.0,0.0,0.0,0.0,0.0,0.0,0.0,0.0,0.0,0.0,0.0,0.0,0.0,0.0,0.0,0.0,0.0,0.0,0.0,0.0,0.0,0.0,0.0,0.0,0.0,0.0,0.0,0.0,0.0,0.0,0.0,0.0,0.0,0.0,0.0,0.0,0.0,0.0,0.0,0.0,0.0,0.0,0.0,0.0,0.0,0.0,0.0,0.0,0.0,0.0,0.0,0.0,0.0,0.0,0.0,0.0,0.0,0.0,0.0,0.0,0.0,0.0,0.0,-1.2727,-1.3585,-1.5138,-1.5298,-1.5298,-1.5298,-1.5066,-1.4283,-1.2811,0.0,0.0,0.0,0.0,0.0,0.0,0.0,0.0,0.0,0.0,0.0,0.0,0.0,0.0,0.0,0.0,0.0,0.0,0.0,0.0,0.0,0.0,0.0,0.0,0.0,0.0,0.0,0.0,0.0,0.0,0.0,0.0,0.0,0.0,0.0,0.0,0.0,0.0,0.0,0.0,0.0,0.0,0.0,0.0,0.0,0.0,0.0,0.0,0.0,0.0,0.0,0.0,0.0,0.0,0.0,0.0,0.0,0.0,0.0,0.0,0.0,0.0,0.0,0.0,0.0,0.0,0.0,0.0,0.0,0.0,0.0,0.0,0.0,0.0,0.0,0.0,0.0,0.0,0.0,0.0,0.0,0.0,0.0,0.0,0.0,0.0,0.0,0.0,0.0,0.0,0.0,0.0,0.0,0.0,0.0,0.0,0.0,0.0,0.0,0.0,0.0,0.0,-1.2209,-1.2948,-1.3898,-1.5167,-1.5298,-1.5298,-1.5298,-1.5095,-1.4312,-1.2753,0.0,0.0,0.0,0.0,0.0,0.0,0.0,0.0,0.0,0.0,0.0,0.0,0.0,0.0,0.0,0.0,0.0,0.0,0.0,0.0,0.0,0.0,0.0,0.0,0.0,0.0,0.0,0.0,0.0,0.0,0.0,0.0,0.0,0.0,0.0,0.0,0.0,0.0,0.0,0.0,0.0,0.0,0.0,0.0,0.0,0.0,0.0,0.0,0.0,0.0,0.0,0.0,0.0,0.0,0.0,0.0,0.0,0.0,0.0,0.0,0.0,0.0,0.0,0.0,0.0,0.0,0.0,0.0,0.0,0.0,0.0,0.0,0.0,0.0,0.0,0.0,0.0,0.0,0.0,0.0,0.0,0.0,0.0,0.0,0.0,0.0,0.0,0.0,0.0,0.0,0.0,0.0,0.0,0.0,0.0,0.0,0.0,0.0,0.0,0.0,0.0,0.0,-1.2554,-1.36,-1.4558,-1.5225,-1.5298,-1.5298,-1.5298,-1.4689,-1.3995,0.0,0.0,0.0,0.0,0.0,0.0,0.0,0.0,0.0,0.0,0.0,0.0,0.0,0.0,0.0,0.0,0.0,0.0,0.0,0.0,0.0,0.0,0.0,0.0,0.0,0.0,0.0,0.0,0.0,0.0,0.0,0.0,0.0,0.0,0.0,0.0,0.0,0.0,0.0,0.0,0.0,0.0,0.0,0.0,0.0,0.0,0.0,0.0,0.0,0.0,0.0,0.0,0.0,0.0,0.0,0.0,0.0,0.0,0.0,0.0,0.0,0.0,0.0,0.0,0.0,0.0,0.0,0.0,0.0,0.0,0.0,0.0,0.0,0.0,0.0,0.0,0.0,0.0,0.0,0.0,0.0,0.0,0.0,0.0,0.0,0.0,0.0,0.0,0.0,0.0,0.0,0.0,0.0,0.0,0.0,0.0,0.0,0.0,0.0,0.0,0.0,0.0,0.0,-1.3056,-1.3837,-1.4558,-1.5225,-1.5298,-1.5298,-1.5298,-1.5124,-1.4529,-1.34,0.0,0.0,0.0,0.0,0.0,0.0,0.0,0.0,0.0,0.0,0.0,0.0,0.0,0.0,0.0,0.0,0.0,0.0,0.0,0.0,0.0,0.0,0.0,0.0,0.0,0.0,0.0,0.0,0.0,0.0,0.0,0.0,0.0,0.0,0.0,0.0,0.0,0.0,0.0,0.0,0.0,0.0,0.0,0.0,0.0,0.0,0.0,0.0,0.0,0.0,0.0,0.0,0.0,0.0,0.0,0.0,0.0,0.0,0.0,0.0,0.0,0.0,0.0,0.0,0.0,0.0,0.0,0.0,0.0,0.0,0.0,0.0,0.0,0.0,0.0,0.0,0.0,0.0,0.0,0.0,0.0,0.0,0.0,0.0,0.0,0.0,0.0,0.0,0.0,0.0,0.0,0.0,0.0,0.0,0.0,0.0,0.0,0.0,0.0,0.0,0.0,0.0,-1.315,-1.4096,-1.4848,-1.5254,-1.5298,-1.5298,-1.5298,-1.5298,-1.4761,-1.3481,0.0,0.0,0.0,0.0,0.0,0.0,0.0,0.0,0.0,0.0,0.0,0.0,0.0,0.0,0.0,0.0,0.0,0.0,0.0,0.0,0.0,0.0,0.0,0.0,0.0,0.0,0.0,0.0,0.0,0.0,0.0,0.0,0.0,0.0,0.0,0.0,0.0,0.0,0.0,0.0,0.0,0.0,0.0,0.0,0.0,0.0,0.0,0.0,0.0,0.0,0.0,0.0,0.0,0.0,0.0,0.0,0.0,0.0,0.0,0.0,0.0,0.0,0.0,0.0,0.0,0.0,0.0,0.0,0.0,0.0,0.0,0.0,0.0,0.0,0.0,0.0,0.0,0.0,0.0,0.0,0.0,0.0,0.0,0.0,0.0,0.0,0.0,0.0,0.0,0.0,0.0,0.0,0.0,0.0,0.0,0.0,0.0,0.0,0.0,0.0,0.0,0.0,-1.299,-1.4371,-1.5298,-1.5298,-1.5298,-1.5298,-1.5298,-1.5313,-1.479,-1.348,0.0,0.0,0.0,0.0,0.0,0.0,0.0,0.0,0.0,0.0,0.0,0.0,0.0,0.0,0.0,0.0,0.0,0.0,0.0,0.0,0.0,0.0,0.0,0.0,0.0,0.0,0.0,0.0,0.0,0.0,0.0,0.0,0.0,0.0,0.0,0.0,0.0,0.0,0.0,0.0,0.0,0.0,0.0,0.0,0.0,0.0,0.0,0.0,0.0,0.0,0.0,0.0,0.0,0.0,0.0,0.0,0.0,0.0,0.0,0.0,-1.5464,-1.5303,0.0,0.0,0.0,0.0,0.0,0.0,0.0,0.0,0.0,0.0,0.0,0.0,0.0,0.0,0.0,0.0,0.0,0.0,0.0,0.0,0.0,0.0,0.0,0.0,0.0,0.0,0.0,0.0,0.0,0.0,0.0,0.0,0.0,0.0,0.0,0.0,0.0,0.0,0.0,0.0,-1.3299,-1.4471,-1.5298,-1.5298,-1.5298,-1.5298,-1.5298,-1.5448,-1.4919,-1.348,-1.2712,0.0,0.0,0.0,0.0,0.0,0.0,0.0,0.0,0.0,0.0,0.0,0.0,0.0,0.0,0.0,0.0,0.0,0.0,0.0,0.0,0.0,0.0,0.0,0.0,0.0,0.0,0.0,0.0,0.0,0.0,0.0,0.0,0.0,0.0,0.0,0.0,0.0,0.0,0.0,0.0,0.0,0.0,0.0,0.0,0.0,0.0,0.0,0.0,0.0,0.0,0.0,0.0,0.0,0.0,0.0,0.0,0.0,0.0,0.0,-1.6424,-1.5824,0.0,0.0,0.0,0.0,0.0,0.0,0.0,0.0,0.0,0.0,0.0,0.0,0.0,0.0,0.0,0.0,0.0,0.0,0.0,0.0,0.0,0.0,0.0,0.0,0.0,0.0,0.0,0.0,0.0,0.0,0.0,0.0,0.0,0.0,0.0,0.0,0.0,0.0,0.0,0.0,-1.3759,-1.4689,-1.5343,-1.5433,-1.5448,-1.5507,-1.5624,-1.574,-1.5293,-1.4093,-1.3131,0.0,0.0,0.0,0.0,0.0,0.0,0.0,0.0,0.0,0.0,0.0,0.0,0.0,0.0,0.0,0.0,0.0,0.0,0.0,0.0,0.0,0.0,0.0,0.0,0.0,0.0,0.0,0.0,0.0,0.0,0.0,0.0,0.0,0.0,0.0,0.0,0.0,0.0,0.0,0.0,0.0,0.0,0.0,0.0,0.0,0.0,0.0,0.0,0.0,0.0,0.0,0.0,0.0,-1.8573,-1.8899,-1.8916,-1.9419,-1.9721,-1.9714,-1.7489,-1.6747,-1.6987,-1.6055,0.0,0.0,0.0,0.0,0.0,0.0,0.0,0.0,0.0,0.0,0.0,0.0,0.0,0.0,0.0,0.0,0.0,0.0,0.0,0.0,0.0,0.0,-1.5835,-1.5211,-1.5425,-1.5635,-1.5118,0.0,0.0,0.0,0.0,0.0,0.0,0.0,0.0,0.0,0.0,0.0,-1.4277,-1.5008,-1.5492,-1.5653,-1.5668,-1.5769,-1.5982,-1.6024,-1.5681,-1.4814,-1.3578,-1.2518,0.0,0.0,0.0,0.0,0.0,0.0,0.0,0.0,0.0,0.0,0.0,0.0,0.0,0.0,0.0,0.0,0.0,0.0,0.0,0.0,0.0,0.0,0.0,0.0,0.0,0.0,0.0,0.0,0.0,0.0,0.0,0.0,-1.464,-1.5479,0.0,0.0,0.0,0.0,0.0,0.0,0.0,0.0,0.0,0.0,0.0,0.0,0.0,-1.8424,-1.9222,-1.997,-2.0339,-2.0339,-2.0444,-2.0508,-2.0497,-2.058,-2.0521,-2.0362,-2.0032,0.0,-1.9578,-1.7907,0.0,0.0,0.0,0.0,0.0,0.0,0.0,0.0,0.0,0.0,0.0,0.0,0.0,0.0,0.0,0.0,0.0,0.0,0.0,0.0,0.0,0.0,-1.7951,-1.8097,-1.8303,-1.8353,-1.7894,-1.5576,-1.3598,-1.3557,-1.3481,-1.3034,0.0,0.0,0.0,0.0,0.0,0.0,-1.4796,-1.5489,-1.5926,-1.594,-1.5955,-1.5954,-1.5996,-1.6163,-1.5885,-1.5027,-1.4403,-1.3682,-1.2803,-1.1419,0.0,0.0,0.0,0.0,0.0,0.0,0.0,0.0,0.0,0.0,0.0,0.0,0.0,0.0,0.0,0.0,0.0,0.0,0.0,0.0,0.0,0.0,0.0,0.0,0.0,0.0,0.0,0.0,0.0,-1.385,-1.5233,-1.6385,-1.6491,-1.6346,0.0,0.0,0.0,0.0,0.0,0.0,0.0,0.0,0.0,-1.9323,-1.9632,-1.9953,-2.0304,-2.1094,-2.1463,-2.1481,-2.189,-2.2084,-2.2084,-2.2084,-2.1977,-2.1794,-2.1669,-2.1486,-2.114,-1.9487,-1.8629,-1.8281,0.0,0.0,0.0,0.0,-1.6732,-1.7053,-1.6947,-1.6974,-1.7037,-1.6839,0.0,0.0,0.0,0.0,0.0,0.0,0.0,-1.6453,-1.7043,-1.7855,-1.8557,-1.8672,-1.8649,-1.8545,-1.83,-1.7136,-1.5885,-1.5007,-1.4467,-1.3762,-1.2578,-1.2888,0.0,0.0,0.0,-1.4703,-1.5465,-1.5814,-1.6038,-1.6163,-1.6163,-1.6219,-1.6328,-1.6299,-1.615,-1.5747,-1.4971,-1.4238,-1.3582,-1.2158,-1.1177,0.0,0.0,0.0,0.0,0.0,0.0,0.0,0.0,0.0,0.0,0.0,0.0,0.0,0.0,0.0,0.0,0.0,0.0,0.0,0.0,0.0,0.0,0.0,0.0,0.0,0.0,0.0,0.0,-1.5277,-1.645,-1.748,-1.7801,-1.7715,0.0,0.0,0.0,0.0,0.0,0.0,-1.9049,-1.9654,-2.0339,-2.1077,-2.1123,-2.12,-2.1393,-2.199,-2.2289,-2.2277,-2.2844,-2.3212,-2.3418,-2.3418,-2.3435,-2.3454,-2.3227,-2.29,-2.235,-2.0709,-1.9893,-1.9591,-1.8819,-1.8716,-1.8979,-1.8435,-1.8579,-1.9029,-1.8885,-1.8928,-1.8981,-1.8518,-1.8321,-1.8094,-1.7259,0.0,0.0,0.0,0.0,-1.7771,-1.8331,-1.881,-1.9158,-1.9183,-1.9092,-1.8983,-1.8841,-1.8639,-1.8068,-1.6652,-1.5917,-1.5126,-1.3935,-1.4084,0.0,-1.4164,-1.4688,-1.5358,-1.6058,-1.615,-1.6219,-1.6369,-1.6382,-1.6436,-1.6596,-1.6448,-1.6355,-1.6301,-1.5401,-1.4703,-1.4356,-1.2875,-1.19,-1.1539,0.0,0.0,0.0,0.0,0.0,0.0,0.0,0.0,0.0,0.0,0.0,0.0,0.0,0.0,0.0,0.0,0.0,0.0,0.0,0.0,0.0,0.0,0.0,0.0,0.0,0.0,0.0,0.0,0.0,-1.9208,-1.9973,0.0,0.0,0.0,0.0,-1.9652,-1.9644,-1.99,-2.0638,-2.0719,-2.1112,-2.192,-2.1937,-2.2289,-2.2984,-2.3019,-2.3037,-2.3054,-2.3089,-2.3506,-2.4251,-2.4251,-2.4625,-2.5252,-2.4986,-2.4359,-2.3372,-2.1446,-2.0565,-2.0371,-1.9637,-1.9279,-1.9186,-1.9153,-1.9153,-1.9186,-1.9171,-1.9171,-1.9299,-1.9947,-1.9991,-1.9777,-1.9714,-1.9118,0.0,0.0,-1.8629,-1.8878,-1.9169,-1.9826,-2.0425,-2.0494,-2.075,-2.0879,-2.0553,-1.9839,-1.9058,-1.8393,-1.8222,-1.7787,-1.6449,0.0,-1.606,-1.5397,-1.5363,-1.5676,-1.6462,-1.657,-1.657,-1.6583,-1.6583,-1.6596,-1.661,-1.6596,-1.6503,-1.6299,-1.5642,-1.5258,-1.524,-1.3883,-1.2909,-1.2447,-1.1812,0.0,0.0,0.0,0.0,0.0,0.0,0.0,0.0,0.0,0.0,0.0,0.0,0.0,0.0,0.0,0.0,0.0,0.0,0.0,0.0,0.0,0.0,0.0,0.0,0.0,0.0,0.0,0.0,-2.0673,-2.1082,0.0,-2.0562,-2.046,-2.0471,-2.0598,-2.1001,-2.1348,-2.1562,-2.2013,-2.2645,-2.3448,-2.3483,-2.3834,-2.4576,-2.4581,-2.4581,-2.4581,-2.4581,-2.4734,-2.5015,-2.5015,-2.5088,-2.5195,-2.5111,-2.4694,-2.4066,-2.3377,-2.2395,-2.1308,-2.1046,-2.086,-2.0744,-2.0744,-2.0744,-2.0729,-2.0609,-2.0639,-2.0748,-2.0794,-2.0702,-2.0528,-2.0384,-2.0113,-1.9812,-1.9812,-2.0004,-2.0178,-2.0142,-2.0576,-2.097,-2.0764,-2.0974,-2.1166,-2.0958,-2.0751,-2.0528,-2.032,-1.9139,-1.7961,-1.7179,-1.7396,-1.7474,-1.6789,-1.7152,-1.7627,-1.792,-1.7952,-1.7952,-1.7952,-1.7573,-1.732,-1.732,-1.6756,-1.6421,-1.649,-1.5851,-1.5239,-1.4689,-1.4007,-1.3237,-1.2328,-1.1846,-1.1087,0.0,0.0,0.0,0.0,0.0,0.0,0.0,0.0,0.0,0.0,0.0,0.0,0.0,0.0,0.0,0.0,0.0,0.0,0.0,0.0,0.0,0.0,0.0,0.0,0.0,-1.9774,-2.0882,-2.1489,-2.21,-2.2272,-2.1816,-2.1992,-2.2141,-2.2209,-2.2657,-2.2982,-2.3132,-2.3611,-2.412,-2.466,-2.4677,-2.4923,-2.5401,-2.5401,-2.5401,-2.5401,-2.5401,-2.5542,-2.5805,-2.5805,-2.5876,-2.5961,-2.5801,-2.5425,-2.488,-2.4723,-2.3811,-2.2526,-2.2526,-2.2481,-2.2404,-2.2404,-2.2404,-2.2356,-2.1968,-2.1754,-2.1634,-2.1402,-2.1277,-2.1182,-2.1055,-2.0975,-2.0942,-2.0942,-2.1071,-2.1166,-2.0974,-2.1198,-2.1387,-2.1055,-2.1183,-2.1356,-2.1198,-2.123,-2.1293,-2.1293,-2.0115,-1.8936,-1.8369,-1.8606,-1.8639,-1.7935,-1.832,-1.8708,-1.8708,-1.8708,-1.8708,-1.8708,-1.8299,-1.7952,-1.7731,-1.7047,-1.6604,-1.649,-1.5768,-1.5145,-1.4658,-1.4007,-1.3333,-1.2655,-1.1911,-1.1155,-1.0396,0.0,0.0,0.0,0.0,0.0,0.0,0.0,0.0,0.0,0.0,0.0,0.0,0.0,0.0,0.0,0.0,0.0,0.0,0.0,0.0,0.0,0.0,0.0,-1.9332,-2.1499,-2.2703,-2.1687,-2.3083,-2.3769,-2.2864,-2.3375,-2.4022,-2.4593,-2.4573,-2.4784,-2.5366,-2.5401,-2.5419,-2.5437,-2.5437,-2.5454,-2.5472,-2.5472,-2.5472,-2.5472,-2.5472,-2.5879,-2.6634,-2.6634,-2.7016,-2.7669,-2.7213,-2.6611,-2.5898,-2.538,-2.4729,-2.4067,-2.4017,-2.4,-2.4,-2.4,-2.4,-2.3901,-2.3172,-2.2459,-2.1829,-2.1831,-2.1814,-2.1812,-2.1797,-2.1781,-2.1812,-2.1781,-2.1797,-2.1768,-2.1635,-2.1694,-2.1723,-2.1371,-2.145,-2.1542,-2.134,-2.1325,-2.1309,-2.1325,-2.1198,-2.0894,-2.0158,-1.9939,-1.9593,-1.8882,-1.8772,0.0,-1.8772,-1.8772,-1.8772,-1.8772,-1.8756,-1.8457,-1.7794,-1.747,-1.7014,-1.633,-1.5425,-1.5019,-1.5255,-1.3941,-1.3272,-1.3463,-1.2119,-1.1084,-1.0428,0.0,0.0,0.0,0.0,0.0,0.0,0.0,0.0,0.0,0.0,0.0,0.0,0.0,0.0,0.0,0.0,0.0,0.0,0.0,0.0,0.0,-2.0809,-2.1852,-2.1817,-2.2391,-2.2907,-2.3135,-2.4109,-2.4646,-2.4393,-2.5048,-2.5505,-2.5474,-2.5442,-2.5435,-2.5415,-2.5401,-2.5682,-2.6248,-2.6265,-2.6542,-2.7069,-2.7069,-2.7069,-2.7069,-2.7069,-2.7174,-2.7403,-2.7403,-2.7508,-2.7683,-2.755,-2.7201,-2.6698,-2.6763,-2.6302,-2.549,-2.4431,-2.4,-2.4,-2.4,-2.4,-2.3967,-2.3768,-2.3205,-2.2562,-2.2311,-2.2044,-2.1751,-2.151,-2.1617,-2.1783,-2.1679,-2.1739,-2.1738,-2.1465,-2.1587,-2.1723,-2.1371,-2.1526,-2.1663,-2.1356,-2.1495,-2.1632,-2.1542,-2.1481,-2.1354,-2.1003,-2.083,-2.0671,-2.0464,-2.0321,-2.0225,-2.0225,-2.0225,-2.0225,-2.0225,-1.9783,-1.9214,-1.8488,-1.791,-1.708,-1.5867,-1.5415,-1.5016,-1.4593,-1.3702,-1.307,-1.2773,-1.1873,-1.1305,0.0,0.0,0.0,0.0,0.0,0.0,0.0,0.0,0.0,0.0,0.0,0.0,0.0,0.0,0.0,0.0,0.0,0.0,0.0,0.0,0.0,0.0,-2.1997,-2.3022,-2.3638,-2.3684,-2.3831,-2.4248,-2.5009,-2.5497,-2.5497,-2.5932,-2.6237,-2.6371,-2.6343,-2.6357,-2.6478,-2.6743,-2.7087,-2.7561,-2.7561,-2.7771,-2.8193,-2.7859,-2.7701,-2.7701,-2.7701,-2.7701,-2.7701,-2.7701,-2.7701,-2.7701,-2.7597,-2.7432,-2.7151,-2.7087,-2.6792,-2.6279,0.0,0.0,0.0,0.0,-2.4729,-2.4464,-2.4464,-2.3984,-2.3323,-2.3129,-2.2914,-2.2694,-2.249,-2.2355,-2.2246,-2.2171,-2.1986,-2.1768,-2.1572,-2.1646,-2.1738,-2.1496,-2.1572,-2.1648,-2.1465,-2.1588,-2.1724,-2.1694,-2.1679,0.0,-2.1526,-2.1324,-2.1183,-2.1183,-2.1039,-2.0925,-2.0925,-2.0844,-2.0794,-2.0794,-2.0447,-1.9941,-1.923,-1.8446,0.0,0.0,0.0,-1.49,-1.3995,-1.355,0.0,0.0,0.0,0.0,0.0,-1.2347,0.0,0.0,-1.0568,-1.0172,0.0,0.0,0.0,0.0,0.0,0.0,0.0,0.0,0.0,0.0,0.0,0.0,0.0,0.0,0.0,0.0,-2.3134,-2.3548,-2.4973,-2.5219,-2.5244,-2.5153,-2.586,-2.6337,-2.6337,-2.6512,-2.685,-2.7435,-2.7406,-2.7646,-2.8227,-2.8757,0.0,0.0,0.0,-2.9,-2.8895,-2.8193,-2.7789,-2.7701,-2.7701,-2.7701,-2.7701,-2.7701,-2.7701,-2.7701,-2.7509,-2.7419,-2.7357,-2.6908,-2.6691,-2.664,-2.6572,-2.6415,-2.6202,-2.6202,-2.5788,-2.5209,-2.5209,0.0,0.0,-2.41,-2.405,-2.4,-2.3968,-2.3521,-2.3007,-2.2908,-2.2427,-2.1897,-2.1799,-2.1797,-2.1768,-2.1649,-2.1619,-2.162,-2.1604,-2.162,-2.1649,-2.1753,-2.1797,-2.1812,-2.1812,-2.1541,-2.1324,-2.1324,-2.1198,-2.1103,-2.1103,-2.0925,-2.0794,-2.0794,-2.0794,0.0,-1.9862,-1.8967,-1.8186,-1.7606,-1.6171,-1.4822,-1.3668,-1.371,-1.37,-1.3631,-1.3621,-1.3948,-1.46,-1.46,-1.46,-1.4502,-1.1768,-1.0719,0.0,0.0,0.0,0.0,0.0,0.0,0.0,0.0,0.0,0.0,0.0,0.0,0.0,0.0,0.0,-2.3887,-2.4348,-2.495,-2.6056,-2.6634,-2.6699,-2.6059,-2.6681,-2.717,-2.717,-2.8341,-2.9104,-2.9134,-2.9561,-2.9831,-2.9842,-2.9867,-2.9878,-2.9878,-2.9878,-2.9562,-2.8912,-2.8754,-2.8333,-2.7701,-2.7701,0.0,-2.7701,-2.7701,-2.7701,-2.7701,-2.7657,-2.7554,-2.7404,-2.7461,-2.726,-2.6892,-2.6451,-2.6256,-2.6202,-2.6202,-2.6103,-2.6005,-2.6005,-2.549,-2.4861,-2.4709,-2.4347,-2.3968,-2.3819,-2.377,0.0,-2.2931,-2.2714,-2.2529,-2.1812,-2.1708,-2.1781,-2.1768,-2.1753,-2.1723,-2.1619,-2.1679,-2.1738,-2.1649,-2.1739,-2.1812,-2.1812,-2.1664,-2.1543,-2.1543,-2.1294,-2.1103,-2.1103,-2.0925,-2.0794,-2.0794,-2.0794,-2.0526,-1.9862,-1.909,-1.8128,-1.6894,-1.6016,-1.5196,-1.4411,-1.4912,-1.4944,-1.4406,-1.4395,-1.4458,-1.46,-1.46,-1.4526,-1.4339,-1.3752,-1.3524,0.0,0.0,0.0,0.0,0.0,0.0,0.0,0.0,0.0,0.0,0.0,-2.2478,-2.3217,0.0,-2.4643,-2.5383,-2.5635,-2.6034,-2.6843,-2.7205,-2.7242,-2.6844,-2.7514,-2.8147,-2.8558,-2.9331,-2.9939,-3.0288,-3.041,-3.0466,-3.0391,-3.0566,-3.065,-3.065,-3.065,-3.0457,-3.0053,-2.9685,-2.9299,-2.8895,-2.8491,-2.8298,-2.828,-2.7877,-2.7701,-2.7701,-2.7701,-2.7642,-2.7554,-2.7554,-2.734,-2.7007,-2.7114,-2.6769,-2.6202,-2.6202,-2.6202,-2.6202,-2.6202,-2.5954,-2.5639,-2.5518,-2.541,-2.528,-2.5179,-2.4697,-2.4111,-2.3665,-2.2969,-2.2246,-2.1807,-2.1753,-2.1812,-2.1812,-2.1812,-2.1783,-2.1708,-2.1753,-2.1783,-2.1708,-2.1753,-2.1812,-2.1812,-2.1738,-2.1709,-2.1709,-2.1402,-2.1198,-2.1198,-2.0974,-2.0794,-2.0794,-2.0794,-2.0652,-2.0336,-1.9657,-1.8646,-1.7241,-1.6831,-1.618,-1.5149,-1.5418,-1.5434,-1.5102,-1.5102,-1.5276,-1.5599,-1.5599,-1.5546,-1.5443,-1.5443,-1.5009,0.0,0.0,0.0,0.0,0.0,0.0,0.0,-2.1299,-2.1973,-2.283,-2.3663,-2.4407,-2.5032,-2.5597,-2.6163,-2.6844,-2.698,-2.7244,-2.7846,-2.7919,-2.7961,-2.8087,-2.8527,-2.9156,-2.9965,-3.0165,-3.0545,-3.1166,-3.1092,-3.0987,-3.0975,-3.1299,-3.1456,-3.1423,-3.1423,-3.1352,-3.1194,-3.0615,-3.0246,-3.009,-2.9439,-2.9141,-2.9105,-2.8298,-2.7929,-2.7912,-2.7771,-2.7701,-2.7704,-2.7681,-2.7533,-2.7362,-2.8133,-2.7759,-2.6797,-2.6797,-2.6797,-2.6797,-2.6797,-2.6797,-2.6797,-2.6797,-2.6956,-2.7096,-2.6944,-2.5965,-2.4833,-2.4499,-2.3286,-2.2023,-2.186,-2.1812,-2.1812,-2.1812,-2.1812,-2.1812,-2.1812,-2.1812,-2.1796,-2.1855,-2.1855,-2.1869,-2.193,-2.1945,-2.1915,-2.1796,-2.151,-2.1293,-2.1293,-2.1006,-2.0794,-2.0794,-2.0794,-2.0747,-2.062,-2.0115,-1.9246,-1.7983,-1.7888,-1.7383,-1.6256,-1.6082,-1.6029,-1.6091,-1.5936,-1.6142,-1.6672,-1.6672,-1.6646,-1.661,-1.661,-1.5881,-2.2188,-2.23,-2.2286,-2.221,-2.2173,-2.2496,0.0,-2.4227,-2.4538,-2.541,-2.6236,-2.6776,-2.6747,-2.6804,-2.7075,-2.7761,-2.8432,-2.9104,-2.9716,-2.9814,-3.0007,-3.0522,-3.0056,-2.9984,-3.0799,-3.1524,-3.1962,-3.2053,-3.2529,-3.2755,-3.2632,-3.2511,-3.2382,-3.2265,-3.2265,-3.1914,-3.1211,-3.1107,-3.0756,-3.0106,-3.0018,-2.9983,-2.9948,-2.9141,-2.8772,-2.8737,-2.8017,-2.7701,-2.7754,-2.8443,-2.8568,-2.8397,-2.921,-2.93,-2.8954,-2.8954,-2.8954,-2.8954,-2.8954,-2.8954,-2.8954,-2.8954,-2.8971,-2.8852,-2.8152,-2.7349,-2.6395,-2.4833,-2.3745,-2.285,-2.2023,-2.1812,-2.1812,-2.1812,-2.1812,-2.1812,-2.1812,-2.1812,-2.1855,-2.2025,-2.2068,-2.2141,-2.2388,-2.2415,-2.2276,-2.1855,-2.151,-2.1293,-2.1293,-2.1006,-2.0794,-2.0794,-2.0794,-2.0557,-1.9957,-1.9846,-1.9436,-1.863,-1.8598,-1.8535,-1.8361,-1.7778,-1.7584,-1.782,-1.7178,-1.6874,-1.6955,-1.6955,-1.6828,-1.661,-1.661,-1.6489,-2.3323,-2.3508,-2.3525,-2.3857,-2.4258,-2.4707,-2.5329,-2.5815,-2.6266,-2.6631,-2.7336,-2.7873,-2.7828,-2.8605,-2.9325,-2.9481,-3.0222,-3.0783,-3.0797,-3.0796,-3.0848,-3.0989,-3.1125,-3.1329,-3.1673,-3.1999,-3.2379,-3.2868,-3.3013,-3.307,-3.3008,-3.2753,-3.2573,-3.2506,-3.244,-3.223,-3.1897,-3.1897,-3.1967,-3.2073,-3.1177,-3.0984,-3.1405,-3.0159,-2.9351,-2.8877,-2.8544,-2.8403,-2.8421,-2.8754,-2.9113,-2.9508,-3.0275,-3.0487,-3.0317,-2.9575,-2.9298,-2.9298,-2.9298,-2.9298,-2.9298,-2.9298,-2.9403,-2.9472,-2.9127,-2.8178,-2.6988,-2.583,-2.4498,-2.3229,-2.2417,-2.222,-2.222,-2.222,-2.222,-2.2321,-2.2755,-2.2504,-2.235,-2.2869,-2.2629,-2.2371,-2.247,-2.2501,-2.2429,-2.2248,-2.1796,-2.1433,-2.1309,-2.1006,-2.0794,-2.0794,-2.0794,-2.0684,-2.0399,-2.0383,-2.0083,-1.9373,-1.9491,-1.9402,-1.8999,-1.8922,-1.8925,-1.9029,-1.8545,-1.8275,-1.8275,-1.7687,-1.735,-1.7241,-1.6801,-1.6817,-2.3687,-2.4164,-2.4692,-2.4905,-2.5684,-2.6382,-2.6336,-2.6942,-2.7542,-2.7542,-2.8191,-2.8754,-2.8754,-2.9748,-3.0582,-3.0609,-3.1366,-3.1872,-3.1647,-3.1671,-3.1724,-3.1738,-3.206,-3.2397,-3.267,-3.2609,-3.2777,-3.3357,-3.3274,-3.3165,-3.3101,-3.2882,-3.2705,-3.2588,-3.2524,-3.2528,-3.2704,-3.2704,-3.3073,-3.381,-3.2704,-3.2458,-3.2985,-3.144,-3.0176,-2.9228,-2.9228,-2.9105,-2.893,-2.9369,-2.9878,-3.0475,-3.123,-3.1528,-3.1424,-3.0491,-3.0162,-3.0162,-3.0162,-3.0162,-3.0162,-3.0162,-3.0283,-3.0402,-3.0176,-2.92,-2.7929,-2.6879,-2.5515,-2.415,-2.3346,-2.2959,-2.2856,-2.3078,-2.2959,-2.3007,-2.377,-2.3517,-2.3243,-2.3618,-2.3258,-2.2846,-2.2693,-2.2659,-2.2646,-2.2579,-2.2153,-2.1731,-2.1433,-2.1039,-2.0794,-2.0794,-2.0794,-2.0794,-2.0794,-2.0876,-2.0735,-2.0241,-2.047,-2.0419,-1.9941,-1.9951,-2.0014,-2.008,-1.968,-1.9402,-1.9304,-1.8584,-1.8137,-1.7967,-1.7431,-1.7462,-2.3383,-2.4548,-2.6059,-2.5278,-2.6143,-2.7175,-2.7167,-2.7796,-2.8351,-2.8351,-2.9063,-2.9664,-2.9664,-2.9701,-2.9936,-3.0516,-3.1441,-3.219,-3.243,-3.263,-3.2975,-3.3547,-3.2948,-3.2863,-3.3849,-3.3578,-3.3375,-3.3393,-3.3393,-3.3319,-3.3101,-3.3086,-3.2945,-3.2622,-3.2606,-3.2875,-3.3459,-3.3459,-3.3862,-3.4671,-3.4636,-3.4618,-3.4583,-3.302,-3.151,-3.0071,-3.0071,-2.9632,-2.9018,-3.051,-3.1124,-3.1264,-3.2055,-3.2353,-3.2353,-3.2318,-3.2318,-3.2318,-3.2318,-3.2318,-3.2318,-3.2318,-3.2301,-3.216,-3.1388,-3.0616,-2.9655,-2.7861,-2.6812,-2.5989,-2.4991,-2.4147,-2.377,-2.4538,-2.413,-2.3787,-2.4589,-2.4744,-2.4562,-2.4002,-2.3856,-2.3697,-2.3163,-2.3082,-2.302,-2.2829,-2.2603,-2.2255,-2.1672,-2.1135,-2.0794,-2.0794,-2.0794,-2.0794,-2.0794,-2.1103,-2.1277,-2.1261,-2.1569,-2.1748,-2.1731,-2.1045,-2.0802,-2.1049,-2.0412,-1.9912,-1.9591,-1.9561,-1.9232,-1.8677,-1.8661,-1.8661,-2.5369,-2.5844,-2.6561,-2.7402,-2.7901,-2.8329,-2.8868,-2.9133,-2.927,-2.927,-2.9495,-2.9701,-2.9701,-3.0133,-3.0733,-3.1471,-3.2356,-3.3125,-3.3629,-3.3746,-3.3617,-3.3159,-3.3337,-3.3418,-3.3216,-3.3569,-3.3807,-3.3807,-3.3807,-3.4,-3.4472,-3.4406,-3.4543,-3.4903,-3.4832,-3.4866,-3.5026,-3.4759,-3.503,-3.583,-3.5556,-3.5179,-3.4689,-3.4144,-3.3073,-3.1633,-3.1633,-3.1177,-3.0457,-3.0984,-3.151,-3.2019,-3.2283,-3.2406,-3.2406,-3.2406,-3.2406,-3.2406,-3.2406,-3.2406,-3.2406,-3.2406,-3.2406,-3.2353,-3.2072,-3.144,-3.0494,-2.8852,-2.7824,-2.6918,-2.5554,-2.5004,-2.4864,-2.5126,-2.4986,-2.5004,-2.5822,-2.5561,-2.531,-2.5628,-2.5257,-2.4672,-2.4015,-2.3904,-2.3678,-2.3027,-2.2361,-2.1805,-2.1508,-2.1087,-2.0794,-2.0794,-2.1006,-2.1135,-2.1135,-2.1449,-2.1632,-2.1632,-2.1911,-2.2068,-2.2068,-2.2044,-2.2074,-2.2171,-2.1551,-2.1166,-2.1066,-2.017,-1.9633,-1.942,-1.893,-1.8961,-2.6492,-2.6989,-2.7616,-2.8702,-2.9053,-2.926,-2.9783,-2.9799,-2.9608,-2.9307,-2.9251,-2.9157,-2.8857,-2.9232,-3.003,-3.1447,-3.2132,-3.2924,-3.413,-3.4293,-3.4052,-3.3413,-3.3778,-3.3932,-3.3489,-3.3905,-3.4161,-3.4011,-3.3998,-3.422,-3.4737,-3.4966,-3.5271,-3.5683,-3.5879,-3.6036,-3.624,-3.5948,-3.6126,-3.6792,-3.6519,-3.6103,-3.5514,-3.5214,-3.4407,-3.3213,-3.3213,-3.2616,-3.1651,-3.1914,-3.2177,-3.2406,-3.2406,-3.2406,-3.2406,-3.2406,-3.2406,-3.2406,-3.2406,-3.2406,-3.2406,-3.2406,-3.2406,-3.2406,-3.2406,-3.2037,-3.1352,-3.0071,-2.9158,-2.8263,-2.6981,-2.6244,-2.591,-2.6156,-2.6016,-2.6037,-2.6809,-2.6595,-2.6297,-2.6546,-2.6177,-2.5595,-2.4818,-2.4695,-2.4418,-2.3583,-2.2822,-2.2178,-2.1706,-2.1276,-2.099,-2.0909,-2.1039,-2.1167,-2.1293,-2.1617,-2.184,-2.1926,-2.2226,-2.2378,-2.2378,-2.2588,-2.2699,-2.2699,-2.22,-2.1899,-2.1812,-2.0809,-2.0273,-2.0146,-1.9672,-1.9704,-2.683,-2.7943,-2.911,-2.9154,-2.9555,-2.9921,-2.9913,-2.9779,-2.941,-2.8566,-2.8369,-2.8116,-2.7355,-2.725,-2.8077,-3.0518,-3.095,-3.1754,-3.4004,-3.4328,-3.4316,-3.4316,-3.4316,-3.4386,-3.4572,-3.4612,-3.445,-3.4061,-3.4036,-3.4055,-3.4092,-3.4868,-3.5259,-3.5156,-3.5891,-3.653,-3.7114,-3.7037,-3.7172,-3.7542,-3.7505,-3.7339,-3.7011,-3.6215,-3.546,-3.4776,-3.4776,-3.3898,-3.2564,-3.3266,-3.3125,-3.2458,-3.2458,-3.2423,-3.2406,-3.2406,-3.2406,-3.2406,-3.2406,-3.2406,-3.2406,-3.2406,-3.2406,-3.2406,-3.2406,-3.2406,-3.2213,-3.137,-3.065,-2.9913,-2.907,-2.7754,-2.6827,-2.7526,-2.7174,-2.6858,-2.7543,-2.7701,-2.749,-2.6791,-2.6616,-2.6353,-2.5581,-2.5437,-2.5156,-2.4449,-2.3996,-2.3339,-2.2254,-2.1705,-2.1324,-2.1119,-2.0942,-2.0974,-2.1293,-2.1632,-2.1926,-2.2206,-2.2517,-2.2699,-2.2699,-2.2685,-2.2672,-2.2672,-2.2337,-2.2025,-2.1766,-2.1433,-2.1119,-2.0794,-2.0794,-2.0794,-2.827,-2.8864,-2.9289,-3.0037,-3.0221,-3.0171,-3.0073,-2.9475,-2.8841,-2.848,-2.7928,-2.7466,-2.7298,-2.7813,-2.8883,-3.0804,-3.1626,-3.2647,-3.4423,-3.4666,-3.4634,-3.4528,-3.4517,-3.4539,-3.4602,-3.4612,-3.455,-3.4461,-3.445,-3.4731,-3.5385,-3.6183,-3.6857,-3.738,-3.8193,-3.8635,-3.8637,-3.8327,-3.8095,-3.793,-3.765,-3.745,-3.7376,-3.6914,-3.625,-3.5511,-3.5511,-3.4986,-3.4126,-3.4319,-3.3933,-3.3231,-3.3213,-3.288,-3.2406,-3.2406,-3.2406,-3.2406,-3.2406,-3.2406,-3.2406,-3.2406,-3.2406,-3.2406,-3.2406,-3.2406,-3.2125,-3.0756,-3.0264,-2.979,-2.8368,-2.7701,-2.7473,-2.7648,-2.7561,-2.7473,-2.7648,-2.7701,-2.7631,-2.7455,-2.6981,-2.6528,-2.6318,-2.5805,-2.5349,-2.5156,-2.4563,-2.3675,-2.2349,-2.1805,-2.1432,-2.1135,-2.123,-2.1416,-2.1646,-2.1924,-2.2223,-2.2544,-2.2642,-2.2699,-2.2699,-2.2463,-2.232,-2.232,-2.1792,-2.1494,-2.1433,-2.1103,-2.0876,-2.0794,-2.0794,-2.0794,-2.9027,-2.951,-2.9892,-3.0453,-3.0446,-3.0186,-2.9756,-2.9167,-2.8441,-2.7565,-2.7035,-2.6613,-2.6276,-2.6953,-2.8228,-3.0286,-3.1326,-3.2559,-3.4566,-3.4819,-3.4768,-3.4706,-3.4634,-3.4612,-3.4612,-3.4612,-3.4612,-3.4612,-3.4612,-3.4808,-3.5296,-3.6472,-3.7293,-3.7689,-3.8871,-3.9425,-3.9301,-3.8998,-3.8703,-3.8362,-3.8097,-3.7808,-3.7487,-3.7319,-3.6881,-3.6338,-3.6338,-3.5899,-3.5162,-3.4828,-3.4232,-3.3477,-3.3143,-3.2774,-3.2406,-3.2406,-3.2406,-3.2406,-3.2406,-3.2406,-3.2406,-3.2406,-3.2406,-3.2406,-3.2406,-3.2406,-3.2142,-3.0931,-3.0352,-2.9809,-2.8544,-2.7964,-2.7701,-2.7701,-2.7701,-2.7701,-2.7701,-2.7701,-2.7701,-2.7701,-2.7368,-2.7087,-2.7087,-2.6718,-2.6297,-2.5967,-2.5261,-2.4313,-2.2982,-2.2267,-2.1718,-2.1372,-2.1447,-2.1645,-2.1884,-2.211,-2.2375,-2.2685,-2.2699,-2.2628,-2.249,-2.2306,-2.2136,-2.2041,-2.1555,-2.1293,-2.1293,-2.0958,-2.0636,-2.0368,-2.0652,-2.0636,-2.9637,-3.0275,-3.0924,-3.08,-3.063,-3.024,-2.9308,-2.8836,-2.8115,-2.6463,-2.6034,-2.5725,-2.4981,-2.5594,-2.7027,-2.9531,-3.0666,-3.2108,-3.4576,-3.4964,-3.4999,-3.4968,-3.4856,-3.4773,-3.4781,-3.4658,-3.465,-3.4752,-3.4771,-3.4771,-3.4771,-3.6246,-3.7204,-3.7429,-3.8783,-3.9469,-3.9418,-3.9301,-3.9069,-3.8792,-3.867,-3.8277,-3.7649,-3.756,-3.7339,-3.7068,-3.7009,-3.6531,-3.574,-3.5109,-3.432,-3.3442,-3.2792,-3.2493,-3.2406,-3.2406,-3.2406,-3.2406,-3.2406,-3.2406,-3.2406,-3.2406,-3.2406,-3.2406,-3.2406,-3.2406,-3.2213,-3.13,-3.0598,-2.9879,-2.8983,-2.821,-2.7701,-2.7701,-2.7701,-2.7701,-2.7701,-2.7701,-2.7701,-2.7701,-2.7701,-2.7701,-2.7701,-2.7701,-2.7473,-2.6827,-2.5967,-2.502,-2.3941,-2.2889,-2.2084,-2.165,-2.1601,-2.1703,-2.1982,-2.2181,-2.2388,-2.2699,-2.2699,-2.2575,-2.2278,-2.222,-2.2068,-2.1812,-2.1464,-2.1277,-2.123,-2.0942,-2.0494,-1.9957,-2.0526,-2.0494,-3.1278,-3.2083,-3.2575,-3.1849,-3.1603,-3.1104,-2.9459,-2.8552,0.0,-2.651,-2.5697,-2.5165,-2.5069,-2.5716,-2.7138,-2.9735,-3.0875,-3.2294,-3.4713,-3.5627,-3.5989,-3.5799,-3.5778,-3.5735,-3.5683,-3.5015,-3.4902,-3.5615,-3.5672,-3.5672,-3.5672,-3.6573,-3.773,-3.912,-3.9383,-3.9495,-3.9482,-3.9399,-3.9333,-3.9275,-3.8865,-3.8624,-3.8468,-3.779,-3.7469,-3.7413,-3.7108,-3.6531,-3.5792,-3.5652,-3.4776,-3.3494,-3.3353,-3.2932,-3.2406,-3.2406,-3.2406,-3.2406,-3.2406,-3.2406,-3.2406,-3.2406,-3.2406,-3.2406,-3.2406,-3.2406,-3.2107,-3.0703,-3.0211,-2.9772,-2.828,-2.7789,-2.7701,-2.7701,-2.7701,-2.7701,-2.7701,-2.7701,-2.7701,-2.7701,-2.7701,-2.7701,-2.7701,-2.7701,-2.7648,-2.7526,-2.6314,-2.5254,-2.4895,-2.3447,-2.2217,-2.1665,-2.1588,-2.1738,-2.2053,-2.2068,-2.2268,-2.2747,-2.2725,-2.2672,-2.2615,-2.2347,-2.2068,-2.1812,-2.1464,-2.1167,-2.0893,-2.0827,-2.0731,-2.062,-2.0747,-2.0731,-3.1855,-3.2559,-3.3091,-3.2675,-3.2216,-3.1399,-2.9646,0.0,0.0,-2.6063,-2.5417,-2.5116,-2.5143,-2.5812,-2.6918,-2.8612,-2.9605,-3.1176,-3.4102,-3.4732,-3.5353,-3.658,-3.6645,-3.6547,-3.6528,-3.5766,-3.5615,-3.646,-3.6141,-3.6085,-3.6498,-3.7286,-3.83,-3.9552,-3.9571,-3.9558,-3.9558,-3.9482,-3.9457,-3.9444,-3.9188,-3.8956,-3.873,-3.8147,-3.7755,-3.7506,-3.6724,-3.6162,-3.574,-3.4934,-3.4161,-3.3459,-3.309,-3.2722,-3.2406,-3.2406,-3.2406,-3.2406,-3.2406,-3.2406,-3.2406,-3.2406,-3.2406,-3.2406,-3.2406,-3.2406,-3.216,-3.1001,-3.0404,-2.9843,-2.8631,-2.8017,-2.7701,-2.7701,-2.7701,-2.7701,-2.7701,-2.7701,-2.7701,-2.7701,-2.7701,-2.7701,-2.7701,-2.7701,-2.7701,-2.7701,-2.6384,-2.532,-2.5125,-2.367,-2.2511,-2.2106,-2.2161,-2.2287,-2.2409,-2.2473,-2.2624,-2.2842,-2.2829,-2.2734,-2.2554,-2.2385,-2.2178,-2.1897,-2.1749,-2.1478,-2.1103,-2.1103,-2.0831,-2.0289,-2.0636,-2.0605,-3.2288,-3.3008,-3.3703,-3.3535,-3.2829,-3.1695,-2.9815,-2.8631,-2.7439,-2.5678,-2.5293,-2.5257,-2.5241,-2.5759,-2.6515,0.0,-2.839,-3.0032,-3.3291,-3.398,-3.4984,-3.7144,-3.7411,-3.7396,-3.7354,-3.646,-3.631,-3.7268,-3.693,-3.6892,-3.7336,-3.8131,-3.8882,-3.957,-3.9589,-3.9589,-3.9589,-3.9546,-3.952,-3.952,-3.9457,-3.9261,-3.8937,-3.8514,-3.8145,-3.7788,-3.6541,-3.5895,-3.5647,-3.4199,-3.3495,-3.3248,-3.2668,-3.2422,-3.2406,-3.2406,-3.2406,-3.2406,-3.2406,-3.2406,-3.2406,-3.2406,-3.2406,-3.2406,-3.2406,-3.2406,-3.223,-3.1423,-3.0668,-2.9897,-2.9105,-2.8298,-2.7701,-2.7701,-2.7701,-2.7701,-2.7701,-2.7701,-2.7701,-2.7701,-2.7701,-2.7701,-2.7701,-2.7701,-2.7701,-2.7701,-2.6384,-2.5347,-2.5181,-2.3819,-2.2803,-2.2646,-2.2699,-2.2725,-2.2725,-2.2838,-2.2932,-2.2932,-2.2919,-2.2782,-2.252,-2.2506,-2.2371,-2.2096,-2.2027,-2.1794,-2.1402,-2.1308,-2.083,-2.0036,-2.0557,-2.051,-3.3186,-3.434,-3.5377,-3.4581,-3.3729,-3.2432,-2.9951,0.0,-2.757,-2.5766,-2.543,-2.546,-2.5387,-2.539,-2.595,0.0,0.0,-2.9843,-3.2529,-3.4721,-3.6388,-3.7285,-3.7975,-3.8316,-3.8199,-3.6798,-3.6535,-3.8075,-3.8845,-3.8951,-3.8225,-3.9007,-3.9514,-3.9589,-3.9589,-3.9589,-3.9589,-3.9589,-3.9596,-3.9596,-3.952,-3.9469,-3.9412,-3.8952,-3.8726,-3.8611,-3.7227,-3.6241,-3.5522,-3.4398,-3.3449,-3.2695,-3.2625,-3.2524,-3.2406,-3.2406,-3.2406,-3.2406,-3.2406,-3.2406,-3.2406,-3.2406,-3.2406,-3.2406,-3.2406,-3.2406,-3.223,-3.1423,-3.0668,-2.9897,-2.9105,-2.8298,-2.7701,-2.7701,-2.7701,-2.7701,-2.7701,-2.7701,-2.7701,-2.7701,-2.7701,-2.7701,-2.7701,-2.7701,-2.7701,-2.7701,-2.6384,-2.5388,-2.5374,-2.4029,-2.307,-2.3057,-2.2738,-2.2592,-2.2777,-2.2751,-2.2803,-2.2982,-2.2927,-2.2893,-2.285,-2.285,-2.2699,-2.2368,-2.2068,-2.1735,-2.1402,-2.1023,-2.0812,-2.0699,-2.0763,-2.0763,-3.3161,-3.4516,-3.5724,-3.5379,-3.4264,-3.2726,-3.0649,-2.91,-2.7602,-2.5874,-2.5517,-2.5491,-2.5468,-2.541,-2.5582,0.0,0.0,0.0,-3.0212,-3.169,-3.3555,-3.634,-3.7265,-3.8021,-3.8988,-3.8037,-3.7606,-3.8263,-3.912,-3.9458,-3.9101,-3.942,-3.9589,-3.9589,-3.9589,-3.9589,-3.9589,-3.9589,-3.9589,-3.9589,-3.9583,-3.9571,-3.954,-3.9059,-3.8598,-3.8071,-3.6769,-3.5675,-3.4756,-3.3887,-3.3245,-3.2786,-3.291,-3.2925,-3.288,-3.288,-3.288,-3.2864,-3.2739,-3.277,-3.288,-3.288,-3.2957,-3.3001,-3.2736,-3.2319,-3.1999,-3.214,-3.0811,-2.9421,-2.9579,-2.8667,-2.7701,-2.7701,-2.7701,-2.7701,-2.7701,-2.7701,-2.7701,-2.7701,-2.7701,-2.7701,-2.7701,-2.7701,-2.7701,-2.7701,-2.6806,-2.5963,-2.5472,-2.4471,-2.3628,-2.3142,-2.2957,-2.2889,-2.2965,-2.2957,-2.2965,-2.3057,-2.3045,-2.3033,-2.3033,-2.3033,-2.2965,-2.2829,-2.2453,-2.2093,-2.1764,-2.1354,-2.1039,-2.0794,-2.0925,-2.0974,-3.2398,-3.3787,-3.5065,-3.5065,-3.3798,-3.2147,-3.0651,-2.8981,-2.7346,-2.5892,-2.5551,-2.5524,-2.5524,-2.5476,-2.5444,0.0,0.0,-2.6544,-2.885,-2.9896,-3.1703,-3.5092,-3.6278,-3.7442,-3.9063,-3.9107,-3.8826,-3.8338,-3.912,-3.9589,-3.9589,-3.9589,-3.9589,-3.9589,-3.9589,-3.9589,-3.9589,-3.9589,-3.9589,-3.9589,-3.9589,-3.9458,-3.9201,-3.8867,-3.8268,-3.7461,-3.6279,-3.5341,-3.4597,-3.3771,-3.3317,-3.3142,-3.3284,-3.3284,-3.3199,-3.3199,-3.3199,-3.3184,-3.3037,-3.3126,-3.3284,-3.3284,-3.3443,-3.3584,-3.327,-3.255,-3.199,-3.2496,-3.0969,-2.9231,-2.9556,-2.8735,-2.7829,-2.7829,-2.7757,-2.7701,-2.7701,-2.7701,-2.7701,-2.7701,-2.7701,-2.7701,-2.7701,-2.7701,-2.7701,-2.7701,-2.7069,-2.6314,-2.5507,-2.4765,-2.3992,-2.3195,-2.3107,-2.3107,-2.3107,-2.3107,-2.3107,-2.3107,-2.3107,-2.3107,-2.3107,-2.3107,-2.3107,-2.3107,-2.2704,-2.2354,-2.2053,-2.166,-2.1276,-2.0958,-2.1087,-2.1167,-3.082,-3.2056,-3.3337,-3.3331,-3.2011,-3.0499,-2.9602,-2.8126,-2.6653,-2.5776,-2.5601,-2.5598,-2.5598,-2.5538,-2.5517,-2.5589,0.0,0.0,-2.9035,-3.0552,-3.2074,-3.3636,-3.5172,-3.6692,-3.8174,-3.9802,-4.0084,-3.8432,-3.912,-3.9589,-3.9589,-3.9589,-3.9589,-3.9589,-3.9589,-3.9589,-3.9589,-3.9589,-3.9589,-3.9589,-3.9589,-3.9157,-3.8319,-3.8307,-3.7868,-3.7061,-3.598,-3.5491,-3.5405,-3.4407,-3.3871,-3.3702,-3.3702,-3.3482,-3.3199,-3.3199,-3.3199,-3.3199,-3.3199,-3.3328,-3.35,-3.35,-3.3725,-3.3998,-3.3985,-3.3201,-3.2306,-3.2306,-3.1101,-2.96,-2.8734,-2.8316,-2.8102,-2.8102,-2.7897,-2.7701,-2.7701,-2.7701,-2.7701,-2.7701,-2.7701,-2.7701,-2.7701,-2.7701,-2.7701,-2.7701,-2.7069,-2.6314,-2.5507,-2.4765,-2.3992,-2.3195,-2.3107,-2.3107,-2.3107,-2.3107,-2.3107,-2.3107,-2.3107,-2.3107,-2.3107,-2.3107,-2.3107,-2.3107,-2.2704,-2.2409,-2.2192,-2.179,-2.1477,-2.1293,-2.1293,-2.1293,-2.9745,-3.0694,-3.1518,-3.1513,-3.0651,-2.9583,-2.8706,-2.768,-2.6653,-2.5776,-2.5601,-2.5601,-2.5601,-2.5586,-2.5949,-2.711,-2.7491,0.0,-3.0017,-3.1565,-3.3138,-3.4763,-3.7649,-3.9692,-4.0104,-4.0541,-4.0347,-3.927,-3.9439,-3.9589,-3.9589,-3.9589,-3.9589,-3.9589,-3.9589,-3.9589,-3.9589,-3.9589,-3.9308,-3.8713,-3.8713,-3.8281,-3.7474,-3.7474,-3.7042,-3.6254,-3.5915,-3.5362,-3.4665,-3.4345,-3.408,-3.3928,-3.4068,-3.4037,-3.3948,-3.3948,-3.3948,-3.3935,-3.3792,-3.3871,-3.4037,-3.4037,-3.3849,-3.3583,-3.3583,-3.2769,-3.1532,-3.0209,-2.9848,-2.9677,-2.884,-2.856,-2.8478,-2.8337,-2.817,-2.8027,-2.7922,-2.7806,-2.7701,-2.7701,-2.7701,-2.7701,-2.7701,-2.7701,-2.7701,-2.7701,-2.749,-2.7087,-2.6318,-2.6016,-2.5559,-2.4769,-2.4669,-2.4247,-2.3195,-2.3107,-2.3107,-2.3107,-2.3107,-2.3107,-2.3107,-2.3107,-2.3107,-2.3107,-2.2704,-2.2409,-2.2206,-2.1805,-2.1569,-2.1512,-2.1512,-2.1557,-2.8204,-2.911,-2.9758,-2.9732,-2.9078,-2.8301,-2.7777,-2.7019,-2.6262,-2.5718,-2.5601,-2.5601,-2.5601,-2.5601,-2.5948,-2.6997,-2.7424,-2.8243,-2.9972,-3.1607,-3.3446,-3.565,-3.8456,-4.0027,-3.9634,-4.034,-4.0328,-3.9195,-3.942,-3.9589,-3.9589,-3.9589,-3.9589,-3.9589,-3.9589,-3.9589,-3.9589,-3.9589,-3.9157,-3.83,-3.83,-3.7718,-3.6648,-3.6648,-3.6179,-3.5409,-3.5409,-3.5034,0.0,-3.4397,-3.434,-3.4245,-3.4351,-3.4381,-3.4293,-3.4293,-3.4293,-3.4281,-3.4161,-3.4047,-3.3968,-3.3968,-3.3473,-3.2856,-3.2545,-3.1923,-3.101,-2.9474,-2.9406,-2.966,-2.9137,-2.8941,-2.8819,-2.8688,-2.8471,-2.825,-2.8183,-2.8017,-2.789,-2.789,-2.7847,-2.7821,-2.7821,-2.7745,-2.7701,-2.7701,-2.7701,-2.7438,-2.6686,-2.6598,-2.6283,-2.5489,-2.5401,-2.5015,-2.4037,-2.3716,-2.3418,-2.3125,-2.3107,-2.3107,-2.3107,-2.3107,-2.3107,-2.3107,-2.2854,-2.263,-2.2433,-2.201,-2.1749,-2.1679,-2.1679,-2.1708,0.0,-2.7344,-2.7994,-2.794,-2.7369,-2.6808,-2.6808,-2.6184,0.0,-2.5601,-2.5601,-2.5621,-2.5679,-2.564,-2.5659,-2.5834,-2.6592,-2.776,-2.9447,-3.1269,-3.3586,-3.6625,-3.8054,-3.8467,-3.7581,-3.946,-4.0059,-3.8432,-3.9101,-3.9602,-3.9589,-3.9589,-3.9589,-3.9589,-3.9589,-3.9589,-3.9589,-3.9589,-3.9138,-3.8206,-3.8206,-3.738,-3.5803,-3.5803,-3.5371,-3.4612,-3.4612,-3.4612,-3.4612,-3.4612,-3.4612,-3.4612,-3.4612,-3.4484,-3.4316,-3.4316,-3.4316,-3.4316,-3.4316,-3.3953,-3.3475,-3.3362,-3.2762,-3.1936,-3.1081,-3.0856,-3.0715,-2.9842,-2.9607,-2.9598,-2.954,-2.9324,-2.9148,-2.9107,-2.8772,-2.8458,-2.8433,-2.8313,-2.8214,-2.8201,-2.8109,-2.8011,-2.8011,-2.7864,-2.7745,-2.7745,-2.773,-2.747,-2.6802,-2.6683,-2.6388,-2.5647,-2.5559,-2.5524,-2.5419,-2.473,-2.3975,-2.323,-2.3125,-2.3107,-2.3107,-2.3107,-2.3107,-2.3107,-2.3095,-2.2995,-2.2803,-2.2351,-2.2027,-2.1811,-2.1811,-2.1811,-2.4699,0.0,-2.6207,-2.6182,-2.6048,-2.5912,0.0,-2.5757,-2.5601,-2.5601,-2.5601,-2.5795,-2.6478,-2.6048,-2.6242,-2.8185,-2.9233,-3.0402,-3.2147,-3.4983,-3.7856,-4.0429,-4.0204,-3.9736,-3.948,-3.9761,-3.9498,-3.8375,-3.9147,-3.9661,-3.9602,-3.9589,-3.9589,-3.9589,-3.9589,-3.9589,-3.9589,-3.9589,-3.8857,-3.7392,-3.7392,-3.6498,-3.4902,-3.4902,-3.4789,-3.4612,-3.4612,-3.4612,-3.4612,-3.4612,-3.4612,-3.4612,-3.4612,-3.4561,-3.4528,-3.4528,-3.4528,-3.4528,-3.4528,-3.4438,-3.4113,-3.2818,-3.2274,-3.1823,-3.0415,-3.0415,-3.0724,-2.9908,-2.9683,-2.9664,-2.9655,-2.9617,-2.9512,-2.9363,-2.9177,-2.8936,-2.867,-2.8482,-2.8321,-2.8228,-2.8174,-2.8146,-2.8146,-2.8119,-2.8091,-2.8091,-2.8011,-2.7855,-2.7678,-2.7542,-2.7368,-2.7174,-2.7157,-2.6683,-2.5507,-2.473,-2.4221,-2.4027,-2.3435,-2.3107,-2.3107,-2.3107,-2.3107,-2.3107,-2.2957,-2.2855,-2.2803,-2.2521,-2.2287,-2.2025,-2.2025,-2.194,-2.3098,-2.4386,-2.5707,-2.6107,-2.6203,-2.6203,-2.6203,0.0,0.0,0.0,0.0,0.0,-2.6223,-2.6242,-2.6767,-2.8511,-2.9874,-3.1723,-3.4633,-3.6988,-3.9015,-4.0651,-4.0209,-3.9407,-3.844,-3.8915,-3.8899,-3.7917,-3.9056,-3.9747,-3.9649,-3.9637,-3.9631,-3.9589,-3.9214,-3.9195,-3.9589,-3.9195,-3.8368,-3.711,-3.6735,-3.5871,-3.4612,-3.4612,-3.4612,-3.4612,-3.4612,-3.4612,-3.4612,-3.4612,-3.4612,-3.4612,-3.4612,-3.4612,-3.4612,-3.4612,-3.4612,-3.4612,-3.4612,-3.4358,-3.3776,-3.2086,-3.156,-3.1316,-3.0077,-3.0002,-3.0265,-2.9814,-2.9701,-2.9701,-2.9701,-2.9701,-2.9664,-2.956,-2.9412,-2.9249,-2.9064,-2.8815,-2.8608,-2.8543,-2.8388,-2.8286,-2.8286,-2.8246,-2.8201,-2.8201,-2.8183,-2.8183,-2.8174,-2.8151,-2.8047,-2.7897,-2.7883,-2.749,-2.6539,-2.545,-2.4502,-2.3786,-2.3335,-2.3107,-2.3107,-2.3107,-2.3107,-2.3107,-2.2977,-2.2893,-2.2803,-2.2685,-2.2525,-2.2284,-2.2284,-2.2231,-2.2097,-2.3859,-2.5758,-2.6346,-2.6595,-2.6692,-2.6692,0.0,0.0,0.0,0.0,0.0,0.0,-2.6592,-2.7388,-2.8337,-2.9952,-3.2497,-3.6537,-3.7741,-3.8476,-3.924,-3.9088,-3.8297,-3.6739,-3.7847,-3.8366,-3.7616,-3.9062,-3.9927,-3.978,-3.978,-3.9743,-3.9684,-3.8827,-3.871,-3.9443,-3.8568,-3.7718,-3.6904,-3.6235,-3.5446,-3.4612,-3.4612,-3.4612,-3.4612,-3.4612,-3.4612,-3.4612,-3.4612,-3.4612,-3.4612,-3.4612,-3.4612,-3.4612,-3.4612,-3.4508,-3.4395,-3.4264,-3.3776,-3.2939,-3.14,-3.0893,-3.0743,-2.9945,-2.9701,-2.9701,-2.9701,-2.9701,-2.9701,-2.9701,-2.9701,-2.9701,-2.9701,-2.956,-2.9433,-2.9412,-2.9181,-2.8968,-2.8934,-2.8682,-2.8471,-2.8471,-2.8367,-2.8255,-2.8255,-2.8365,-2.8451,-2.8453,-2.854,-2.8504,-2.8219,-2.8192,-2.8035,-2.7667,-2.6306,-2.4866,-2.3407,-2.3172,-2.3107,-2.3107,-2.3107,-2.3107,-2.3107,-2.3107,-2.302,-2.2855,-2.2855,-2.2738,-2.2555,-2.2555,-2.2542,-2.3322,-2.4742,-2.5451,-2.4855,-2.5249,-2.5795,-2.5795,0.0,0.0,0.0,0.0,0.0,0.0,-2.7832,-2.8434,-3.003,-3.1759,-3.3876,-3.6692,-3.7217,-3.762,-3.8466,-3.7741,-3.7352,-3.7778,-3.7952,-3.8231,-3.8689,-3.9714,-4.026,-4.0126,-4.0126,-4.0118,-4.011,-3.9154,-3.8671,-3.875,-3.7777,-3.6873,-3.6085,-3.5953,-3.5446,-3.4612,-3.4612,-3.4612,-3.4612,-3.4612,-3.4612,-3.4612,-3.4612,-3.4612,-3.4612,-3.4612,-3.4612,-3.4612,-3.4612,-3.417,-3.3475,-3.2743,-3.2405,-3.2142,-3.1212,-3.0893,-3.0743,-2.9945,-2.9701,-2.9701,-2.9701,-2.9701,-2.9701,-2.9701,-2.9701,-2.9701,-2.9701,-2.9692,-2.9617,-2.9433,-2.9361,-2.927,-2.9093,-2.8938,-2.8815,-2.8815,-2.8657,-2.8536,-2.8536,-2.8607,-2.8639,-2.8657,-2.8676,-2.8658,-2.8597,-2.8615,-2.8269,-2.7419,-2.6421,-2.5372,-2.4346,-2.3545,-2.3107,-2.3107,-2.3107,-2.3107,-2.3107,-2.3107,-2.3077,-2.304,-2.304,-2.2957,-2.2751,-2.2751,-2.2659,-2.2492,-2.3568,-2.4335,-2.4874,-2.6336,-2.7524,-2.7055,-2.6958,0.0,0.0,0.0,0.0,0.0,-2.8861,-3.0224,-3.2403,-3.3818,-3.5216,-3.6867,-3.71,-3.7256,-3.7644,-3.7269,-3.7088,-3.7363,-3.7797,-3.8356,-3.9054,-3.998,-4.045,-4.0326,-4.0318,-4.0266,-4.0198,-3.8875,-3.8144,-3.8117,-3.672,-3.597,-3.5897,-3.5409,-3.4977,-3.4612,-3.4612,-3.4612,-3.4612,-3.4612,-3.4612,-3.4612,-3.4612,-3.4612,-3.4612,-3.4612,-3.4612,-3.4612,-3.4612,-3.4095,-3.3333,-3.2949,-3.2799,-3.2593,-3.1306,-3.0893,-3.0743,-2.9945,-2.9701,-2.9701,-2.9701,-2.9701,-2.9701,-2.9701,-2.9701,-2.9701,-2.9701,-2.9701,-2.9664,-2.9579,-2.9491,-2.9363,-2.9272,-2.9123,-2.8996,-2.891,-2.8815,-2.8761,-2.8761,-2.8857,-2.8943,-2.9012,-2.9123,-2.9115,-2.8941,-2.8929,-2.8637,-2.7952,-2.7132,-2.5822,-2.3871,-2.3349,-2.3132,-2.3205,-2.3144,-2.3126,-2.3205,-2.3144,-2.3107,-2.3107,-2.3107,-2.3057,-2.297,-2.297,-2.2902,-2.2358,-2.2989,-2.372,-2.5474,0.0,-2.8495,-2.8414,-2.8259,-2.822,0.0,0.0,0.0,0.0,-3.0438,-3.2306,-3.4439,-3.5352,-3.6028,-3.6692,-3.6809,-3.6809,-3.6809,-3.6809,-3.689,-3.7144,-3.7824,-3.8615,-3.9528,-4.0256,-4.0623,-4.053,-4.0523,-4.0475,-4.0362,-3.8696,-3.779,-3.7763,-3.5998,-3.5286,-3.5657,-3.4967,-3.4634,-3.4612,-3.4612,-3.4612,-3.4612,-3.4612,-3.4612,-3.4612,-3.4612,-3.4612,-3.4612,-3.4612,-3.4612,-3.4594,-3.4395,-3.3926,-3.3333,-3.2939,-3.2808,-3.2564,-3.11,-3.0612,-3.0499,-2.9889,-2.9701,-2.9701,-2.9701,-2.9701,-2.9701,-2.9701,-2.9701,-2.9701,-2.9701,-2.9701,-2.9701,-2.9701,-2.9569,-2.9463,-2.9463,-2.9322,-2.9115,-2.8973,-2.8922,-2.8905,-2.8905,-2.9012,-2.9158,-2.9304,-2.9511,-2.9531,-2.9272,-2.9233,-2.8968,-2.833,-2.7707,-2.6243,-2.3629,-2.331,-2.3241,-2.3336,-2.3217,-2.3205,-2.3301,-2.318,-2.3107,-2.3107,-2.3107,-2.3107,-2.3107,-2.3107,-2.3107,-2.4666,-2.4788,-2.461,-2.6362,-2.6339,-2.6475,-2.8787,-2.8686,0.0,-3.0185,0.0,0.0,-3.1561,-3.3099,-3.4556,-3.5542,-3.5756,-3.5814,-3.5872,-3.5892,-3.5892,-3.5892,-3.5892,-3.6513,-3.8121,-3.8358,-3.9053,-4.0655,-4.083,-4.0869,-4.0864,-4.0864,-4.0854,-4.0856,-3.9036,-3.8035,-3.7983,-3.6063,-3.5063,-3.4964,-3.4849,-3.4727,-3.4612,-3.4612,-3.4612,-3.4612,-3.4612,-3.4612,-3.4612,-3.4612,-3.4612,-3.4612,-3.4612,-3.4612,-3.4508,-3.3757,-3.3446,-3.3183,-3.1625,-3.1081,-3.0931,-3.0077,-2.9795,-2.9777,-2.972,-2.9701,-2.9701,-2.9701,-2.9701,-2.9701,-2.9701,-2.9701,-2.9701,-2.9701,-2.9701,-2.9701,-2.9701,-2.9701,-2.9692,-2.9692,-2.9521,-2.9322,-2.9115,-2.8984,-2.8905,-2.8905,-2.9012,-2.9169,-2.9363,-2.956,-2.9673,-2.9655,-2.9655,-2.9164,-2.7959,-2.7622,-2.6663,-2.4712,-2.3886,-2.3482,-2.3494,-2.3348,-2.3289,-2.3301,-2.318,-2.3107,-2.3107,-2.3107,-2.3107,-2.3107,-2.3107,-2.3107,-2.4244,-2.4549,-2.4724,-2.6456,-2.7039,0.0,0.0,-2.9988,-3.0862,-3.2069,-3.2322,-3.2574,-3.339,-3.407,-3.4789,-3.5659,-3.5795,-3.5795,-3.5795,-3.5795,-3.5795,-3.5795,-3.628,-3.7081,-3.8289,-3.8887,-3.9684,-4.081,-4.0907,-4.0674,-4.0189,-4.0635,-4.067,-4.017,-3.8409,-3.7477,-3.7448,-3.5583,-3.4597,-3.4464,-3.4723,-3.4831,-3.4791,-3.4739,-3.4708,-3.4727,-3.4634,-3.4612,-3.4612,-3.4612,-3.4612,-3.4612,-3.4612,-3.4282,-3.3888,-3.4076,-3.3832,-3.3314,-3.2676,-3.2095,-3.1523,-3.0715,-3.0114,-2.9701,-2.9701,-2.9701,-2.9701,-2.9701,-2.9701,-2.9701,-2.9701,-2.9701,-2.9701,-2.9701,-2.9701,-2.9701,-2.9701,-2.9701,-2.9701,-2.9701,-2.9636,-2.9531,-2.9322,-2.9238,-2.9214,-2.9214,-2.9259,-2.9363,-2.956,-2.9645,-2.9701,-2.9701,-2.9598,-2.9331,-2.8833,-2.8194,-2.7237,-2.5895,-2.4828,-2.4063,-2.3641,-2.3418,-2.3336,-2.3418,-2.3217,-2.3107,-2.3107,-2.3107,-2.3107,-2.3107,-2.3107,-2.3107,-2.3983,-2.4294,-2.4724,-2.6456,0.0,0.0,-2.9968,-3.1133,-3.2396,-3.3798,-3.4089,-3.4264,-3.4808,-3.4905,-3.5119,-3.5698,-3.5795,-3.5795,-3.5795,-3.6047,-3.6203,-3.6203,-3.6984,-3.7858,-3.8732,-3.9353,-4.0033,-4.0849,-4.0402,-3.9878,-3.9315,-3.9295,-3.9043,-3.8494,-3.7042,-3.6284,-3.6284,-3.5025,-3.4341,-3.426,-3.4821,-3.5043,-3.4954,-3.4879,-3.482,-3.482,-3.473,-3.4689,-3.4689,-3.4689,-3.4689,-3.4689,-3.4689,-3.4348,-3.3903,-3.4471,-3.4308,-3.37,-3.3216,-3.2623,-3.1936,-3.0865,-3.0152,-2.9701,-2.9701,-2.9701,-2.9701,-2.9701,-2.9701,-2.9701,-2.9701,-2.9701,-2.9701,-2.9701,-2.9701,-2.9701,-2.9701,-2.9701,-2.9701,-2.9701,-2.9701,-2.9636,-2.9433,-2.9402,-2.9402,-2.9402,-2.9402,-2.9463,-2.9664,-2.9701,-2.9701,-2.9701,-2.9588,-2.9463,-2.9412,-2.8808,-2.7885,-2.658,-2.5724,-2.4807,-2.3761,-2.3544,-2.3464,-2.3573,-2.3336,-2.3229,-2.3229,-2.3229,-2.3229,-2.3229,-2.3229,-2.3229,-2.4294,-2.4313,-2.4724,0.0,0.0,0.0,-3.16,-3.2007,-3.2745,-3.527,-3.5795,-3.5795,-3.5795,-3.5814,-3.5814,-3.5795,-3.5814,-3.5814,-3.5814,-3.6556,-3.712,-3.712,-3.7877,-3.8751,-3.9621,-3.9699,-4.0033,-4.083,-3.9339,-3.8387,-3.8387,-3.6751,-3.5814,-3.5795,-3.4944,-3.4501,-3.4482,-3.4405,-3.4381,-3.44,-3.5137,-3.5352,-3.5105,-3.4963,-3.4898,-3.4889,-3.4889,-3.4908,-3.4908,-3.4908,-3.4908,-3.4908,-3.4908,-3.4869,-3.4809,-3.487,-3.4781,-3.4379,-3.2854,-3.2222,-3.1842,-3.0237,-2.9711,-2.9711,-2.9711,-2.9711,-2.9711,-2.9711,-2.9711,-2.9701,-2.9701,-2.9701,-2.9701,-2.9701,-2.9701,-2.9701,-2.9701,-2.9701,-2.9701,-2.9701,-2.9701,-2.9636,-2.9433,-2.9402,-2.9402,-2.9402,-2.9402,-2.9463,-2.9664,-2.9701,-2.9701,-2.9701,-2.9701,-2.9626,-2.9423,-2.9402,-2.8584,-2.6646,-2.6515,-2.5698,-2.386,-2.3736,-2.37,-2.37,-2.3573,-2.3505,-2.3505,-2.3505,-2.3505,-2.3505,-2.3505,-2.3505,-2.4294,-2.4744,0.0,-2.6614,0.0,0.0,0.0,-3.2905,0.0,0.0,-3.5795,-3.5795,-3.5795,-3.63,-3.6518,-3.5892,-3.6828,-3.7411,-3.6809,-3.745,-3.8018,-3.8018,-3.8771,-3.9412,-3.966,-3.9699,-3.9796,-4.0033,-3.9023,-3.7858,-3.6634,-3.7236,-3.6789,-3.4944,-3.4633,-3.4229,-3.3662,-3.3037,-3.3028,-3.3649,-3.4366,-3.4959,-3.5385,-3.528,-3.5208,-3.5111,-3.507,-3.4982,-3.4908,-3.4908,-3.4908,-3.4908,-3.4908,-3.4889,-3.487,-3.4898,-3.4851,-3.4745,-3.4292,-3.3327,-3.2222,-3.1758,-3.0804,-2.9841,-2.9841,-2.9816,-2.9764,-2.9764,-2.9738,-2.9701,-2.9701,-2.9701,-2.9701,-2.9701,-2.9701,-2.9701,-2.9701,-2.9701,-2.9701,-2.9701,-2.9701,-2.9673,-2.9626,-2.9617,-2.9617,-2.9617,-2.9617,-2.9636,-2.9683,-2.9701,-2.9701,-2.9701,-2.9701,-2.9683,-2.9617,-2.9617,-2.9024,-2.7632,-2.7013,-2.5841,-2.3889,-2.3736,-2.37,-2.37,-2.3573,-2.3505,-2.3505,-2.3505,-2.3505,-2.3505,-2.3505,-2.3505,-2.4294,-2.519,0.0,-2.7602,-2.9564,-3.1626,-3.3199,0.0,-3.5255,-3.6148,-3.6047,-3.5911,-3.6241,-3.6751,-3.6925,-3.6397,-3.7489,-3.8212,-3.7683,-3.8363,-3.879,-3.8445,-3.9179,-3.9567,-3.9217,-3.9179,-3.9043,-3.8693,-3.7547,-3.6246,-3.4882,-3.5158,-3.4618,-3.3044,-3.2986,-3.2753,-3.2264,-3.2085,-3.2435,-3.3313,-3.4063,-3.4856,-3.5618,-3.5495,-3.5405,-3.5328,-3.5251,-3.5182,-3.5079,-3.5046,-3.5028,-3.5028,-3.5028,-3.5018,-3.5035,-3.507,-3.4842,-3.4463,-3.4208,-3.3168,-3.1906,-3.1583,-3.0772,-2.9897,-2.9897,-2.9874,-2.9841,-2.9841,-2.9816,-2.9773,-2.9773,-2.9765,-2.9729,-2.9711,-2.9701,-2.9701,-2.9701,-2.9701,-2.9701,-2.9701,-2.9701,-2.9701,-2.9701,-2.9701,-2.9701,-2.9701,-2.9701,-2.9701,-2.9701,-2.9701,-2.9701,-2.9701,-2.9701,-2.9701,-2.9701,-2.9701,-2.9232,-2.8149,-2.7322,-2.6169,-2.4531,-2.3997,-2.3747,-2.3747,-2.366,-2.3616,-2.3616,-2.3616,-2.3616,-2.3616,-2.3616,-2.3616,-2.4294,-2.5562,-2.7317,-2.9085,-3.0892,0.0,-3.5334,-3.5857,-3.6021,-3.6837,-3.637,-3.606,-3.6837,-3.7046,-3.7085,-3.7007,-3.7784,-3.8367,-3.8289,-3.9023,-3.9295,-3.8484,-3.9101,-3.9276,-3.8484,-3.827,-3.7819,-3.7042,-3.5371,-3.4031,-3.3215,-3.1739,-3.0869,-3.0713,-3.0771,-3.0771,-3.0694,-3.1564,-3.2435,-3.3313,-3.4109,-3.4964,-3.5791,-3.5618,-3.5519,-3.5507,-3.5437,-3.5412,-3.5398,-3.5273,-3.5226,-3.5226,-3.5226,-3.5211,-3.5247,-3.536,-3.4784,-3.3834,-3.3231,-3.2281,-3.1218,-3.0481,-3.0114,-2.9937,-2.9937,-2.9921,-2.9924,-2.9924,-2.9905,-2.9897,-2.9897,-2.9857,-2.9799,-2.9729,-2.972,-2.9701,-2.9701,-2.9701,-2.9701,-2.9701,-2.9701,-2.9701,-2.9701,-2.9701,-2.9701,-2.9701,-2.9701,-2.9701,-2.9701,-2.9701,-2.9701,-2.9701,-2.9701,-2.9701,-2.9701,-2.9701,-2.9289,-2.8361,-2.7559,-2.6656,-2.5643,-2.4476,-2.3837,-2.3827,-2.3827,-2.3816,-2.3806,-2.3806,-2.3806,-2.3806,-2.3806,-2.3806,-2.4294,-2.556,0.0,-2.9825,-3.2255,-3.4372,-3.5627,-3.5894,-3.5921,-3.6128,-3.6009,-3.594,-3.6128,-3.6662,-3.6895,-3.6257,-3.7417,-3.8154,-3.7469,-3.813,-3.862,-3.8425,-3.8581,-3.862,-3.8425,-3.7159,-3.628,-3.6086,-3.4517,-3.3177,-3.2338,-3.2574,-3.2108,-3.0733,-3.137,-3.139,-3.0713,-3.1564,-3.2435,-3.3313,-3.4109,-3.4964,-3.5795,-3.5765,-3.5699,-3.5657,-3.5526,-3.545,-3.5405,-3.5376,-3.5369,-3.5369,-3.5369,-3.5395,-3.5445,-3.5477,-3.4912,-3.4109,-3.3974,-3.2915,-3.1595,-3.1403,-3.0842,-3.0209,-3.0209,-3.0133,-3.0065,-3.0065,-2.9972,-2.9897,-2.9897,-2.988,-2.9864,-2.9866,-2.9773,-2.9701,-2.9701,-2.9701,-2.9701,-2.9701,-2.9701,-2.9701,-2.9701,-2.9701,-2.9701,-2.9701,-2.9701,-2.9701,-2.9701,-2.9701,-2.9701,-2.9701,-2.9701,-2.9701,-2.9701,-2.9701,-2.9542,-2.9162,-2.8389,-2.7483,-2.6473,-2.4993,-2.4143,-2.4026,-2.4044,-2.3966,-2.3806,-2.3806,-2.3806,-2.3806,-2.3806,-2.3806,-2.4197,0.0,0.0,-3.1209,0.0,-3.5344,-3.5792,-3.5912,-3.5942,-3.5903,-3.5897,-3.6031,-3.6445,-3.6869,-3.7005,-3.6598,-3.7615,-3.828,-3.7794,-3.8101,-3.8252,-3.7823,-3.778,-3.7605,-3.7197,-3.5954,-3.5022,-3.4629,-3.3406,-3.2302,-3.1428,-3.1817,-3.1646,-3.0733,-3.1545,-3.1584,-3.0713,-3.1972,-3.2846,-3.3313,-3.372,-3.4167,-3.4629,-3.5426,-3.5778,-3.5737,-3.5643,-3.5575,-3.554,-3.547,-3.545,-3.545,-3.545,-3.5515,-3.5604,-3.5604,-3.4814,-3.3776,-3.3776,-3.2633,-3.1168,-3.1168,-3.078,-3.0304,-3.0304,-3.0234,-3.0154,-3.0154,-3.0098,-3.0042,-3.0042,-3.0011,-3.0007,-3.0007,-2.9868,-2.9756,-2.9756,-2.9719,-2.9701,-2.9701,-2.9701,-2.9701,-2.9701,-2.9701,-2.9701,-2.9701,-2.9701,-2.9701,-2.9701,-2.9701,-2.9701,-2.9701,-2.9701,-2.9701,-2.9701,-2.9701,-2.9655,-2.955,-2.839,-2.7484,-2.6963,-2.5353,-2.4401,-2.4209,-2.42,-2.4105,-2.3937,-2.3937,-2.3896,-2.3806,-2.3806,-2.3806,-2.3854,0.0,-2.9116,-3.2291,-3.4401,0.0,-3.5873,-3.5962,-3.5974,-3.593,-3.5923,-3.613,-3.685,-3.6985,-3.6983,-3.698,-3.7581,-3.8035,-3.7975,-3.7962,-3.7702,-3.6985,-3.6763,-3.6398,-3.5659,-3.4683,-3.3792,-3.3137,-3.2418,-3.1692,-3.0966,-3.1063,-3.1082,-3.0923,-3.1619,-3.1584,-3.0713,-3.2283,-3.3079,-3.3079,-3.3235,-3.3293,-3.3351,-3.4746,-3.5445,-3.5581,-3.5679,-3.5698,-3.5683,-3.5574,-3.5525,-3.5525,-3.5525,-3.5615,-3.5708,-3.5553,-3.4563,-3.3274,-3.3138,-3.2,-3.0617,-3.0617,-3.0506,-3.0352,-3.0315,-3.026,-3.0213,-3.0192,-3.0211,-3.0211,-3.0211,-3.0161,-3.0117,-3.0117,-2.9975,-2.9851,-2.9815,-2.9755,-2.9719,-2.9729,-2.9719,-2.9701,-2.9711,-2.9701,-2.9701,-2.9701,-2.9701,-2.9701,-2.9701,-2.9701,-2.9701,-2.9701,-2.9701,-2.9701,-2.9701,-2.9701,-2.9645,-2.9495,-2.8181,-2.7279,-2.6998,-2.5665,-2.4754,-2.4375,-2.4321,-2.4219,-2.4094,-2.4074,-2.3947,-2.3806,-2.3806,-2.3806,-2.3017,0.0,-2.9787,0.0,-3.3578,-3.5054,0.0,-3.5987,-3.5995,-3.5994,-3.5996,-3.5995,-3.6054,-3.6073,-3.6072,-3.6063,-3.6179,-3.6246,-3.6245,-3.6231,-3.6198,-3.6064,-3.5385,-3.4897,-3.4762,-3.3338,-3.2354,-3.2194,-3.2074,-3.1954,-3.1836,-3.2536,-3.2613,-3.1852,-3.1949,-3.1584,-3.0713,-3.1681,-3.2163,-3.2182,-3.2943,-3.3293,-3.3313,-3.3526,-3.4012,-3.4711,-3.5456,-3.5747,-3.5707,-3.5678,-3.5672,-3.5672,-3.5672,-3.5718,-3.5704,-3.4932,-3.4082,-3.3196,-3.2435,-3.1518,-3.0683,-3.0683,-3.0633,-3.054,-3.0432,-3.0344,-3.0267,-3.0213,-3.0211,-3.0211,-3.0211,-3.0185,-3.0197,-3.0197,-3.0125,-3.0022,-2.9916,-2.9832,-2.9808,-2.9866,-2.9842,-2.9764,-2.9701,-2.9701,-2.9701,-2.9701,-2.9701,-2.9701,-2.9701,-2.9701,-2.9701,-2.9701,-2.9701,-2.9701,-2.9701,-2.9701,-2.9382,-2.8622,-2.836,-2.7609,-2.6218,-2.5963,-2.545,-2.4653,-2.4419,-2.4219,-2.4094,-2.3927,-2.3827,-2.3806,-2.3806,-2.3806,-2.4002,-2.6587,-2.9188,0.0,-3.3057,-3.4803,-3.5189,-3.5625,-3.5949,-3.5949,-3.5935,-3.5926,-3.5905,-3.5907,-3.5908,-3.5894,-3.5936,-3.5937,-3.5905,-3.5893,-3.5717,-3.5235,-3.4822,-3.4419,-3.391,-3.2752,-3.2029,-3.1999,-3.1558,-3.1473,-3.1965,-3.1905,-3.1895,-3.2007,-3.2007,-3.1584,-3.0713,-3.205,-3.2474,-3.2007,-3.2396,-3.2322,-3.1875,-3.2846,-3.374,-3.4521,-3.4905,-3.5336,-3.5751,-3.5751,-3.546,-3.5038,-3.5038,-3.4764,-3.4342,-3.3973,-3.3293,-3.2512,-3.2124,-3.1428,-3.0694,-3.0694,-3.0653,-3.0595,-3.052,-3.04,-3.0298,-3.0254,-3.0233,-3.0211,-3.0211,-3.0211,-3.0211,-3.0211,-3.0183,-3.0128,-3.0072,-2.9956,-2.9857,-2.9841,-2.9815,-2.9773,-2.9701,-2.9701,-2.9701,-2.9701,-2.9701,-2.9701,-2.9701,-2.9701,-2.9701,-2.9701,-2.9701,-2.9701,-2.9701,-2.9701,-2.9532,-2.9157,-2.8247,-2.7411,-2.6706,-2.5767,-2.5083,-2.47,-2.4569,-2.4428,-2.4219,-2.4115,-2.3979,-2.3806,-2.3806,-2.3806,0.0,0.0,-2.7655,-2.9384,-3.1776,-3.3767,-3.3984,-3.4855,-3.5609,-3.5609,-3.5585,-3.5568,-3.5574,-3.5754,-3.5894,-3.5901,-3.5934,-3.5966,-3.5937,-3.572,-3.5331,-3.4684,-3.4218,-3.3711,-3.3063,-3.2206,-3.1795,-3.2018,-3.1633,-3.1668,-3.2294,-3.1926,-3.1787,-3.2016,-3.201,-3.1579,-3.0707,-3.1999,-3.2302,-3.1677,-3.1677,-3.1331,-3.0733,-3.205,-3.3079,-3.3895,-3.4556,-3.4964,-3.5173,-3.5387,-3.4964,-3.421,-3.421,-3.3837,-3.3274,-3.306,-3.2551,-3.1969,-3.1755,-3.1234,-3.0694,-3.0694,-3.0665,-3.0617,-3.0563,-3.0432,-3.0315,-3.0286,-3.0234,-3.0211,-3.0211,-3.0211,-3.0211,-3.0211,-3.0211,-3.0204,-3.0183,-3.0076,-2.9948,-2.9841,-2.9859,-2.9859,-2.9799,-2.9782,-2.979,-2.9825,-2.9782,-2.9756,-2.9756,-2.9719,-2.9701,-2.9701,-2.9701,-2.9701,-2.9701,-2.9701,-2.9608,-2.9382,-2.8199,-2.7419,-2.7238,-2.5828,-2.5065,-2.5069,-2.4862,-2.4626,-2.4384,-2.433,-2.421,-2.3951,-2.3909,-2.3878,0.0,-2.3261,0.0,-2.6679,-2.9062,-3.1228,-3.2048,-3.3541,-3.4752,-3.4752,-3.471,-3.4664,-3.4667,-3.5349,-3.5904,-3.5898,-3.5899,-3.5923,-3.5988,-3.524,-3.4647,-3.4609,-3.3206,-3.2214,-3.2165,-3.137,-3.1208,-3.2027,-3.2812,-3.3253,-3.323,-3.3975,-3.3699,-3.214,-3.2038,-3.1575,-3.0719,-3.0785,-3.081,-3.0771,-3.0771,-3.0733,-3.0694,-3.0791,-3.1312,-3.226,-3.4688,-3.4862,-3.3487,-3.4245,-3.4089,-3.3351,-3.3351,-3.3332,-3.3196,-3.2376,-3.2046,-3.1871,-3.104,-3.0733,-3.0694,-3.0694,-3.069,-3.0668,-3.0477,-3.0407,-3.0365,-3.0234,-3.0192,-3.0211,-3.0211,-3.0211,-3.0211,-3.0211,-3.0211,-3.019,-3.0117,-3.0154,-3.0128,-2.9921,-3.0007,-3.0076,-3.0079,-3.0038,-3.0041,-3.0148,-3.0015,-2.988,-2.988,-2.9773,-2.9701,-2.9701,-2.9701,-2.9701,-2.9701,-2.9701,-2.9345,-2.8528,-2.8388,-2.8019,-2.7328,-2.648,-2.6065,-2.6126,-2.5312,-2.4797,-2.4583,-2.4468,-2.4381,-2.4363,-2.4164,-2.4086,0.0,0.0,0.0,-2.5834,-2.8069,-3.0182,-3.1076,-3.2601,-3.3867,-3.3867,-3.3855,-3.3826,-3.3826,-3.4508,-3.5076,-3.5071,-3.5061,-3.5064,-3.511,-3.4369,-3.3626,-3.3054,-3.2469,-3.1872,-3.1326,-3.0981,-3.0929,-3.1231,-3.1556,-3.1953,-3.2503,-3.231,-3.2132,-3.2107,-3.1531,-3.1078,-3.0767,-3.0759,-3.0745,-3.0704,-3.0704,-3.0695,-3.0713,-3.1273,-3.1409,-3.1273,-3.3313,-3.4148,-3.4089,-3.4385,-3.4031,-3.3235,-3.2687,-3.2128,-3.1584,-3.1273,-3.1176,-3.1118,-3.081,-3.0694,-3.0694,-3.0694,-3.0694,-3.0687,-3.0603,-3.0557,-3.053,-3.0471,-3.0392,-3.0327,-3.0327,-3.0304,-3.0254,-3.0206,-3.0211,-3.0185,-3.0176,-3.0171,-3.0176,-3.0053,-3.0101,-3.0159,-3.0109,-3.0114,-3.0131,-3.019,-3.0142,-3.0085,-3.0085,-3.0011,-2.9918,-2.9832,-2.9823,-2.9799,-2.972,-2.9701,-2.957,-2.9251,-2.8716,-2.8275,-2.8009,-2.7266,-2.6635,-2.6155,-2.5908,-2.543,-2.4659,-2.462,-2.4556,-2.4456,-2.4388,-2.432,-2.1463,0.0,0.0,0.0,-2.6752,-2.8528,-2.9663,-3.1289,-3.2538,-3.2538,-3.2754,-3.2969,-3.2969,-3.3397,-3.3865,-3.4157,-3.4196,-3.4196,-3.4196,-3.3495,-3.2754,-3.217,-3.1839,-3.1447,-3.086,-3.0801,-3.093,-3.1207,-3.1247,-3.1497,-3.207,-3.1556,-3.1379,-3.1653,-3.1105,-3.0791,-3.0801,-3.0801,-3.0772,-3.0737,-3.0706,-3.0691,-3.073,-3.1296,-3.1254,-3.0771,-3.2225,-3.3002,-3.3258,-3.3546,-3.3177,-3.2361,-3.1797,-3.1215,-3.0694,-3.0694,-3.0694,-3.0694,-3.0694,-3.0694,-3.0694,-3.0694,-3.0694,-3.071,-3.0668,-3.0633,-3.0595,-3.0549,-3.0467,-3.0402,-3.0402,-3.0365,-3.0321,-3.0273,-3.0247,-3.0227,-3.0227,-3.0213,-3.0185,-3.0178,-3.0195,-3.0248,-3.0267,-3.0297,-3.0319,-3.0353,-3.0302,-3.0273,-3.0273,-3.019,-3.0102,-3.0004,-2.9934,-2.9864,-2.9773,-2.9719,-2.9701,-2.9701,-2.9157,-2.8847,-2.8874,-2.8158,-2.7392,-2.6582,-2.6407,-2.5855,-2.4861,-2.4851,-2.4782,-2.4708,-2.4636,-2.4524,0.0,0.0,0.0,-2.4144,-2.4997,-2.6069,-2.7743,-2.9457,-3.0704,-3.0743,-3.1427,-3.2034,-3.2053,-3.2053,-3.2345,-3.3183,-3.3339,-3.3358,-3.3358,-3.2618,-3.2053,-3.2053,-3.131,-3.0801,-3.0801,-3.0801,-3.1154,-3.1997,-3.2067,-3.2062,-3.2061,-3.2069,-3.1671,-3.084,-3.0799,-3.0808,-3.0804,-3.0804,-3.0801,-3.0801,-3.0737,-3.0703,-3.0703,-3.0691,-3.0697,-3.0756,-3.1603,-3.1487,-3.0771,-3.1642,-3.1506,-3.0733,-3.0713,-3.0694,-3.0694,-3.0694,-3.0694,-3.0694,-3.0694,-3.0694,-3.0694,-3.0694,-3.0694,-3.0683,-3.0621,-3.0604,-3.0586,-3.0452,-3.0413,-3.0413,-3.0407,-3.0407,-3.0407,-3.0407,-3.0361,-3.0291,-3.0291,-3.0254,-3.0226,-3.0292,-3.0291,-3.0375,-3.0573,-3.0558,-3.0548,-3.0673,-3.053,-3.0413,-3.0413,-3.0288,-3.0209,-3.0202,-3.0025,-2.9904,-2.9905,-2.9782,-2.972,-2.9711,-2.9692,-2.9729,-2.9808,-2.9109,-2.8355,-2.7523,-2.6804,-2.6026,-2.5191,-2.5139,-2.5101,-2.5101,-2.4912,-2.4738,-2.1685,0.0,0.0,0.0,0.0,0.0,-2.5991,-2.7217,-2.8346,-2.9593,-3.0041,-3.0414,-3.1035,-3.1152,-3.123,-3.1483,-3.2051,-3.2462,-3.2462,-3.17,-3.1152,-3.1152,-3.0957,-3.0801,-3.0801,-3.0801,-3.0891,-3.1131,-3.116,-3.1156,-3.1152,-3.1168,-3.1059,-3.0815,-3.0795,-3.0794,-3.0807,-3.0807,-3.0803,-3.0808,-3.0784,-3.0772,-3.0769,-3.0764,-3.0778,-3.0778,-3.0989,-3.0921,-3.0766,-3.163,-3.1852,-3.1584,-3.0943,-3.0694,-3.0694,-3.0694,-3.0694,-3.0694,-3.0694,-3.0694,-3.0694,-3.0694,-3.0694,-3.071,-3.0676,-3.0668,-3.0665,-3.063,-3.0622,-3.0614,-3.0563,-3.0549,-3.0516,-3.0418,-3.0386,-3.037,-3.037,-3.0367,-3.0339,-3.0316,-3.0414,-3.053,-3.0591,-3.0614,-3.0665,-3.0683,-3.0645,-3.0617,-3.0617,-3.0539,-3.0457,-3.0353,-3.0294,-3.0196,-3.0053,-3.0011,-2.9948,-2.9849,-2.9799,-2.9808,-2.9874,-2.9672,-2.8924,-2.7523,-2.7395,-2.6632,-2.5191,-2.5174,-2.5162,-2.5175,-2.4961,-2.4861,0.0,0.0,0.0,-2.4084,0.0,0.0,-2.5738,-2.6303,-2.6788,-2.8132,-2.8697,-2.9106,-2.9613,-2.973,-2.9827,-3.0197,-3.0687,-3.1135,-3.1505,-3.1113,-3.0801,-3.0801,-3.0801,-3.0801,-3.0801,-3.0801,-3.0791,-3.0792,-3.0794,-3.0794,-3.0798,-3.08,-3.0796,-3.0791,-3.0805,-3.08,-3.08,-3.08,-3.0796,-3.0809,-3.0792,-3.0803,-3.0798,-3.0804,-3.0798,-3.0799,-3.0764,-3.0731,-3.0739,-3.1278,-3.1472,-3.1409,-3.0904,-3.0694,-3.0694,-3.0694,-3.0694,-3.0694,-3.0694,-3.0694,-3.0694,-3.0694,-3.0694,-3.0694,-3.0694,-3.0694,-3.0694,-3.0694,-3.0694,-3.0687,-3.0649,-3.0641,-3.061,-3.0533,-3.0501,-3.0477,-3.0477,-3.0477,-3.0462,-3.043,-3.0521,-3.0608,-3.0637,-3.0672,-3.0694,-3.0694,-3.0703,-3.0695,-3.0695,-3.0665,-3.0614,-3.053,-3.0448,-3.0351,-3.0241,-3.0176,-3.0107,-3.0034,-2.9961,-2.9948,-2.9977,-2.998,-2.9198,-2.7523,-2.7624,-2.688,-2.5191,-2.5191,-2.5191,-2.521,-2.5069,-2.5032,0.0,0.0,0.0,-2.5387,-2.4452,0.0,-2.6128,-2.6147,-2.5933,-2.6729,-2.7528,-2.8093,-2.8171,-2.8191,-2.8444,-2.9223,-2.9438,-2.9808,-3.0684,-3.0801,-3.0801,-3.0801,-3.0801,-3.0801,-3.0801,-3.0801,-3.0801,-3.0806,-3.0791,-3.0808,-3.0795,-3.0791,-3.08,-3.08,-3.0793,-3.0806,-3.0804,-3.0804,-3.0803,-3.08,-3.0808,-3.0804,-3.0806,-3.0796,-3.0807,-3.0795,-3.0793,-3.0777,-3.0714,-3.0774,-3.077,-3.0694,-3.06,-3.062,-3.0694,-3.0597,-3.0616,-3.0694,-3.0694,-3.0694,-3.0694,-3.0694,-3.0694,-3.0694,-3.0694,-3.0694,-3.0694,-3.0694,-3.0694,-3.0694,-3.0694,-3.0694,-3.0694,-3.0694,-3.0653,-3.0613,-3.0613,-3.0613,-3.0613,-3.0613,-3.0613,-3.0629,-3.0683,-3.0694,-3.0694,-3.0694,-3.0694,-3.0694,-3.0694,-3.0694,-3.0706,-3.0704,-3.0542,-3.0438,-3.0423,-3.0319,-3.0247,-3.0216,-3.0148,-3.0104,-3.013,-3.0106,-2.9295,-2.7556,-2.7459,-2.6695,-2.5191,-2.5191,-2.5191,-2.5191,-2.5191,-2.5191,-2.4372,-2.4771,-2.5329,-2.4783,-2.4939,0.0,-2.4939,-2.5309,-2.5933,-2.6729,-2.7041,-2.7372,-2.8074,-2.8191,-2.8269,-2.8424,-2.9048,-2.9808,-3.0684,-3.0801,-3.0801,-3.0801,-3.0801,-3.0801,-3.0801,-3.0801,-3.0795,-3.0803,-3.0801,-3.0791,-3.0793,-3.0795,-3.0798,-3.0799,-3.08,-3.0801,-3.0798,-3.0797,-3.0793,-3.08,-3.0794,-3.0798,-3.0796,-3.0801,-3.08,-3.0793,-3.0806,-3.0791,-3.0784,-3.0789,-3.077,-3.0639,-2.9982,-3.0134,-3.0616,-2.9913,-3.0108,-3.0694,-3.0694,-3.0694,-3.0694,-3.0694,-3.0694,-3.0694,-3.0694,-3.0694,-3.0694,-3.0694,-3.0694,-3.0694,-3.0694,-3.0694,-3.0694,-3.0694,-3.0683,-3.0676,-3.0676,-3.0676,-3.0676,-3.0676,-3.0676,-3.068,-3.069,-3.0694,-3.0694,-3.0694,-3.0694,-3.0694,-3.0694,-3.0694,-3.069,-3.0706,-3.0653,-3.0622,-3.0563,-3.054,-3.0482,-3.0375,-3.0254,-3.0189,-3.0267,-3.0164,-2.9325,-2.7695,-2.6364,-2.5535,-2.5191,-2.5191,-2.5191,-2.5191,-2.5191,-2.5191,-2.5299,-2.5371,-2.5699,-2.566,-2.5348,0.0,0.0,-2.5348,-2.529,-2.6128,-2.5952,-2.5913,-2.679,-2.6595,-2.6576,-2.7411,-2.7918,-2.8502,-2.9379,-2.9886,-3.0158,-3.0158,-3.0158,-3.0158,-3.0158,-3.0548,-3.0808,-3.0808,-3.0803,-3.0791,-3.0791,-3.0801,-3.0807,-3.0807,-3.0794,-3.0798,-3.0801,-3.0801,-3.0801,-3.0799,-3.08,-3.0798,-3.0801,-3.0794,-3.0795,-3.0801,-3.0798,-3.079,-3.0796,-3.0803,-3.0772,-3.0664,-2.9822,-2.9741,-3.0,-2.9121,-2.9327,-3.0056,-3.0056,-3.0338,-3.0694,-3.0694,-3.0694,-3.0694,-3.0694,-3.0694,-3.0694,-3.0694,-3.0694,-3.0694,-3.0694,-3.0694,-3.0694,-3.0694,-3.0694,-3.0694,-3.0694,-3.0694,-3.0694,-3.0694,-3.0694,-3.0694,-3.0694,-3.0694,-3.0694,-3.0694,-3.0694,-3.0694,-3.0694,-3.0694,-3.0694,-3.0694,-3.0694,-3.0683,-3.0649,-3.0649,-3.0614,-3.0542,-3.0467,-3.0414,-3.0441,-3.0279,-2.9403,-2.774,-2.6045,-2.5191,-2.5191,-2.5191,-2.5191,-2.5191,-2.5191,-2.5191,-2.6465,-2.6422,-2.6712,-2.6866,-2.6264,-2.5816,0.0,0.0,0.0,-2.5582,-2.5134,-2.4861,-2.5563,-2.5114,-2.5095,-2.6459,-2.6807,-2.7158,-2.784,-2.8561,-2.9067,-2.9223,-2.9243,-2.9243,-2.9243,-2.973,-3.0119,-3.0295,-3.0139,-3.0119,-3.0295,-3.0461,-3.0551,-3.0551,-3.0705,-3.0791,-3.0794,-3.0794,-3.0795,-3.0797,-3.0803,-3.0801,-3.0793,-3.0796,-3.0798,-3.0794,-3.0801,-3.0798,-3.0792,-3.0805,-3.0708,-3.0503,-2.9778,-2.9598,-2.9632,-2.8773,-2.8973,-2.9677,-2.9677,-3.013,-3.0714,-3.0714,-3.0707,-3.0701,-3.0694,-3.0694,-3.0694,-3.0701,-3.0704,-3.0704,-3.0704,-3.0704,-3.0701,-3.0694,-3.0694,-3.0694,-3.0694,-3.0694,-3.0694,-3.0694,-3.0694,-3.0694,-3.0694,-3.0694,-3.0694,-3.0694,-3.0694,-3.0694,-3.0694,-3.0694,-3.0694,-3.0694,-3.0694,-3.0694,-3.0694,-3.0694,-3.0694,-3.0694,-3.0637,-3.06,-3.06,-3.01,-2.9078,-2.7497,-2.5981,-2.5191,-2.5191,-2.5191,-2.5191,-2.5191,-2.5191,-2.5191,-2.8365,-2.9037,-2.9691,-2.745,-2.8502,-2.9321,-2.6478,0.0,-2.6439,-2.5835,0.0,-2.5582,-2.5679,0.0,0.0,-2.5816,-2.6439,-2.6924,-2.7022,-2.7139,-2.747,-2.8269,-2.8346,-2.8346,-2.8346,-2.7743,-2.7665,-2.8444,-2.7782,-2.7684,-2.8444,-2.9228,-2.9659,-2.9659,-3.0403,-3.081,-3.0796,-3.0796,-3.0805,-3.0797,-3.0803,-3.0794,-3.0795,-3.0806,-3.0808,-3.0798,-3.0794,-3.08,-3.0798,-3.0807,-3.0389,-2.9723,-2.9554,-2.9963,-3.0548,-2.9676,-2.9905,-3.0641,-3.0641,-3.0716,-3.0791,-3.0791,-3.0756,-3.0691,-3.0701,-3.0694,-3.0701,-3.0707,-3.0697,-3.0697,-3.0697,-3.0697,-3.071,-3.0701,-3.0694,-3.0694,-3.0694,-3.0694,-3.0694,-3.0694,-3.0694,-3.0694,-3.0694,-3.0694,-3.0694,-3.0694,-3.0694,-3.0694,-3.0694,-3.0694,-3.0694,-3.0694,-3.0694,-3.0694,-3.0694,-3.0694,-3.0694,-3.0694,-3.0637,-3.06,-3.06,-2.8988,-2.7629,-2.6666,-2.5685,-2.5191,-2.5191,-2.5191,-2.5191,-2.5191,-2.5191,-2.5191,-2.853,-2.9091,-2.9652,-2.8054,-2.8483,-2.8775,-2.6846,-2.6303,-2.6108,-2.5777,0.0,0.0,0.0,0.0,0.0,0.0,-2.5972,-2.603,-2.5524,-2.5446,-2.5952,-2.7294,-2.745,-2.7645,-2.8152,-2.7411,-2.7255,-2.8132,-2.7392,-2.7275,-2.8152,-2.8541,-2.8989,-2.9476,-2.9847,-3.0282,-3.0806,-3.0806,-3.0792,-3.0804,-3.0792,-3.0806,-3.0806,-3.0808,-3.0791,-3.0808,-3.0796,-3.0793,-3.08,-3.0798,-3.0322,-2.9592,-2.9567,-2.915,-2.8558,-2.8189,-2.8571,-2.9281,-2.9281,-2.9955,-3.0801,-3.0801,-3.0774,-3.0764,-3.0751,-3.0767,-3.0751,-3.0762,-3.0764,-3.0764,-3.0764,-3.0764,-3.0762,-3.0751,-3.0736,-3.0701,-3.0701,-3.0707,-3.0694,-3.0694,-3.0694,-3.0694,-3.0694,-3.0694,-3.0694,-3.0694,-3.0694,-3.0694,-3.0694,-3.0694,-3.0694,-3.0694,-3.0694,-3.0694,-3.0694,-3.0694,-3.0694,-3.0694,-3.0668,-3.0405,-2.9879,-2.8592,-2.7489,-2.6578,-2.5731,-2.5317,-2.5317,-2.5285,-2.5264,-2.5258,-2.5214,-2.5191,-2.9576,-2.9907,-3.0197,-2.86,-2.8385,-2.821,-2.6866,-2.6478,-2.6244,-2.5796,-2.5563,0.0,0.0,0.0,-2.4959,-2.5601,0.0,-2.5212,-2.4803,-2.4335,-2.4588,-2.605,-2.6439,-2.6827,-2.745,-2.6517,-2.6322,-2.7431,-2.6498,-2.6342,-2.745,-2.7723,-2.8249,-2.9126,-2.9379,-2.9925,-3.0782,-3.0801,-3.0801,-3.0801,-3.0801,-3.0801,-3.0801,-3.0801,-3.0801,-3.0784,-3.0552,-3.0434,-3.0422,-3.0215,-2.9626,-2.8919,-2.9154,-2.8176,-2.6728,-2.7447,-2.8084,-2.8619,-2.8834,-2.9741,-3.08,-3.0793,-3.0791,-3.0791,-3.0804,-3.0801,-3.0801,-3.081,-3.0791,-3.0791,-3.0791,-3.0791,-3.0791,-3.0801,-3.0767,-3.0734,-3.0734,-3.071,-3.0707,-3.0707,-3.0701,-3.0697,-3.0704,-3.0701,-3.0694,-3.0694,-3.0694,-3.0694,-3.0694,-3.0694,-3.0694,-3.0694,-3.0694,-3.0694,-3.0694,-3.0694,-3.0694,-3.0694,-3.0694,-3.0187,-2.9012,-2.8346,-2.7462,-2.6311,-2.5704,-2.541,-2.541,-2.5351,-2.5327,-2.5322,-2.5242,-2.5191,-3.2423,-3.2618,-3.2462,-2.9048,-2.8834,-2.8814,-2.6303,-2.6963,-2.7665,-2.603,-2.6963,-2.7587,-2.5991,-2.5679,-2.5679,0.0,0.0,0.0,0.0,-2.4218,-2.3478,-2.4374,-2.5212,-2.5757,-2.5777,-2.4238,-2.3926,-2.564,-2.4199,-2.3965,-2.5699,-2.6517,-2.7333,-2.821,-2.9067,-2.9925,-3.0782,-3.0801,-3.0801,-3.0801,-3.0801,-3.0801,-3.0801,-3.0801,-3.0801,-3.0745,-2.9902,-2.9538,-2.9488,-2.8691,-2.7871,-2.7166,-2.8005,-2.7285,-2.6053,-2.8582,-2.9534,-2.9669,-3.0449,-3.0742,-3.0798,-3.0803,-3.0798,-3.0794,-3.0808,-3.0801,-3.0806,-3.0792,-3.0798,-3.0798,-3.0798,-3.0798,-3.0792,-3.0806,-3.0799,-3.0799,-3.0799,-3.0759,-3.07,-3.07,-3.0695,-3.0704,-3.0694,-3.0695,-3.0694,-3.0694,-3.0694,-3.0694,-3.0694,-3.0694,-3.0694,-3.0694,-3.0694,-3.0694,-3.0694,-3.0694,-3.0694,-3.0694,-3.0694,-2.9933,-2.8217,-2.8058,-2.721,-2.5573,-2.5459,-2.541,-2.541,-2.5406,-2.5406,-2.5382,-2.525,-2.5191,-3.3105,-3.3553,-3.3512,-3.0645,-3.0139,-2.9671,-2.708,-2.7372,-2.7695,-2.5928,-2.6963,-2.7656,-2.589,-2.5639,0.0,0.0,0.0,0.0,0.0,-2.2973,-2.2349,-2.2642,-2.3965,-2.4608,-2.4043,-2.3965,-2.4199,-2.4803,-2.4296,-2.4471,-2.564,-2.5952,-2.6751,-2.8152,-2.8483,-2.934,-3.0782,-3.0801,-3.0801,-3.0801,-3.0801,-3.0801,-3.0801,-3.0801,-3.049,-2.9964,-3.024,-2.9709,-2.8665,-2.8971,-2.8274,-2.7028,-2.7321,-2.6736,-2.5878,-2.7341,-2.7882,-2.8089,-2.9514,-3.0353,-3.08,-3.0795,-3.0794,-3.0792,-3.0806,-3.0804,-3.0806,-3.0792,-3.0794,-3.0794,-3.0794,-3.0794,-3.0792,-3.0806,-3.0796,-3.0806,-3.0806,-3.0321,-3.0088,-3.0653,-3.0258,-2.9858,-2.9907,-2.9869,-3.0043,-3.061,-3.0707,-3.0694,-3.0694,-3.0694,-3.0694,-3.0694,-3.0694,-3.0694,-3.0694,-3.0694,-3.0694,-3.0694,-3.0694,-2.9913,-2.8162,-2.8087,-2.7284,-2.5593,-2.5538,-2.5531,-2.5531,-2.5491,-2.5468,-2.5468,-2.536,-2.5307,-3.4372,-3.445,-3.4052,-3.1768,-3.1195,-3.0514,-2.7923,-2.8215,-2.8557,-2.6786,-2.736,-2.7971,-2.7368,-2.6368,-2.5822,0.0,0.0,0.0,0.0,-2.2105,-2.1648,-2.1336,-2.2868,-2.3848,-2.3595,-2.3517,-2.3867,-2.4783,-2.4296,-2.4452,-2.564,-2.5699,-2.6478,-2.8152,-2.8191,-2.9048,-3.0782,-3.0801,-3.0801,-3.0801,-3.0801,-3.0801,-3.0801,-3.0801,-3.049,-2.9983,-3.0228,-2.9694,-2.8672,-2.8933,-2.8393,-2.7405,-2.7093,-2.6803,-2.6613,-2.6894,-2.7381,-2.8076,-2.917,-3.0104,-3.08,-3.08,-3.1015,-3.1328,-3.162,-3.1718,-3.1659,-3.1348,-3.1483,-3.1582,-3.0964,-3.1024,-3.126,-3.1265,-3.1263,-3.1356,-3.165,-3.1252,-3.1025,-3.1617,-3.0975,-3.0358,-3.0403,-2.9878,-2.9627,-3.0192,-3.0244,-3.0341,-3.0652,-3.0701,-3.0694,-3.0694,-3.0694,-3.0694,-3.0694,-3.0694,-3.0694,-3.0694,-3.0694,-3.0069,-2.8628,-2.8259,-2.7463,-2.6087,-2.5757,-2.5601,-2.5601,-2.5567,-2.5547,-2.5527,-2.5472,-2.5419]},{"header":{"parameterUnit":"m.s-1","parameterCategory":1,"la1":30.6,"la2":29.2853,"lo1":-89.7004,"lo2":-87.6739,"dy":0.0162,"dx":0.0183,"nx":112,"ny":82,"refTime":"2025-05-23T18:00:00:Z","depth":0,"parameterNumber":3,"parameterNumberName":"V-component_of_WINDS"},"data":[0.0,0.0,0.0,0.0,0.0,0.0,0.0,0.0,0.0,0.0,0.0,0.0,0.0,0.0,0.0,0.0,0.0,0.0,0.0,0.0,0.0,0.0,0.0,0.0,0.0,0.0,0.0,0.0,0.0,0.0,0.0,0.0,0.0,0.0,0.0,0.0,0.0,0.0,0.0,0.0,0.0,0.0,0.0,0.0,0.0,0.0,0.0,0.0,0.0,0.0,0.0,0.0,0.0,0.0,0.0,0.0,0.0,0.0,0.0,0.0,0.0,0.0,0.0,0.0,0.0,0.0,0.0,0.0,0.0,0.0,0.0,0.0,0.0,0.0,0.0,0.0,0.0,0.0,0.0,0.0,0.0,0.0,0.0,0.0,0.0,0.0,0.0,0.0,0.0,0.0,-1.0164,-1.0881,-1.1755,-1.2311,-1.2434,-1.1693,-1.0974,-1.043,0.0,0.0,0.0,0.0,0.0,0.0,0.0,0.0,0.0,0.0,0.0,0.0,0.0,0.0,0.0,0.0,0.0,0.0,0.0,0.0,0.0,0.0,0.0,0.0,0.0,0.0,0.0,0.0,0.0,0.0,0.0,0.0,0.0,0.0,0.0,0.0,0.0,0.0,0.0,0.0,0.0,0.0,0.0,0.0,0.0,0.0,0.0,0.0,0.0,0.0,0.0,0.0,0.0,0.0,0.0,0.0,0.0,0.0,0.0,0.0,0.0,0.0,0.0,0.0,0.0,0.0,0.0,0.0,0.0,0.0,0.0,0.0,0.0,0.0,0.0,0.0,0.0,0.0,0.0,0.0,0.0,0.0,0.0,0.0,0.0,0.0,0.0,0.0,0.0,0.0,0.0,0.0,0.0,0.0,0.0,0.0,0.0,0.0,0.0,0.0,0.0,0.0,0.0,0.0,-1.1243,-1.2426,-1.314,-1.3536,-1.3561,-1.2969,-1.234,-1.1757,0.0,0.0,0.0,0.0,0.0,0.0,0.0,0.0,0.0,0.0,0.0,0.0,0.0,0.0,0.0,0.0,0.0,0.0,0.0,0.0,0.0,0.0,0.0,0.0,0.0,0.0,0.0,0.0,0.0,0.0,0.0,0.0,0.0,0.0,0.0,0.0,0.0,0.0,0.0,0.0,0.0,0.0,0.0,0.0,0.0,0.0,0.0,0.0,0.0,0.0,0.0,0.0,0.0,0.0,0.0,0.0,0.0,0.0,0.0,0.0,0.0,0.0,0.0,0.0,0.0,0.0,0.0,0.0,0.0,0.0,0.0,0.0,0.0,0.0,0.0,0.0,0.0,0.0,0.0,0.0,0.0,0.0,0.0,0.0,0.0,0.0,0.0,0.0,0.0,0.0,0.0,0.0,0.0,0.0,0.0,0.0,0.0,0.0,0.0,0.0,0.0,0.0,0.0,-1.0904,-1.2047,-1.2815,-1.3438,-1.3741,-1.3607,-1.3162,-1.2459,-1.1417,-1.0677,0.0,0.0,0.0,0.0,0.0,0.0,0.0,0.0,0.0,0.0,0.0,0.0,0.0,0.0,0.0,0.0,0.0,0.0,0.0,0.0,0.0,0.0,0.0,0.0,0.0,0.0,0.0,0.0,0.0,0.0,0.0,0.0,0.0,0.0,0.0,0.0,0.0,0.0,0.0,0.0,0.0,0.0,0.0,0.0,0.0,0.0,0.0,0.0,0.0,0.0,0.0,0.0,0.0,0.0,0.0,0.0,0.0,0.0,0.0,0.0,0.0,0.0,0.0,0.0,0.0,0.0,0.0,0.0,0.0,0.0,0.0,0.0,0.0,0.0,0.0,0.0,0.0,0.0,0.0,0.0,0.0,0.0,0.0,0.0,0.0,0.0,0.0,0.0,0.0,0.0,0.0,0.0,0.0,0.0,0.0,0.0,0.0,0.0,0.0,0.0,0.0,0.0,-1.1872,-1.2578,-1.3048,-1.353,-1.3708,-1.3522,-1.3129,-1.2379,-1.1209,-1.0781,0.0,0.0,0.0,0.0,0.0,0.0,0.0,0.0,0.0,0.0,0.0,0.0,0.0,0.0,0.0,0.0,0.0,0.0,0.0,0.0,0.0,0.0,0.0,0.0,0.0,0.0,0.0,0.0,0.0,0.0,0.0,0.0,0.0,0.0,0.0,0.0,0.0,0.0,0.0,0.0,0.0,0.0,0.0,0.0,0.0,0.0,0.0,0.0,0.0,0.0,0.0,0.0,0.0,0.0,0.0,0.0,0.0,0.0,0.0,0.0,0.0,0.0,0.0,0.0,0.0,0.0,0.0,0.0,0.0,0.0,0.0,0.0,0.0,0.0,0.0,0.0,0.0,0.0,0.0,0.0,0.0,0.0,0.0,0.0,0.0,0.0,0.0,0.0,0.0,0.0,0.0,0.0,0.0,0.0,0.0,0.0,0.0,0.0,0.0,0.0,0.0,0.0,-1.2498,-1.2739,-1.3638,-1.3778,-1.3788,-1.3771,-1.3239,-1.267,-1.2141,-1.111,0.0,0.0,0.0,0.0,0.0,0.0,0.0,0.0,0.0,0.0,0.0,0.0,0.0,0.0,0.0,0.0,0.0,0.0,0.0,0.0,0.0,0.0,0.0,0.0,0.0,0.0,0.0,0.0,0.0,0.0,0.0,0.0,0.0,0.0,0.0,0.0,0.0,0.0,0.0,0.0,0.0,0.0,0.0,0.0,0.0,0.0,0.0,0.0,0.0,0.0,0.0,0.0,0.0,0.0,0.0,0.0,0.0,0.0,0.0,0.0,0.0,0.0,0.0,0.0,0.0,0.0,0.0,0.0,0.0,0.0,0.0,0.0,0.0,0.0,0.0,0.0,0.0,0.0,0.0,0.0,0.0,0.0,0.0,0.0,0.0,0.0,0.0,0.0,0.0,0.0,0.0,0.0,0.0,0.0,0.0,0.0,0.0,0.0,0.0,0.0,0.0,0.0,-1.221,-1.2752,-1.369,-1.3804,-1.3804,-1.3804,-1.3595,-1.2917,-1.1662,0.0,0.0,0.0,0.0,0.0,0.0,0.0,0.0,0.0,0.0,0.0,0.0,0.0,0.0,0.0,0.0,0.0,0.0,0.0,0.0,0.0,0.0,0.0,0.0,0.0,0.0,0.0,0.0,0.0,0.0,0.0,0.0,0.0,0.0,0.0,0.0,0.0,0.0,0.0,0.0,0.0,0.0,0.0,0.0,0.0,0.0,0.0,0.0,0.0,0.0,0.0,0.0,0.0,0.0,0.0,0.0,0.0,0.0,0.0,0.0,0.0,0.0,0.0,0.0,0.0,0.0,0.0,0.0,0.0,0.0,0.0,0.0,0.0,0.0,0.0,0.0,0.0,0.0,0.0,0.0,0.0,0.0,0.0,0.0,0.0,0.0,0.0,0.0,0.0,0.0,0.0,0.0,0.0,0.0,0.0,0.0,0.0,0.0,0.0,0.0,0.0,0.0,-1.179,-1.2261,-1.2875,-1.3716,-1.3804,-1.3804,-1.3804,-1.3621,-1.2943,-1.161,0.0,0.0,0.0,0.0,0.0,0.0,0.0,0.0,0.0,0.0,0.0,0.0,0.0,0.0,0.0,0.0,0.0,0.0,0.0,0.0,0.0,0.0,0.0,0.0,0.0,0.0,0.0,0.0,0.0,0.0,0.0,0.0,0.0,0.0,0.0,0.0,0.0,0.0,0.0,0.0,0.0,0.0,0.0,0.0,0.0,0.0,0.0,0.0,0.0,0.0,0.0,0.0,0.0,0.0,0.0,0.0,0.0,0.0,0.0,0.0,0.0,0.0,0.0,0.0,0.0,0.0,0.0,0.0,0.0,0.0,0.0,0.0,0.0,0.0,0.0,0.0,0.0,0.0,0.0,0.0,0.0,0.0,0.0,0.0,0.0,0.0,0.0,0.0,0.0,0.0,0.0,0.0,0.0,0.0,0.0,0.0,0.0,0.0,0.0,0.0,0.0,0.0,-1.2692,-1.285,-1.3137,-1.3739,-1.3804,-1.3804,-1.3804,-1.3255,-1.2712,0.0,0.0,0.0,0.0,0.0,0.0,0.0,0.0,0.0,0.0,0.0,0.0,0.0,0.0,0.0,0.0,0.0,0.0,0.0,0.0,0.0,0.0,0.0,0.0,0.0,0.0,0.0,0.0,0.0,0.0,0.0,0.0,0.0,0.0,0.0,0.0,0.0,0.0,0.0,0.0,0.0,0.0,0.0,0.0,0.0,0.0,0.0,0.0,0.0,0.0,0.0,0.0,0.0,0.0,0.0,0.0,0.0,0.0,0.0,0.0,0.0,0.0,0.0,0.0,0.0,0.0,0.0,0.0,0.0,0.0,0.0,0.0,0.0,0.0,0.0,0.0,0.0,0.0,0.0,0.0,0.0,0.0,0.0,0.0,0.0,0.0,0.0,0.0,0.0,0.0,0.0,0.0,0.0,0.0,0.0,0.0,0.0,0.0,0.0,0.0,0.0,0.0,0.0,-1.2175,-1.2624,-1.3137,-1.3739,-1.3804,-1.3804,-1.3804,-1.3647,-1.3111,-1.2118,0.0,0.0,0.0,0.0,0.0,0.0,0.0,0.0,0.0,0.0,0.0,0.0,0.0,0.0,0.0,0.0,0.0,0.0,0.0,0.0,0.0,0.0,0.0,0.0,0.0,0.0,0.0,0.0,0.0,0.0,0.0,0.0,0.0,0.0,0.0,0.0,0.0,0.0,0.0,0.0,0.0,0.0,0.0,0.0,0.0,0.0,0.0,0.0,0.0,0.0,0.0,0.0,0.0,0.0,0.0,0.0,0.0,0.0,0.0,0.0,0.0,0.0,0.0,0.0,0.0,0.0,0.0,0.0,0.0,0.0,0.0,0.0,0.0,0.0,0.0,0.0,0.0,0.0,0.0,0.0,0.0,0.0,0.0,0.0,0.0,0.0,0.0,0.0,0.0,0.0,0.0,0.0,0.0,0.0,0.0,0.0,0.0,0.0,0.0,0.0,0.0,0.0,-1.2102,-1.2804,-1.3399,-1.3765,-1.3804,-1.3804,-1.3804,-1.3804,-1.3291,-1.2086,0.0,0.0,0.0,0.0,0.0,0.0,0.0,0.0,0.0,0.0,0.0,0.0,0.0,0.0,0.0,0.0,0.0,0.0,0.0,0.0,0.0,0.0,0.0,0.0,0.0,0.0,0.0,0.0,0.0,0.0,0.0,0.0,0.0,0.0,0.0,0.0,0.0,0.0,0.0,0.0,0.0,0.0,0.0,0.0,0.0,0.0,0.0,0.0,0.0,0.0,0.0,0.0,0.0,0.0,0.0,0.0,0.0,0.0,0.0,0.0,0.0,0.0,0.0,0.0,0.0,0.0,0.0,0.0,0.0,0.0,0.0,0.0,0.0,0.0,0.0,0.0,0.0,0.0,0.0,0.0,0.0,0.0,0.0,0.0,0.0,0.0,0.0,0.0,0.0,0.0,0.0,0.0,0.0,0.0,0.0,0.0,0.0,0.0,0.0,0.0,0.0,0.0,-1.2273,-1.3198,-1.3804,-1.3804,-1.3804,-1.3804,-1.3804,-1.3788,-1.3259,-1.2058,0.0,0.0,0.0,0.0,0.0,0.0,0.0,0.0,0.0,0.0,0.0,0.0,0.0,0.0,0.0,0.0,0.0,0.0,0.0,0.0,0.0,0.0,0.0,0.0,0.0,0.0,0.0,0.0,0.0,0.0,0.0,0.0,0.0,0.0,0.0,0.0,0.0,0.0,0.0,0.0,0.0,0.0,0.0,0.0,0.0,0.0,0.0,0.0,0.0,0.0,0.0,0.0,0.0,0.0,0.0,0.0,0.0,0.0,0.0,0.0,-0.8682,-0.857,0.0,0.0,0.0,0.0,0.0,0.0,0.0,0.0,0.0,0.0,0.0,0.0,0.0,0.0,0.0,0.0,0.0,0.0,0.0,0.0,0.0,0.0,0.0,0.0,0.0,0.0,0.0,0.0,0.0,0.0,0.0,0.0,0.0,0.0,0.0,0.0,0.0,0.0,0.0,0.0,-1.2054,-1.3087,-1.3804,-1.3804,-1.3804,-1.3804,-1.3804,-1.3607,-1.3055,-1.2058,-1.1246,0.0,0.0,0.0,0.0,0.0,0.0,0.0,0.0,0.0,0.0,0.0,0.0,0.0,0.0,0.0,0.0,0.0,0.0,0.0,0.0,0.0,0.0,0.0,0.0,0.0,0.0,0.0,0.0,0.0,0.0,0.0,0.0,0.0,0.0,0.0,0.0,0.0,0.0,0.0,0.0,0.0,0.0,0.0,0.0,0.0,0.0,0.0,0.0,0.0,0.0,0.0,0.0,0.0,0.0,0.0,0.0,0.0,0.0,0.0,-0.8964,-0.8998,0.0,0.0,0.0,0.0,0.0,0.0,0.0,0.0,0.0,0.0,0.0,0.0,0.0,0.0,0.0,0.0,0.0,0.0,0.0,0.0,0.0,0.0,0.0,0.0,0.0,0.0,0.0,0.0,0.0,0.0,0.0,0.0,0.0,0.0,0.0,0.0,0.0,0.0,0.0,0.0,-1.2361,-1.3226,-1.3754,-1.3624,-1.3607,-1.3539,-1.3374,-1.3237,-1.2889,-1.2278,-1.139,0.0,0.0,0.0,0.0,0.0,0.0,0.0,0.0,0.0,0.0,0.0,0.0,0.0,0.0,0.0,0.0,0.0,0.0,0.0,0.0,0.0,0.0,0.0,0.0,0.0,0.0,0.0,0.0,0.0,0.0,0.0,0.0,0.0,0.0,0.0,0.0,0.0,0.0,0.0,0.0,0.0,0.0,0.0,0.0,0.0,0.0,0.0,0.0,0.0,0.0,0.0,0.0,0.0,-0.9059,-0.9192,-0.9201,-0.9814,-0.9994,-0.9748,-0.925,-0.9547,-1.0333,-0.9911,0.0,0.0,0.0,0.0,0.0,0.0,0.0,0.0,0.0,0.0,0.0,0.0,0.0,0.0,0.0,0.0,0.0,0.0,0.0,0.0,0.0,0.0,-1.14,-1.1359,-1.1756,-1.1997,-1.1548,0.0,0.0,0.0,0.0,0.0,0.0,0.0,0.0,0.0,0.0,0.0,-1.2631,-1.3278,-1.3556,-1.334,-1.3323,-1.3203,-1.2913,-1.2861,-1.2726,-1.2458,-1.1469,-1.0786,0.0,0.0,0.0,0.0,0.0,0.0,0.0,0.0,0.0,0.0,0.0,0.0,0.0,0.0,0.0,0.0,0.0,0.0,0.0,0.0,0.0,0.0,0.0,0.0,0.0,0.0,0.0,0.0,0.0,0.0,0.0,0.0,-0.4284,-0.4881,0.0,0.0,0.0,0.0,0.0,0.0,0.0,0.0,0.0,0.0,0.0,0.0,0.0,-0.8961,-0.9375,-0.9713,-0.9893,-0.9893,-0.9944,-0.9947,-0.9969,-1.0066,-1.0231,-1.0459,-1.0373,0.0,-1.1049,-1.0813,0.0,0.0,0.0,0.0,0.0,0.0,0.0,0.0,0.0,0.0,0.0,0.0,0.0,0.0,0.0,0.0,0.0,0.0,0.0,0.0,0.0,0.0,-1.2051,-1.2938,-1.3086,-1.3151,-1.3576,-1.267,-1.1716,-1.1553,-1.1463,-1.1083,0.0,0.0,0.0,0.0,0.0,0.0,-1.2143,-1.2683,-1.3012,-1.2965,-1.2978,-1.2948,-1.2896,-1.2685,-1.2439,-1.2168,-1.1354,-1.0786,-1.0507,-0.933,0.0,0.0,0.0,0.0,0.0,0.0,0.0,0.0,0.0,0.0,0.0,0.0,0.0,0.0,0.0,0.0,0.0,0.0,0.0,0.0,0.0,0.0,0.0,0.0,0.0,0.0,0.0,0.0,0.0,-0.3922,-0.4621,-0.5443,-0.5618,-0.597,0.0,0.0,0.0,0.0,0.0,0.0,0.0,0.0,0.0,-0.9165,-0.947,-0.9705,-0.9875,-1.026,-1.0439,-1.0448,-1.0677,-1.0771,-1.0771,-1.0771,-1.0987,-1.1345,-1.1582,-1.1879,-1.2174,-1.1709,-1.1725,-1.2014,0.0,0.0,0.0,0.0,-1.1825,-1.208,-1.2228,-1.2191,-1.2069,-1.2178,0.0,0.0,0.0,0.0,0.0,0.0,0.0,-1.2854,-1.3557,-1.3303,-1.2964,-1.3442,-1.3674,-1.3848,-1.4138,-1.3691,-1.3094,-1.2592,-1.2383,-1.1885,-1.0625,-1.0863,0.0,0.0,0.0,-1.204,-1.2496,-1.2749,-1.2843,-1.2685,-1.2685,-1.2615,-1.2473,-1.2478,-1.2448,-1.233,-1.1989,-1.1529,-1.0974,-1.0,-0.9132,0.0,0.0,0.0,0.0,0.0,0.0,0.0,0.0,0.0,0.0,0.0,0.0,0.0,0.0,0.0,0.0,0.0,0.0,0.0,0.0,0.0,0.0,0.0,0.0,0.0,0.0,0.0,0.0,-0.4471,-0.5049,-0.6104,-0.6194,-0.6492,0.0,0.0,0.0,0.0,0.0,0.0,-0.924,-0.9559,-0.9893,-1.0251,-1.0245,-1.0311,-1.0405,-1.0696,-1.0841,-1.0865,-1.1173,-1.1353,-1.1422,-1.1422,-1.1652,-1.2047,-1.248,-1.2792,-1.2969,-1.2443,-1.243,-1.2722,-1.2368,-1.2594,-1.3075,-1.2729,-1.2829,-1.314,-1.3346,-1.3285,-1.3106,-1.3087,-1.3128,-1.3176,-1.3184,0.0,0.0,0.0,0.0,-1.3544,-1.4257,-1.3982,-1.3602,-1.3937,-1.4159,-1.4337,-1.4523,-1.4497,-1.4244,-1.3545,-1.3238,-1.2693,-1.1436,-1.1533,0.0,-1.165,-1.1841,-1.2161,-1.263,-1.2703,-1.2615,-1.2419,-1.2401,-1.233,-1.2113,-1.2282,-1.2437,-1.2508,-1.2389,-1.204,-1.1445,-1.0543,-0.9636,-0.8735,0.0,0.0,0.0,0.0,0.0,0.0,0.0,0.0,0.0,0.0,0.0,0.0,0.0,0.0,0.0,0.0,0.0,0.0,0.0,0.0,0.0,0.0,0.0,0.0,0.0,0.0,0.0,0.0,0.0,-0.7015,-0.7024,0.0,0.0,0.0,0.0,-0.8827,-0.9265,-0.9679,-1.0038,-1.0049,-1.0268,-1.0661,-1.067,-1.0841,-1.1241,-1.1258,-1.1267,-1.1276,-1.1293,-1.1464,-1.1763,-1.1763,-1.1977,-1.2384,-1.2869,-1.3054,-1.2988,-1.2886,-1.2976,-1.3134,-1.2722,-1.27,-1.291,-1.2889,-1.2889,-1.291,-1.2931,-1.2931,-1.2987,-1.3423,-1.374,-1.3945,-1.3933,-1.3826,0.0,0.0,-1.3535,-1.3559,-1.4609,-1.4044,-1.3551,-1.489,-1.4835,-1.4619,-1.5139,-1.5052,-1.469,-1.4081,-1.3951,-1.3587,-1.2508,0.0,-1.2212,-1.1761,-1.1709,-1.1813,-1.2098,-1.215,-1.215,-1.2131,-1.2131,-1.2113,-1.2095,-1.2113,-1.224,-1.2478,-1.2084,-1.1814,-1.1773,-1.075,-0.9838,-0.9085,-0.8329,0.0,0.0,0.0,0.0,0.0,0.0,0.0,0.0,0.0,0.0,0.0,0.0,0.0,0.0,0.0,0.0,0.0,0.0,0.0,0.0,0.0,0.0,0.0,0.0,0.0,0.0,0.0,0.0,-0.7729,-0.7804,0.0,-0.8491,-0.8685,-0.8954,-0.9387,-0.9821,-1.0183,-1.0458,-1.0737,-1.1045,-1.1405,-1.1422,-1.1593,-1.1987,-1.2022,-1.2022,-1.2022,-1.2022,-1.2064,-1.2201,-1.2201,-1.2406,-1.2803,-1.2968,-1.3338,-1.3824,-1.3804,-1.3657,-1.3445,-1.3311,-1.3385,-1.36,-1.36,-1.36,-1.3623,-1.3803,-1.3758,-1.37,-1.4158,-1.4429,-1.4609,-1.4776,-1.4815,-1.4794,-1.4794,-1.4567,-1.446,-1.5006,-1.4575,-1.4177,-1.4983,-1.4789,-1.4513,-1.4846,-1.4733,-1.4508,-1.4294,-1.4259,-1.397,-1.3063,-1.3198,-1.3257,-1.2738,-1.2808,-1.2954,-1.305,-1.3073,-1.3073,-1.3073,-1.2797,-1.2613,-1.2613,-1.2456,-1.2318,-1.2258,-1.2608,-1.2341,-1.1272,-1.1067,-1.0435,-0.9311,-0.845,-0.7763,0.0,0.0,0.0,0.0,0.0,0.0,0.0,0.0,0.0,0.0,0.0,0.0,0.0,0.0,0.0,0.0,0.0,0.0,0.0,0.0,0.0,0.0,0.0,0.0,0.0,-0.6881,-0.7498,-0.8276,-0.8428,-0.8633,-0.9036,-0.9222,-0.957,-1.0092,-1.0475,-1.0839,-1.1251,-1.1516,-1.1764,-1.1994,-1.2003,-1.2122,-1.2389,-1.2389,-1.2389,-1.2389,-1.2389,-1.2458,-1.2586,-1.2586,-1.2796,-1.3192,-1.3503,-1.3876,-1.4328,-1.4636,-1.4485,-1.4076,-1.4076,-1.4185,-1.4342,-1.4342,-1.4342,-1.4345,-1.4369,-1.4161,-1.3915,-1.4233,-1.4385,-1.449,-1.4674,-1.4755,-1.4801,-1.4801,-1.4617,-1.4513,-1.4789,-1.4501,-1.4257,-1.4743,-1.4558,-1.4337,-1.4535,-1.4489,-1.4396,-1.4396,-1.4447,-1.427,-1.3593,-1.3831,-1.395,-1.3423,-1.3495,-1.3593,-1.3593,-1.3593,-1.3593,-1.3593,-1.3325,-1.3073,-1.2912,-1.2817,-1.2626,-1.2258,-1.2712,-1.2457,-1.1248,-1.1067,-1.0534,-0.9558,-0.8594,-0.7938,-0.7588,0.0,0.0,0.0,0.0,0.0,0.0,0.0,0.0,0.0,0.0,0.0,0.0,0.0,0.0,0.0,0.0,0.0,0.0,0.0,0.0,0.0,0.0,0.0,-0.73,-0.7745,-0.8207,-0.868,-0.8919,-0.9094,-0.9209,-0.9712,-1.029,-1.0982,-1.1263,-1.1689,-1.2372,-1.2389,-1.2398,-1.2406,-1.2406,-1.2415,-1.2423,-1.2423,-1.2423,-1.2423,-1.2423,-1.2657,-1.3026,-1.3026,-1.3177,-1.3532,-1.4469,-1.4637,-1.4393,-1.5288,-1.5415,-1.5038,-1.5007,-1.4997,-1.4997,-1.4997,-1.4997,-1.4935,-1.448,-1.4,-1.3607,-1.3641,-1.3631,-1.3597,-1.3621,-1.361,-1.3597,-1.361,-1.3621,-1.3668,-1.3949,-1.3821,-1.3739,-1.428,-1.4197,-1.4057,-1.4326,-1.4384,-1.4373,-1.4384,-1.4535,-1.4529,-1.4082,-1.4223,-1.4235,-1.3719,-1.3638,0.0,-1.3638,-1.3638,-1.3638,-1.3638,-1.3627,-1.344,-1.2958,-1.3165,-1.3055,-1.2502,-1.2297,-1.2054,-1.1785,-1.077,-1.007,-0.9781,-0.8805,-0.8071,-0.7611,0.0,0.0,0.0,0.0,0.0,0.0,0.0,0.0,0.0,0.0,0.0,0.0,0.0,0.0,0.0,0.0,0.0,0.0,0.0,0.0,0.0,-0.7471,-0.8143,-0.8238,-0.8595,-0.8994,-0.9318,-0.9619,-0.9802,-0.9855,-1.0215,-1.0695,-1.1308,-1.1427,-1.1726,-1.2361,-1.2389,-1.2526,-1.2837,-1.2846,-1.2946,-1.3202,-1.3202,-1.3202,-1.3202,-1.3202,-1.3254,-1.3365,-1.3365,-1.3417,-1.3502,-1.3773,-1.4198,-1.4723,-1.4645,-1.5186,-1.5967,-1.5266,-1.4997,-1.4997,-1.4997,-1.4997,-1.4976,-1.4852,-1.45,-1.4167,-1.4558,-1.4179,-1.3658,-1.4069,-1.3905,-1.3644,-1.3844,-1.375,-1.3716,-1.4174,-1.3952,-1.3739,-1.428,-1.4046,-1.3834,-1.4303,-1.4093,-1.3881,-1.4057,-1.415,-1.4201,-1.4267,-1.4484,-1.4575,-1.4429,-1.4562,-1.4695,-1.4695,-1.4695,-1.4695,-1.4695,-1.4373,-1.396,-1.3463,-1.3162,-1.261,-1.1688,-1.1802,-1.1679,-1.1172,-1.0537,-0.9916,-0.9301,-0.8646,-0.8232,0.0,0.0,0.0,0.0,0.0,0.0,0.0,0.0,0.0,0.0,0.0,0.0,0.0,0.0,0.0,0.0,0.0,0.0,0.0,0.0,0.0,0.0,-0.8033,-0.8751,-0.9163,-0.9419,-0.9629,-0.9797,-1.0104,-1.0302,-1.0302,-1.0477,-1.0868,-1.1501,-1.166,-1.2011,-1.2629,-1.2935,-1.3211,-1.3442,-1.3442,-1.3545,-1.375,-1.3588,-1.3511,-1.3511,-1.3511,-1.3511,-1.3511,-1.3511,-1.3511,-1.3511,-1.3722,-1.4091,-1.4627,-1.4784,-1.5313,-1.6065,0.0,0.0,0.0,0.0,-1.5452,-1.5287,-1.5287,-1.4987,-1.4644,-1.4948,-1.4668,-1.425,-1.457,-1.431,-1.3935,-1.409,-1.3872,-1.3668,-1.3975,-1.3823,-1.3716,-1.4127,-1.3975,-1.3858,-1.4174,-1.3986,-1.3773,-1.3821,-1.3844,0.0,-1.4046,-1.435,-1.4558,-1.4558,-1.4766,-1.4926,-1.4926,-1.504,-1.5108,-1.5108,-1.4855,-1.4488,-1.3971,-1.3587,0.0,0.0,0.0,-1.1382,-1.0474,-1.0188,0.0,0.0,0.0,0.0,0.0,-0.8991,0.0,0.0,-0.8109,-0.8201,0.0,0.0,0.0,0.0,0.0,0.0,0.0,0.0,0.0,0.0,0.0,0.0,0.0,0.0,0.0,0.0,-0.8449,-0.9069,-0.9931,-1.0157,-1.0199,-1.0163,-1.0448,-1.0674,-1.0674,-1.0711,-1.1019,-1.1646,-1.2059,-1.2526,-1.3087,-1.3794,0.0,0.0,0.0,-1.4144,-1.4093,-1.375,-1.3554,-1.3511,-1.3511,-1.3511,-1.3511,-1.3511,-1.3511,-1.3511,-1.3941,-1.416,-1.4279,-1.5108,-1.5527,-1.5614,-1.573,-1.6029,-1.6413,-1.6413,-1.6153,-1.579,-1.579,0.0,0.0,-1.5096,-1.5065,-1.4997,-1.5049,-1.4733,-1.4376,-1.4349,-1.4014,-1.3683,-1.3655,-1.3621,-1.3668,-1.3892,-1.3939,-1.3973,-1.3997,-1.3973,-1.3892,-1.3692,-1.3621,-1.3597,-1.3597,-1.4022,-1.435,-1.435,-1.4535,-1.4708,-1.4708,-1.4926,-1.5108,-1.5108,-1.5108,0.0,-1.4431,-1.4131,-1.3642,-1.285,-1.213,-1.1194,-0.993,-0.9938,-0.9953,-0.9881,-0.9896,-1.011,-1.0608,-1.0608,-1.0608,-1.0609,-0.9111,-0.8797,0.0,0.0,0.0,0.0,0.0,0.0,0.0,0.0,0.0,0.0,0.0,0.0,0.0,0.0,0.0,-0.8254,-0.9164,-0.9828,-0.9839,-1.0458,-1.0821,-1.0528,-1.0814,-1.1012,-1.1012,-1.145,-1.1907,-1.2292,-1.293,-1.3477,-1.3876,-1.4326,-1.4572,-1.4572,-1.4572,-1.4418,-1.4101,-1.4024,-1.3819,-1.3511,-1.3511,0.0,-1.3511,-1.3511,-1.3511,-1.3511,-1.3601,-1.3851,-1.4189,-1.3992,-1.438,-1.5137,-1.5933,-1.6327,-1.6413,-1.6413,-1.635,-1.6249,-1.6249,-1.5967,-1.5573,-1.5741,-1.5436,-1.5049,-1.5247,-1.5107,0.0,-1.4679,-1.4401,-1.4146,-1.3963,-1.3763,-1.361,-1.3668,-1.3692,-1.3739,-1.3939,-1.3844,-1.3716,-1.3892,-1.375,-1.3597,-1.3597,-1.3868,-1.4091,-1.4091,-1.443,-1.4708,-1.4708,-1.4926,-1.5108,-1.5108,-1.5108,-1.4913,-1.4431,-1.3965,-1.3262,-1.2302,-1.1716,-1.1117,-1.047,-1.081,-1.0832,-1.0443,-1.0458,-1.0504,-1.0608,-1.0608,-1.0676,-1.0829,-1.0504,-1.0448,0.0,0.0,0.0,0.0,0.0,0.0,0.0,0.0,0.0,0.0,0.0,-0.6499,-0.696,0.0,-0.8216,-0.8709,-0.9457,-1.0059,-1.0405,-1.0819,-1.1041,-1.088,-1.1151,-1.1408,-1.1538,-1.1813,-1.2134,-1.2468,-1.3183,-1.3684,-1.385,-1.4538,-1.4949,-1.4949,-1.4949,-1.4855,-1.4658,-1.4478,-1.429,-1.4093,-1.3896,-1.3802,-1.3793,-1.3596,-1.3511,-1.3511,-1.3511,-1.3631,-1.3851,-1.3851,-1.427,-1.497,-1.5654,-1.6124,-1.6413,-1.6413,-1.6413,-1.6413,-1.6413,-1.6257,-1.606,-1.6179,-1.5801,-1.5378,-1.5505,-1.5134,-1.4631,-1.4537,-1.4214,-1.3935,-1.3826,-1.3692,-1.3597,-1.3597,-1.3597,-1.3644,-1.3763,-1.3692,-1.3644,-1.3763,-1.3692,-1.3597,-1.3597,-1.3716,-1.3797,-1.3797,-1.4233,-1.4535,-1.4535,-1.4857,-1.5108,-1.5108,-1.5108,-1.5005,-1.4775,-1.4281,-1.3578,-1.2555,-1.2256,-1.1756,-1.0981,-1.1176,-1.1188,-1.0947,-1.0947,-1.1073,-1.1359,-1.1359,-1.1399,-1.1506,-1.1506,-1.1336,0.0,0.0,0.0,0.0,0.0,0.0,0.0,-0.5857,-0.6275,-0.6546,-0.6757,-0.6999,-0.7296,-0.7795,-0.8406,-0.9145,-0.9587,-1.0118,-1.1004,-1.1138,-1.1191,-1.1348,-1.1562,-1.178,-1.2069,-1.2149,-1.2302,-1.2592,-1.3278,-1.3715,-1.3791,-1.4678,-1.5257,-1.5326,-1.5326,-1.5292,-1.5215,-1.4932,-1.4752,-1.4717,-1.4358,-1.4213,-1.4196,-1.3802,-1.3622,-1.3613,-1.3545,-1.3511,-1.3549,-1.399,-1.4448,-1.4934,-1.5315,-1.5825,-1.6341,-1.6341,-1.6341,-1.6341,-1.6341,-1.6341,-1.6341,-1.6341,-1.6077,-1.5763,-1.5674,-1.5066,-1.441,-1.4323,-1.3957,-1.3628,-1.3594,-1.3597,-1.3597,-1.3597,-1.3597,-1.3597,-1.3597,-1.3597,-1.3586,-1.3491,-1.3491,-1.3467,-1.3406,-1.3382,-1.343,-1.3586,-1.4069,-1.4396,-1.4396,-1.4811,-1.5108,-1.5108,-1.5108,-1.5073,-1.4982,-1.4614,-1.4015,-1.3096,-1.3027,-1.2659,-1.1784,-1.1658,-1.1566,-1.1478,-1.1393,-1.1541,-1.1975,-1.1975,-1.2011,-1.2095,-1.2095,-1.1832,-0.3094,-0.3532,-0.408,-0.467,-0.5195,-0.5765,0.0,-0.6918,-0.7036,-0.7256,-0.7492,-0.7805,-0.8177,-0.8323,-0.8634,-0.9423,-0.9755,-1.0199,-1.1147,-1.1221,-1.1481,-1.2254,-1.2105,-1.2076,-1.2404,-1.2696,-1.2914,-1.295,-1.3641,-1.4157,-1.4486,-1.4945,-1.5359,-1.5737,-1.5737,-1.5566,-1.518,-1.5172,-1.5,-1.4684,-1.4641,-1.4624,-1.4607,-1.4213,-1.4033,-1.4016,-1.3665,-1.3511,-1.3536,-1.395,-1.44,-1.4861,-1.5246,-1.5702,-1.6132,-1.6132,-1.6132,-1.6132,-1.6132,-1.6132,-1.6132,-1.6132,-1.61,-1.5993,-1.5645,-1.5199,-1.4744,-1.441,-1.3987,-1.3696,-1.3628,-1.3597,-1.3597,-1.3597,-1.3597,-1.3597,-1.3597,-1.3597,-1.3491,-1.3136,-1.3064,-1.2977,-1.2666,-1.2618,-1.2861,-1.3491,-1.4069,-1.4396,-1.4396,-1.4811,-1.5108,-1.5108,-1.5108,-1.4936,-1.4499,-1.4419,-1.4153,-1.3567,-1.3512,-1.3466,-1.334,-1.2946,-1.2514,-1.2105,-1.1696,-1.1516,-1.1571,-1.1571,-1.1756,-1.2095,-1.2095,-1.2062,-0.3694,-0.4013,-0.4466,-0.5453,-0.5964,-0.6418,-0.7114,-0.7402,-0.7532,-0.7605,-0.7838,-0.8091,-0.8243,-0.8507,-0.8896,-0.9508,-0.982,-1.03,-1.1323,-1.1438,-1.1687,-1.2403,-1.2536,-1.2658,-1.2797,-1.2928,-1.3082,-1.3279,-1.3801,-1.4165,-1.431,-1.4883,-1.5275,-1.5461,-1.5691,-1.572,-1.5557,-1.5557,-1.5591,-1.5686,-1.5206,-1.5112,-1.5317,-1.4709,-1.4316,-1.4084,-1.3922,-1.3853,-1.3862,-1.4024,-1.4357,-1.4792,-1.5136,-1.5409,-1.5614,-1.5974,-1.6115,-1.6115,-1.6115,-1.6115,-1.6115,-1.6115,-1.5923,-1.567,-1.5487,-1.4983,-1.435,-1.3988,-1.3615,-1.3243,-1.3008,-1.2958,-1.2958,-1.2958,-1.2958,-1.3017,-1.3204,-1.3091,-1.2969,-1.3005,-1.2835,-1.2657,-1.252,-1.2505,-1.2593,-1.291,-1.3586,-1.4152,-1.4373,-1.4811,-1.5108,-1.5108,-1.5108,-1.5028,-1.4821,-1.4809,-1.4591,-1.4107,-1.3775,-1.3459,-1.3149,-1.2673,-1.2349,-1.2152,-1.2216,-1.2269,-1.2269,-1.2299,-1.2404,-1.2555,-1.2263,-1.2275,-0.3884,-0.4342,-0.4912,-0.5778,-0.6463,-0.7038,-0.7427,-0.7725,-0.7898,-0.7898,-0.8117,-0.8279,-0.8279,-0.8565,-0.8986,-0.9504,-0.9702,-1.0241,-1.1558,-1.1606,-1.1743,-1.2422,-1.2669,-1.2721,-1.2664,-1.2927,-1.3243,-1.3477,-1.3783,-1.3992,-1.4093,-1.4597,-1.4991,-1.5196,-1.547,-1.5733,-1.5951,-1.5951,-1.6175,-1.6536,-1.5951,-1.5831,-1.6088,-1.5334,-1.4718,-1.4256,-1.4256,-1.4196,-1.411,-1.4324,-1.4572,-1.4863,-1.5232,-1.5377,-1.5412,-1.5873,-1.6037,-1.6037,-1.6037,-1.6037,-1.6037,-1.6037,-1.5806,-1.5491,-1.5375,-1.4838,-1.4192,-1.3843,-1.346,-1.3113,-1.2874,-1.2726,-1.2669,-1.2793,-1.2726,-1.272,-1.3075,-1.2968,-1.2818,-1.2824,-1.2628,-1.2404,-1.2194,-1.2175,-1.22,-1.2323,-1.2919,-1.3579,-1.4152,-1.4731,-1.5108,-1.5108,-1.5108,-1.5108,-1.5108,-1.4994,-1.4756,-1.4405,-1.3905,-1.3419,-1.3043,-1.2558,-1.2234,-1.2125,-1.2328,-1.251,-1.2626,-1.2683,-1.2848,-1.3084,-1.2693,-1.2716,-0.3286,-0.4411,-0.5628,-0.5546,-0.6639,-0.776,-0.779,-0.8003,-0.8196,-0.8196,-0.8334,-0.8506,-0.8506,-0.8517,-0.8761,-0.9475,-0.9388,-0.988,-1.1804,-1.1595,-1.1556,-1.2501,-1.2319,-1.2042,-1.1779,-1.2806,-1.3484,-1.3492,-1.3492,-1.3674,-1.4093,-1.4129,-1.4453,-1.5169,-1.5204,-1.5549,-1.6274,-1.6364,-1.6561,-1.6863,-1.6846,-1.6838,-1.6821,-1.6105,-1.5369,-1.4667,-1.4667,-1.4453,-1.4153,-1.4881,-1.518,-1.5206,-1.5634,-1.578,-1.578,-1.5806,-1.5806,-1.5806,-1.5806,-1.5806,-1.5806,-1.5806,-1.5798,-1.5729,-1.5309,-1.4974,-1.4584,-1.4196,-1.3846,-1.3565,-1.3569,-1.3282,-1.3075,-1.3462,-1.3272,-1.3084,-1.349,-1.3575,-1.3336,-1.2561,-1.2418,-1.2172,-1.1454,-1.1352,-1.1477,-1.1852,-1.2113,-1.2623,-1.3674,-1.4559,-1.5108,-1.5108,-1.5108,-1.5108,-1.5108,-1.4674,-1.4419,-1.4408,-1.3907,-1.3589,-1.3579,-1.3055,-1.2592,-1.2214,-1.1755,-1.1759,-1.2212,-1.2223,-1.2699,-1.357,-1.3558,-1.3558,-0.4132,-0.4819,-0.5615,-0.5793,-0.6602,-0.7392,-0.7567,-0.8011,-0.8393,-0.8393,-0.8458,-0.8517,-0.8517,-0.8641,-0.8885,-0.9285,-0.9393,-0.9891,-1.1089,-1.1046,-1.1126,-1.162,-1.1764,-1.1711,-1.1397,-1.1928,-1.2305,-1.2305,-1.2305,-1.2459,-1.276,-1.2992,-1.3346,-1.3925,-1.4206,-1.4531,-1.4958,-1.5567,-1.6057,-1.6376,-1.7007,-1.7158,-1.6872,-1.6653,-1.6131,-1.5429,-1.5429,-1.5206,-1.4855,-1.5112,-1.5369,-1.5617,-1.5745,-1.5805,-1.5805,-1.5805,-1.5805,-1.5805,-1.5805,-1.5805,-1.5805,-1.5805,-1.5805,-1.578,-1.5643,-1.5334,-1.4914,-1.4268,-1.3835,-1.3421,-1.2915,-1.2706,-1.2635,-1.2768,-1.2697,-1.2706,-1.3122,-1.2989,-1.2792,-1.2813,-1.2593,-1.2234,-1.1713,-1.1627,-1.1645,-1.1638,-1.2555,-1.346,-1.4001,-1.4663,-1.5108,-1.5108,-1.4811,-1.4628,-1.4628,-1.4163,-1.3881,-1.3881,-1.3362,-1.3064,-1.3064,-1.2599,-1.2267,-1.2132,-1.2632,-1.2971,-1.3132,-1.3477,-1.3811,-1.4109,-1.3785,-1.3776,-0.4285,-0.485,-0.543,-0.5677,-0.6474,-0.7295,-0.746,-0.8019,-0.849,-0.8404,-0.8388,-0.8361,-0.8274,-0.8382,-0.8646,-0.9017,-0.9252,-0.9675,-1.0679,-1.0812,-1.0859,-1.1058,-1.1261,-1.123,-1.076,-1.0935,-1.1223,-1.1669,-1.1706,-1.1783,-1.1961,-1.2253,-1.262,-1.3032,-1.3459,-1.3923,-1.4367,-1.4982,-1.5661,-1.6333,-1.6932,-1.722,-1.7273,-1.7175,-1.6781,-1.6199,-1.6199,-1.5908,-1.5437,-1.5566,-1.5694,-1.5805,-1.5805,-1.5805,-1.5805,-1.5805,-1.5805,-1.5805,-1.5805,-1.5805,-1.5805,-1.5805,-1.5805,-1.5805,-1.5805,-1.5625,-1.5292,-1.4667,-1.4221,-1.3785,-1.316,-1.28,-1.2637,-1.2757,-1.2689,-1.2734,-1.3112,-1.2971,-1.2826,-1.2983,-1.2803,-1.2483,-1.2071,-1.2011,-1.191,-1.1662,-1.265,-1.3524,-1.3729,-1.4351,-1.4834,-1.4949,-1.4766,-1.4581,-1.4396,-1.3905,-1.3515,-1.3338,-1.2832,-1.2564,-1.2564,-1.2264,-1.2101,-1.2101,-1.2914,-1.342,-1.3597,-1.4135,-1.4494,-1.4637,-1.4293,-1.4316,-0.3741,-0.4488,-0.5198,-0.5173,-0.6282,-0.7391,-0.7423,-0.7944,-0.8399,-0.8225,-0.8202,-0.8095,-0.7844,-0.7782,-0.8018,-0.8715,-0.8838,-0.9293,-1.0558,-1.07,-1.0738,-1.0738,-1.0738,-1.0513,-0.9954,-0.9884,-1.0368,-1.1521,-1.1595,-1.1601,-1.1614,-1.1879,-1.2184,-1.2536,-1.2975,-1.3613,-1.4386,-1.4636,-1.5397,-1.6617,-1.6698,-1.7115,-1.7902,-1.7663,-1.7295,-1.6915,-1.6915,-1.6533,-1.5882,-1.627,-1.6201,-1.5831,-1.5831,-1.5814,-1.5805,-1.5805,-1.5805,-1.5805,-1.5805,-1.5805,-1.5805,-1.5805,-1.5805,-1.5805,-1.5805,-1.5805,-1.5711,-1.53,-1.4949,-1.459,-1.4179,-1.3536,-1.312,-1.3425,-1.3254,-1.31,-1.3434,-1.3511,-1.3408,-1.3103,-1.3017,-1.2889,-1.2511,-1.2406,-1.2269,-1.1892,-1.2359,-1.2804,-1.2978,-1.3695,-1.4316,-1.4651,-1.4903,-1.4857,-1.4396,-1.3881,-1.3338,-1.2788,-1.2353,-1.2101,-1.2101,-1.2126,-1.215,-1.215,-1.2638,-1.3136,-1.3634,-1.4186,-1.4651,-1.5108,-1.5108,-1.5108,-0.3879,-0.441,-0.4967,-0.4623,-0.5193,-0.6001,-0.6564,-0.7076,-0.7593,-0.8099,-0.8041,-0.7811,-0.7538,-0.7583,-0.7739,-0.8038,-0.8216,-0.8633,-0.9546,-0.9695,-0.9809,-1.0105,-1.0143,-1.0067,-0.9922,-0.9884,-1.003,-1.0331,-1.0368,-1.0453,-1.065,-1.0847,-1.118,-1.1607,-1.1951,-1.2367,-1.2928,-1.3761,-1.4719,-1.576,-1.637,-1.6821,-1.7033,-1.7607,-1.768,-1.7368,-1.7368,-1.7064,-1.6644,-1.6739,-1.655,-1.6163,-1.6244,-1.6081,-1.5805,-1.5805,-1.5805,-1.5805,-1.5805,-1.5805,-1.5805,-1.5805,-1.5805,-1.5805,-1.5805,-1.5805,-1.5668,-1.5,-1.4761,-1.453,-1.3836,-1.3511,-1.3399,-1.3485,-1.3442,-1.3399,-1.3485,-1.3511,-1.3476,-1.3391,-1.316,-1.2975,-1.2872,-1.2586,-1.2363,-1.2269,-1.2147,-1.2259,-1.2774,-1.346,-1.4118,-1.4628,-1.4455,-1.4142,-1.3823,-1.3304,-1.2798,-1.2304,-1.2166,-1.2101,-1.2101,-1.2452,-1.2628,-1.2628,-1.3518,-1.4059,-1.4186,-1.4674,-1.4994,-1.5108,-1.5108,-1.5108,-0.3821,-0.418,-0.4534,-0.4348,-0.4788,-0.5391,-0.5784,-0.65,-0.719,-0.7451,-0.7466,-0.738,-0.7133,-0.7096,-0.7235,-0.7621,-0.781,-0.8193,-0.8939,-0.9208,-0.9397,-0.9625,-0.9809,-0.9884,-0.9884,-0.9884,-0.9884,-0.9884,-0.9884,-0.9981,-1.0121,-1.0415,-1.0738,-1.0985,-1.1468,-1.1866,-1.2203,-1.2954,-1.3753,-1.4678,-1.5247,-1.5951,-1.6739,-1.7204,-1.7542,-1.7723,-1.7723,-1.7509,-1.715,-1.6987,-1.665,-1.6283,-1.6165,-1.5985,-1.5805,-1.5805,-1.5805,-1.5805,-1.5805,-1.5805,-1.5805,-1.5805,-1.5805,-1.5805,-1.5805,-1.5805,-1.5677,-1.5086,-1.4804,-1.4579,-1.3922,-1.3639,-1.3511,-1.3511,-1.3511,-1.3511,-1.3511,-1.3511,-1.3511,-1.3511,-1.3348,-1.3211,-1.3211,-1.3031,-1.2826,-1.27,-1.2321,-1.2255,-1.2805,-1.3149,-1.3637,-1.4314,-1.4095,-1.3789,-1.3443,-1.2991,-1.253,-1.2126,-1.2101,-1.219,-1.2403,-1.2652,-1.2909,-1.3146,-1.3965,-1.4396,-1.4396,-1.488,-1.4993,-1.4798,-1.5005,-1.4993,-0.3672,-0.3919,-0.4071,-0.426,-0.4749,-0.5196,-0.5201,-0.5998,-0.6717,-0.6567,-0.6672,-0.6773,-0.6606,-0.65,-0.6645,-0.726,-0.7468,-0.782,-0.8501,-0.8961,-0.9214,-0.9329,-0.9666,-0.9889,-0.9932,-0.9938,-0.9895,-0.9965,-0.997,-0.997,-0.997,-1.0351,-1.0624,-1.0689,-1.135,-1.1785,-1.1957,-1.2203,-1.2741,-1.3499,-1.3789,-1.4789,-1.6322,-1.6576,-1.7115,-1.7829,-1.7951,-1.7817,-1.748,-1.7124,-1.6693,-1.6265,-1.5994,-1.5848,-1.5805,-1.5805,-1.5805,-1.5805,-1.5805,-1.5805,-1.5805,-1.5805,-1.5805,-1.5805,-1.5805,-1.5805,-1.5711,-1.5266,-1.4923,-1.4614,-1.4136,-1.3759,-1.3511,-1.3511,-1.3511,-1.3511,-1.3511,-1.3511,-1.3511,-1.3511,-1.3511,-1.3511,-1.3511,-1.3511,-1.3399,-1.312,-1.27,-1.2543,-1.2965,-1.2851,-1.3074,-1.3926,-1.3894,-1.3661,-1.3208,-1.2871,-1.2506,-1.2101,-1.2101,-1.2289,-1.2701,-1.2764,-1.3064,-1.3597,-1.414,-1.4419,-1.4489,-1.4903,-1.489,-1.4499,-1.4913,-1.489,-0.3425,-0.3939,-0.4252,-0.4228,-0.4442,-0.4753,-0.5128,-0.5099,0.0,-0.6029,-0.5992,-0.5868,-0.5932,-0.6085,-0.6265,-0.6558,-0.6739,-0.7196,-0.8094,-0.8389,-0.8806,-0.955,-0.9628,-0.9784,-1.019,-1.004,-1.0008,-1.0213,-1.0229,-1.0229,-1.0229,-1.0487,-1.0774,-1.1171,-1.1526,-1.1699,-1.1742,-1.1952,-1.2166,-1.2289,-1.3288,-1.3915,-1.4287,-1.5944,-1.678,-1.6952,-1.77,-1.7817,-1.7505,-1.7437,-1.6961,-1.6291,-1.6313,-1.6107,-1.5805,-1.5805,-1.5805,-1.5805,-1.5805,-1.5805,-1.5805,-1.5805,-1.5805,-1.5805,-1.5805,-1.5805,-1.566,-1.4975,-1.4735,-1.4521,-1.3793,-1.3554,-1.3511,-1.3511,-1.3511,-1.3511,-1.3511,-1.3511,-1.3511,-1.3511,-1.3511,-1.3511,-1.3511,-1.3511,-1.3485,-1.3425,-1.2834,-1.2557,-1.296,-1.273,-1.2924,-1.3902,-1.3986,-1.3716,-1.3088,-1.3064,-1.2759,-1.1968,-1.2051,-1.215,-1.2215,-1.2579,-1.3064,-1.3597,-1.414,-1.4581,-1.4971,-1.5062,-1.5062,-1.4982,-1.5073,-1.5062,-0.2962,-0.3566,-0.4063,-0.4084,-0.4134,-0.4204,-0.4332,0.0,0.0,-0.4919,-0.5171,-0.5367,-0.543,-0.5663,-0.5906,-0.6114,-0.6326,-0.6733,-0.7521,-0.8098,-0.8692,-0.9418,-0.9862,-1.0221,-1.0431,-1.0256,-1.0213,-1.0455,-1.0363,-1.0347,-1.0466,-1.0692,-1.0982,-1.1295,-1.144,-1.1483,-1.1483,-1.1742,-1.1828,-1.1871,-1.2497,-1.3082,-1.362,-1.5123,-1.6075,-1.6601,-1.7369,-1.7638,-1.748,-1.7038,-1.6661,-1.6274,-1.6139,-1.5959,-1.5805,-1.5805,-1.5805,-1.5805,-1.5805,-1.5805,-1.5805,-1.5805,-1.5805,-1.5805,-1.5805,-1.5805,-1.5685,-1.512,-1.4829,-1.4555,-1.3964,-1.3665,-1.3511,-1.3511,-1.3511,-1.3511,-1.3511,-1.3511,-1.3511,-1.3511,-1.3511,-1.3511,-1.3511,-1.3511,-1.3511,-1.3511,-1.2869,-1.2555,-1.294,-1.252,-1.2446,-1.3152,-1.3021,-1.2803,-1.255,-1.2393,-1.2157,-1.1828,-1.1852,-1.1993,-1.2246,-1.2472,-1.2837,-1.3386,-1.3624,-1.4048,-1.464,-1.464,-1.4654,-1.4741,-1.4993,-1.497,-0.247,-0.3215,-0.3877,-0.3969,-0.3958,-0.3892,-0.3661,-0.3833,-0.404,-0.3924,-0.4346,-0.4767,-0.4849,-0.5153,-0.5455,0.0,-0.5937,-0.6384,-0.6925,-0.7884,-0.8722,-0.9261,-1.0024,-1.0591,-1.0667,-1.0455,-1.0412,-1.0686,-1.0589,-1.0579,-1.0662,-1.0934,-1.1149,-1.13,-1.1305,-1.1305,-1.1305,-1.1527,-1.1613,-1.1613,-1.1828,-1.2332,-1.3075,-1.4161,-1.5074,-1.5797,-1.6652,-1.6977,-1.686,-1.6312,-1.6066,-1.6037,-1.5757,-1.5726,-1.5805,-1.5805,-1.5805,-1.5805,-1.5805,-1.5805,-1.5805,-1.5805,-1.5805,-1.5805,-1.5805,-1.5805,-1.572,-1.5326,-1.4958,-1.4622,-1.4196,-1.3802,-1.3511,-1.3511,-1.3511,-1.3511,-1.3511,-1.3511,-1.3511,-1.3511,-1.3511,-1.3511,-1.3511,-1.3511,-1.3511,-1.3511,-1.2869,-1.25,-1.2831,-1.2235,-1.1902,-1.22,-1.2101,-1.2051,-1.2051,-1.1794,-1.1653,-1.1653,-1.1678,-1.1859,-1.2227,-1.2252,-1.2496,-1.3016,-1.317,-1.3552,-1.4199,-1.4339,-1.445,-1.4557,-1.4936,-1.4901,-0.2248,-0.3231,-0.4031,-0.394,-0.3992,-0.3982,-0.3677,0.0,-0.3355,-0.3593,-0.3602,-0.3663,-0.4021,-0.4477,-0.478,0.0,0.0,-0.6241,-0.636,-0.7618,-0.8736,-0.934,-0.9954,-1.0491,-1.0908,-1.0552,-1.0476,-1.0918,-1.1139,-1.1123,-1.0961,-1.1139,-1.1284,-1.1305,-1.1305,-1.1305,-1.1305,-1.1305,-1.1354,-1.1354,-1.1613,-1.1785,-1.1909,-1.3033,-1.3571,-1.372,-1.4899,-1.5244,-1.4987,-1.5225,-1.5288,-1.529,-1.5256,-1.547,-1.5805,-1.5805,-1.5805,-1.5805,-1.5805,-1.5805,-1.5805,-1.5805,-1.5805,-1.5805,-1.5805,-1.5805,-1.572,-1.5326,-1.4958,-1.4622,-1.4196,-1.3802,-1.3511,-1.3511,-1.3511,-1.3511,-1.3511,-1.3511,-1.3511,-1.3511,-1.3511,-1.3511,-1.3511,-1.3511,-1.3511,-1.3511,-1.2869,-1.2417,-1.2444,-1.1817,-1.1377,-1.1402,-1.2026,-1.2298,-1.1952,-1.2002,-1.1902,-1.1553,-1.1619,-1.1728,-1.1769,-1.1769,-1.1974,-1.2463,-1.3064,-1.3647,-1.4199,-1.4754,-1.5017,-1.5039,-1.5085,-1.5085,-0.1665,-0.2792,-0.3912,-0.3836,-0.379,-0.3656,-0.3424,-0.3219,-0.3084,-0.3062,-0.3246,-0.3441,-0.3608,-0.3996,-0.4281,0.0,0.0,0.0,-0.5361,-0.6664,-0.7901,-0.8766,-0.9811,-1.0678,-1.1134,-1.0907,-1.0783,-1.0972,-1.1171,-1.1268,-1.1166,-1.1257,-1.1305,-1.1305,-1.1305,-1.1305,-1.1305,-1.1305,-1.1305,-1.1305,-1.1397,-1.144,-1.1478,-1.2644,-1.3102,-1.3016,-1.3976,-1.4414,-1.4441,-1.4341,-1.4499,-1.4812,-1.4438,-1.4402,-1.4553,-1.4553,-1.4553,-1.4589,-1.4963,-1.4848,-1.4553,-1.4553,-1.433,-1.4178,-1.4875,-1.4942,-1.4794,-1.4817,-1.4614,-1.435,-1.4427,-1.3982,-1.3511,-1.3511,-1.3511,-1.3511,-1.3511,-1.3511,-1.3511,-1.3511,-1.3511,-1.3511,-1.3511,-1.3511,-1.3511,-1.3511,-1.3074,-1.2663,-1.2423,-1.1935,-1.1524,-1.1318,-1.1603,-1.1694,-1.1544,-1.1603,-1.1544,-1.1402,-1.1427,-1.1452,-1.1452,-1.1452,-1.1544,-1.1726,-1.235,-1.2982,-1.36,-1.4235,-1.4731,-1.5108,-1.4926,-1.4857,-0.1238,-0.2326,-0.3454,-0.3647,-0.3552,-0.3379,-0.3222,-0.3046,-0.2904,-0.2721,-0.2968,-0.319,-0.319,-0.3552,-0.3774,0.0,0.0,-0.4204,-0.4505,-0.5777,-0.7065,-0.8102,-0.934,-1.0428,-1.1155,-1.1214,-1.1133,-1.0993,-1.1171,-1.1305,-1.1305,-1.1305,-1.1305,-1.1305,-1.1305,-1.1305,-1.1305,-1.1305,-1.1305,-1.1305,-1.1305,-1.1268,-1.1241,-1.2022,-1.2296,-1.2127,-1.2758,-1.3169,-1.3367,-1.3175,-1.3419,-1.3897,-1.3448,-1.3448,-1.3709,-1.3709,-1.3709,-1.3745,-1.4194,-1.3934,-1.3448,-1.3448,-1.3047,-1.2682,-1.3484,-1.3691,-1.3661,-1.3919,-1.3707,-1.3476,-1.3704,-1.3476,-1.3199,-1.3199,-1.3351,-1.3511,-1.3511,-1.3511,-1.3511,-1.3511,-1.3511,-1.3511,-1.3511,-1.3511,-1.3511,-1.3511,-1.3202,-1.2834,-1.244,-1.2045,-1.1669,-1.1344,-1.1301,-1.1301,-1.1301,-1.1301,-1.1301,-1.1301,-1.1301,-1.1301,-1.1301,-1.1301,-1.1301,-1.1301,-1.1882,-1.2487,-1.3088,-1.3766,-1.4351,-1.488,-1.4697,-1.4616,-0.111,-0.1855,-0.2587,-0.332,-0.3365,-0.3172,-0.3111,-0.2956,-0.2772,-0.2709,-0.2691,-0.2719,-0.2719,-0.3079,-0.3246,-0.2802,0.0,0.0,-0.4048,-0.5113,-0.6344,-0.7457,-0.8444,-0.9532,-1.0856,-1.1413,-1.1494,-1.102,-1.1171,-1.1305,-1.1305,-1.1305,-1.1305,-1.1305,-1.1305,-1.1305,-1.1305,-1.1305,-1.1305,-1.1305,-1.1305,-1.1182,-1.0988,-1.103,-1.0859,-1.0627,-1.1043,-1.1233,-1.1248,-1.1596,-1.1953,-1.2308,-1.2308,-1.2894,-1.3709,-1.3709,-1.3709,-1.3709,-1.3709,-1.3339,-1.2901,-1.2901,-1.2358,-1.1706,-1.1744,-1.2084,-1.2523,-1.2523,-1.2173,-1.1772,-1.1573,-1.202,-1.2512,-1.2512,-1.3009,-1.3511,-1.3511,-1.3511,-1.3511,-1.3511,-1.3511,-1.3511,-1.3511,-1.3511,-1.3511,-1.3511,-1.3202,-1.2834,-1.244,-1.2045,-1.1669,-1.1344,-1.1301,-1.1301,-1.1301,-1.1301,-1.1301,-1.1301,-1.1301,-1.1301,-1.1301,-1.1301,-1.1301,-1.1301,-1.1882,-1.2389,-1.2812,-1.3484,-1.4014,-1.4396,-1.4396,-1.4396,-0.1104,-0.2045,-0.3,-0.3243,-0.3222,-0.3109,-0.3049,-0.2909,-0.2772,-0.2709,-0.2691,-0.2691,-0.2691,-0.283,-0.2928,-0.2909,-0.3193,0.0,-0.3453,-0.4436,-0.5397,-0.6091,-0.8217,-0.9942,-1.084,-1.1386,-1.1569,-1.1214,-1.1262,-1.1305,-1.1305,-1.1305,-1.1305,-1.1305,-1.1305,-1.1305,-1.1305,-1.1305,-1.1225,-1.1101,-1.1101,-1.0977,-1.0746,-1.0746,-1.0622,-1.0396,-1.0511,-1.0727,-1.093,-1.1035,-1.1403,-1.1848,-1.144,-1.1471,-1.1731,-1.1731,-1.1731,-1.1768,-1.2174,-1.1953,-1.1471,-1.1471,-1.0917,-1.0267,-1.0267,-1.0766,-1.136,-1.1445,-1.157,-1.1578,-1.1251,-1.1322,-1.1578,-1.1919,-1.2358,-1.2773,-1.3094,-1.3338,-1.3511,-1.3511,-1.3511,-1.3511,-1.3511,-1.3511,-1.3511,-1.3511,-1.3408,-1.3211,-1.2872,-1.2689,-1.2466,-1.2081,-1.2065,-1.1859,-1.1344,-1.1301,-1.1301,-1.1301,-1.1301,-1.1301,-1.1301,-1.1301,-1.1301,-1.1301,-1.1882,-1.2389,-1.2788,-1.346,-1.3907,-1.4138,-1.4138,-1.4033,-0.1016,-0.1717,-0.2505,-0.2994,-0.3056,-0.2975,-0.2919,-0.284,-0.276,-0.2703,-0.2691,-0.2691,-0.2691,-0.2691,-0.2756,-0.2867,-0.2913,-0.2968,-0.315,-0.3811,-0.4663,-0.5766,-0.8086,-0.9887,-1.0481,-1.1235,-1.1564,-1.1193,-1.1257,-1.1305,-1.1305,-1.1305,-1.1305,-1.1305,-1.1305,-1.1305,-1.1305,-1.1305,-1.1182,-1.0982,-1.0982,-1.0816,-1.0509,-1.0509,-1.0374,-1.0153,-1.0153,-1.0253,0.0,-1.0475,-1.0663,-1.0962,-1.0625,-1.0594,-1.0812,-1.0812,-1.0812,-1.085,-1.1223,-1.094,-1.0344,-1.0344,-0.9955,-0.9421,-0.9371,-0.9684,-1.0113,-1.0149,-1.0341,-1.0503,-1.0282,-1.0426,-1.0703,-1.1048,-1.1648,-1.2174,-1.2474,-1.2842,-1.3117,-1.3117,-1.3208,-1.3307,-1.3307,-1.342,-1.3511,-1.3511,-1.3511,-1.3382,-1.3052,-1.3009,-1.2854,-1.2432,-1.2389,-1.2201,-1.1756,-1.1567,-1.1422,-1.131,-1.1301,-1.1301,-1.1301,-1.1301,-1.1301,-1.1301,-1.1676,-1.2064,-1.2467,-1.316,-1.3624,-1.3844,-1.3844,-1.3763,0.0,-0.1015,-0.1375,-0.266,-0.2877,-0.2788,-0.2788,-0.2752,0.0,-0.2691,-0.2691,-0.2693,-0.2699,-0.2695,-0.2697,-0.2715,-0.2795,-0.2887,-0.3095,-0.3321,-0.4198,-0.6211,-0.8002,-0.9279,-0.9763,-1.0897,-1.1439,-1.102,-1.1166,-1.1262,-1.1305,-1.1305,-1.1305,-1.1305,-1.1305,-1.1305,-1.1305,-1.1305,-1.1177,-1.0955,-1.0955,-1.0719,-1.0266,-1.0266,-1.0143,-0.9884,-0.9884,-0.9884,-0.9884,-0.9884,-0.9884,-0.9884,-0.9884,-1.0255,-1.0738,-1.0738,-1.0738,-1.0738,-1.0738,-1.0259,-0.9599,-0.9567,-0.9394,-0.9157,-0.8949,-0.8884,-0.888,-0.8804,-0.877,-0.8802,-0.8926,-0.9422,-0.9894,-0.9952,-1.0829,-1.1679,-1.1741,-1.2128,-1.2451,-1.2482,-1.2736,-1.295,-1.295,-1.3216,-1.342,-1.342,-1.345,-1.3361,-1.3036,-1.3014,-1.2906,-1.2509,-1.2466,-1.2449,-1.2398,-1.2028,-1.1661,-1.1361,-1.131,-1.1301,-1.1301,-1.1301,-1.1301,-1.1301,-1.1326,-1.1528,-1.1902,-1.2613,-1.317,-1.3563,-1.3563,-1.3563,-0.0647,0.0,-0.1804,-0.2579,-0.2738,-0.2723,0.0,-0.2707,-0.2691,-0.2691,-0.2691,-0.2711,-0.2754,-0.2738,-0.2758,-0.2962,-0.3073,-0.3162,-0.3379,-0.3677,-0.4355,-0.5637,-0.7179,-0.8356,-0.8979,-1.0144,-1.0907,-1.1004,-1.0857,-1.0906,-1.1262,-1.1305,-1.1305,-1.1305,-1.1305,-1.1305,-1.1305,-1.1305,-1.1096,-1.0678,-1.0678,-1.0466,-1.0008,-1.0008,-0.9976,-0.9884,-0.9884,-0.9884,-0.9884,-0.9884,-0.9884,-0.9884,-0.9884,-0.9992,-1.0105,-1.0105,-1.0105,-1.0105,-1.0105,-0.9997,-0.9782,-0.941,-0.9254,-0.9125,-0.8721,-0.8721,-0.8846,-0.8647,-0.8582,-0.8576,-0.8608,-0.8738,-0.8952,-0.9364,-0.9869,-1.0496,-1.1257,-1.1725,-1.2058,-1.2421,-1.2544,-1.2605,-1.2605,-1.2666,-1.2728,-1.2728,-1.295,-1.31,-1.3017,-1.3211,-1.3348,-1.3254,-1.3245,-1.3014,-1.244,-1.2028,-1.178,-1.1686,-1.143,-1.1301,-1.1301,-1.1301,-1.1301,-1.1301,-1.1603,-1.1803,-1.1902,-1.2387,-1.2803,-1.3136,-1.3136,-1.3314,-0.058,-0.1171,-0.1685,-0.2543,-0.2754,-0.2754,-0.2754,0.0,0.0,0.0,0.0,0.0,-0.2756,-0.2758,-0.2813,-0.3028,-0.314,-0.3299,-0.364,-0.3847,-0.4359,-0.5307,-0.6323,-0.7304,-0.8346,-0.9253,-0.9969,-1.0471,-1.0374,-1.0511,-1.0949,-1.0992,-1.1084,-1.1305,-1.1198,-1.1193,-1.1305,-1.1193,-1.0957,-1.0597,-1.049,-1.0243,-0.9884,-0.9884,-0.9884,-0.9884,-0.9884,-0.9884,-0.9884,-0.9884,-0.9884,-0.9884,-0.9884,-0.9884,-0.9884,-0.9884,-0.9884,-0.9884,-0.9884,-0.9852,-0.9685,-0.92,-0.905,-0.898,-0.8624,-0.8603,-0.8678,-0.8549,-0.8517,-0.8517,-0.8517,-0.8517,-0.8576,-0.8861,-0.9274,-0.9716,-1.0256,-1.0881,-1.1413,-1.1677,-1.205,-1.2336,-1.2336,-1.2428,-1.2482,-1.2482,-1.2474,-1.2474,-1.2544,-1.2497,-1.2634,-1.3009,-1.3039,-1.3002,-1.2908,-1.2378,-1.1917,-1.1601,-1.1413,-1.1301,-1.1301,-1.1301,-1.1301,-1.1301,-1.1519,-1.1728,-1.1902,-1.2126,-1.2421,-1.2769,-1.2769,-1.29,-0.0723,-0.1146,-0.1491,-0.2508,-0.2766,-0.2776,-0.2776,0.0,0.0,0.0,0.0,0.0,0.0,-0.2795,-0.2879,-0.301,-0.3148,-0.3416,-0.384,-0.3967,-0.4256,-0.4948,-0.5494,-0.628,-0.7516,-0.8131,-0.8769,-0.9466,-0.9558,-0.9724,-1.0149,-1.0149,-1.0371,-1.0819,-1.0768,-1.0826,-1.1031,-1.0968,-1.0816,-1.0538,-1.039,-1.0164,-0.9884,-0.9884,-0.9884,-0.9884,-0.9884,-0.9884,-0.9884,-0.9884,-0.9884,-0.9884,-0.9884,-0.9884,-0.9884,-0.9884,-0.9895,-0.9863,-0.9825,-0.9685,-0.9484,-0.9041,-0.8895,-0.8852,-0.8587,-0.8517,-0.8517,-0.8517,-0.8517,-0.8517,-0.8517,-0.8517,-0.8517,-0.8517,-0.8861,-0.921,-0.9274,-0.9977,-1.0579,-1.0674,-1.1334,-1.1903,-1.1903,-1.2151,-1.2359,-1.2359,-1.2004,-1.1748,-1.1895,-1.1531,-1.1516,-1.2197,-1.2258,-1.2519,-1.3085,-1.2582,-1.1927,-1.1353,-1.1302,-1.1301,-1.1301,-1.1301,-1.1301,-1.1301,-1.1301,-1.1477,-1.1803,-1.1803,-1.2026,-1.2406,-1.2406,-1.2431,-0.1324,-0.1757,-0.1975,-0.2503,-0.2682,-0.2711,-0.2711,0.0,0.0,0.0,0.0,0.0,0.0,-0.2956,-0.302,-0.3156,-0.3338,-0.356,-0.3857,-0.3912,-0.3996,-0.417,-0.4969,-0.5624,-0.5941,-0.6564,-0.7215,-0.7827,-0.7675,-0.7735,-0.8209,-0.8209,-0.8345,-0.8663,-0.9175,-0.9597,-0.9841,-1.0388,-1.0573,-1.0347,-1.0309,-1.0164,-0.9884,-0.9884,-0.9884,-0.9884,-0.9884,-0.9884,-0.9884,-0.9884,-0.9884,-0.9884,-0.9884,-0.9884,-0.9884,-0.9884,-0.9798,-0.9599,-0.9389,-0.9292,-0.9217,-0.8987,-0.8895,-0.8852,-0.8587,-0.8517,-0.8517,-0.8517,-0.8517,-0.8517,-0.8517,-0.8517,-0.8517,-0.8517,-0.8549,-0.8738,-0.921,-0.9434,-0.9652,-1.0053,-1.0604,-1.0989,-1.0989,-1.1397,-1.1747,-1.1747,-1.1522,-1.1389,-1.1397,-1.1188,-1.1073,-1.1229,-1.1236,-1.1314,-1.1533,-1.1385,-1.1296,-1.1288,-1.1293,-1.1301,-1.1301,-1.1301,-1.1301,-1.1301,-1.1301,-1.1318,-1.1393,-1.1393,-1.1603,-1.2002,-1.2002,-1.2175,-0.145,-0.1751,-0.1969,-0.2505,-0.2797,-0.2893,-0.2873,-0.2863,0.0,0.0,0.0,0.0,0.0,-0.3065,-0.3177,-0.337,-0.3554,-0.3701,-0.3875,-0.3899,-0.3916,-0.3957,-0.4329,-0.4842,-0.5417,-0.5691,-0.6161,-0.7062,-0.687,-0.6905,-0.7383,-0.7427,-0.7599,-0.795,-0.8086,-0.8238,-0.8363,-0.8858,-0.9512,-1.0293,-1.0153,-1.003,-0.9884,-0.9884,-0.9884,-0.9884,-0.9884,-0.9884,-0.9884,-0.9884,-0.9884,-0.9884,-0.9884,-0.9884,-0.9884,-0.9884,-0.9776,-0.9598,-0.9448,-0.9405,-0.9346,-0.9014,-0.8895,-0.8852,-0.8587,-0.8517,-0.8517,-0.8517,-0.8517,-0.8517,-0.8517,-0.8517,-0.8517,-0.8517,-0.8517,-0.8576,-0.8797,-0.9087,-0.9364,-0.9582,-1.0028,-1.0446,-1.0737,-1.0989,-1.1185,-1.1185,-1.0825,-1.0534,-1.0345,-1.0028,-0.999,-1.0426,-1.0458,-1.0743,-1.1471,-1.1308,-1.1194,-1.129,-1.1294,-1.1251,-1.1099,-1.1226,-1.1217,-1.1099,-1.1226,-1.1301,-1.1301,-1.1301,-1.1402,-1.1578,-1.1578,-1.1669,-0.1686,-0.1885,-0.2049,-0.2593,0.0,-0.2995,-0.3018,-0.3001,-0.2997,0.0,0.0,0.0,0.0,-0.3199,-0.336,-0.362,-0.3716,-0.3826,-0.3857,-0.3869,-0.3869,-0.3869,-0.3869,-0.4203,-0.5014,-0.4938,-0.5212,-0.6128,-0.6016,-0.6071,-0.6419,-0.6464,-0.6637,-0.7071,-0.6954,-0.6919,-0.6956,-0.7529,-0.8471,-0.9847,-0.9779,-0.9809,-0.9884,-0.9884,-0.9884,-0.9884,-0.9884,-0.9884,-0.9884,-0.9884,-0.9884,-0.9884,-0.9884,-0.9884,-0.9879,-0.9863,-0.9728,-0.9598,-0.9484,-0.9446,-0.9376,-0.8954,-0.8814,-0.8782,-0.8571,-0.8517,-0.8517,-0.8517,-0.8517,-0.8517,-0.8517,-0.8517,-0.8517,-0.8517,-0.8517,-0.8517,-0.8517,-0.8829,-0.9113,-0.9113,-0.9492,-0.999,-1.051,-1.0706,-1.0807,-1.0807,-1.0345,-0.9862,-0.9486,-0.9022,-0.8958,-0.9582,-0.964,-1.0116,-1.1267,-1.1194,-1.1106,-1.1207,-1.115,-1.1023,-1.082,-1.1074,-1.1099,-1.0896,-1.115,-1.1301,-1.1301,-1.1301,-1.1301,-1.1301,-1.1301,-1.1301,-0.2429,-0.2578,-0.2587,-0.2742,-0.2768,-0.2783,-0.3026,-0.3047,0.0,-0.3173,0.0,0.0,-0.3352,-0.3479,-0.3632,-0.3775,-0.3798,-0.3804,-0.381,-0.3812,-0.3812,-0.3812,-0.3812,-0.3878,-0.4091,-0.4074,-0.4191,-0.4452,-0.4472,-0.4476,-0.452,-0.452,-0.461,-0.4926,-0.5443,-0.5812,-0.6016,-0.7214,-0.8055,-0.8556,-0.9094,-0.9549,-0.9884,-0.9884,-0.9884,-0.9884,-0.9884,-0.9884,-0.9884,-0.9884,-0.9884,-0.9884,-0.9884,-0.9884,-0.9895,-0.968,-0.963,-0.9554,-0.9106,-0.8949,-0.8906,-0.8624,-0.8544,-0.8538,-0.8522,-0.8517,-0.8517,-0.8517,-0.8517,-0.8517,-0.8517,-0.8517,-0.8517,-0.8517,-0.8517,-0.8517,-0.8517,-0.8517,-0.8549,-0.8549,-0.899,-0.9492,-0.999,-1.0478,-1.0807,-1.0807,-1.0345,-0.9831,-0.9364,-0.8861,-0.8544,-0.8608,-0.8608,-0.9021,-1.0038,-1.05,-1.0806,-1.0906,-1.0697,-1.0547,-1.0522,-1.0794,-1.0922,-1.0896,-1.115,-1.1301,-1.1301,-1.1301,-1.1301,-1.1301,-1.1301,-1.1301,-0.2521,-0.2607,-0.2626,-0.2781,-0.2842,0.0,0.0,-0.3185,-0.3278,-0.3371,-0.3397,-0.3424,-0.3509,-0.3581,-0.3656,-0.3787,-0.3802,-0.3802,-0.3802,-0.3802,-0.3802,-0.3802,-0.3853,-0.3897,-0.3982,-0.4087,-0.4171,-0.4289,-0.43,-0.4275,-0.4224,-0.4271,-0.4319,-0.4399,-0.4503,-0.456,-0.464,-0.5437,-0.6023,-0.6427,-0.8136,-0.9008,-0.916,-0.943,-0.9544,-0.9549,-0.9809,-0.9884,-0.9884,-0.9884,-0.9884,-0.9884,-0.9884,-0.983,-0.9717,-0.9771,-0.9701,-0.9592,-0.9408,-0.9241,-0.9039,-0.8807,-0.8635,-0.8517,-0.8517,-0.8517,-0.8517,-0.8517,-0.8517,-0.8517,-0.8517,-0.8517,-0.8517,-0.8517,-0.8517,-0.8517,-0.8517,-0.8517,-0.8517,-0.8517,-0.8673,-0.8958,-0.9492,-0.9748,-0.9881,-0.9881,-0.9684,-0.9364,-0.8861,-0.8641,-0.8517,-0.8517,-0.8802,-0.9143,-0.9543,-0.9846,-1.0082,-1.02,-1.0539,-1.0588,-1.0187,-1.0641,-1.082,-1.0641,-1.1074,-1.1301,-1.1301,-1.1301,-1.1301,-1.1301,-1.1301,-1.1301,-0.2574,-0.2607,-0.2626,-0.2781,0.0,0.0,-0.3183,-0.3307,-0.3441,-0.3552,-0.3583,-0.3601,-0.3658,-0.3669,-0.3691,-0.3791,-0.3802,-0.3802,-0.3802,-0.3828,-0.3845,-0.3845,-0.3887,-0.3979,-0.4071,-0.4136,-0.4208,-0.4293,-0.4246,-0.4191,-0.4132,-0.413,-0.4104,-0.4088,-0.3893,-0.3814,-0.3814,-0.4339,-0.475,-0.5044,-0.6847,-0.797,-0.8432,-0.8899,-0.9127,-0.9127,-0.9387,-0.9539,-0.9539,-0.9539,-0.9539,-0.9539,-0.9539,-0.9526,-0.9522,-0.9519,-0.9595,-0.9663,-0.9368,-0.9239,-0.9157,-0.8851,-0.8646,-0.8517,-0.8517,-0.8517,-0.8517,-0.8517,-0.8517,-0.8517,-0.8517,-0.8517,-0.8517,-0.8517,-0.8517,-0.8517,-0.8517,-0.8517,-0.8517,-0.8517,-0.8517,-0.8673,-0.921,-0.9306,-0.9306,-0.9306,-0.9306,-0.9113,-0.8576,-0.8517,-0.8517,-0.8517,-0.8835,-0.9113,-0.9274,-0.943,-0.9602,-0.9773,-1.0263,-1.0339,-0.9903,-1.036,-1.0539,-1.0342,-1.082,-1.1049,-1.1049,-1.1049,-1.1049,-1.1049,-1.1049,-1.1049,-0.2607,-0.2609,-0.2626,0.0,0.0,0.0,-0.3356,-0.3399,-0.3478,-0.3746,-0.3802,-0.3802,-0.3802,-0.3804,-0.3804,-0.3802,-0.3804,-0.3804,-0.3804,-0.3842,-0.3901,-0.3901,-0.3981,-0.4073,-0.4208,-0.4216,-0.4208,-0.4291,-0.4091,-0.3992,-0.3992,-0.3863,-0.3804,-0.3802,-0.3673,-0.3588,-0.3586,-0.4262,-0.4603,-0.4605,-0.5251,-0.6353,-0.7783,-0.8394,-0.8661,-0.8699,-0.8699,-0.8703,-0.8703,-0.8703,-0.8703,-0.8703,-0.8703,-0.8937,-0.9246,-0.8856,-0.9198,-0.9777,-0.8919,-0.886,-0.913,-0.8635,-0.8484,-0.8484,-0.8484,-0.8484,-0.8484,-0.8484,-0.8484,-0.8517,-0.8517,-0.8517,-0.8517,-0.8517,-0.8517,-0.8517,-0.8517,-0.8517,-0.8517,-0.8517,-0.8517,-0.8673,-0.921,-0.9306,-0.9306,-0.9306,-0.9306,-0.9113,-0.8576,-0.8517,-0.8517,-0.8517,-0.8517,-0.8705,-0.9242,-0.9306,-0.9425,-0.9764,-0.9782,-0.9736,-0.961,-0.9862,-0.9999,-0.9999,-1.0342,-1.0496,-1.0496,-1.0496,-1.0496,-1.0496,-1.0496,-1.0496,-0.2607,-0.2628,0.0,-0.2768,0.0,0.0,0.0,-0.3458,0.0,0.0,-0.3802,-0.3802,-0.3802,-0.3855,-0.3838,-0.3812,-0.3871,-0.3932,-0.3869,-0.3936,-0.3954,-0.3954,-0.4075,-0.4142,-0.4212,-0.4216,-0.4227,-0.4208,-0.4102,-0.3979,-0.385,-0.3914,-0.3867,-0.3673,-0.364,-0.356,-0.3538,-0.3691,-0.3763,-0.3834,-0.4563,-0.5381,-0.6279,-0.6738,-0.7203,-0.7663,-0.7936,-0.8318,-0.8703,-0.8703,-0.8703,-0.8703,-0.8703,-0.878,-0.8856,-0.8742,-0.8851,-0.9026,-0.8749,-0.858,-0.8408,-0.825,-0.8038,-0.7787,-0.7787,-0.7954,-0.8149,-0.8149,-0.8317,-0.8517,-0.8517,-0.8517,-0.8517,-0.8517,-0.8517,-0.8517,-0.8517,-0.8517,-0.8517,-0.8517,-0.8517,-0.8544,-0.8705,-0.8738,-0.8738,-0.8738,-0.8738,-0.8673,-0.8511,-0.8517,-0.8517,-0.8517,-0.8517,-0.8582,-0.8738,-0.8738,-0.9012,-0.9616,-0.9434,-0.9406,-0.9591,-0.9862,-0.9999,-0.9999,-1.0342,-1.0496,-1.0496,-1.0496,-1.0496,-1.0496,-1.0496,-1.0496,-0.2607,-0.2675,0.0,-0.2901,-0.3107,-0.3289,-0.327,0.0,-0.3705,-0.3799,-0.3828,-0.3814,-0.3849,-0.3863,-0.3881,-0.3866,-0.394,-0.3974,-0.3961,-0.4032,-0.4077,-0.3998,-0.4118,-0.4159,-0.4122,-0.4118,-0.4104,-0.4067,-0.3946,-0.381,-0.3705,-0.3695,-0.36,-0.3437,-0.3431,-0.3406,-0.3391,-0.3408,-0.3445,-0.3501,-0.3994,-0.4434,-0.4927,-0.5622,-0.6163,-0.6588,-0.7092,-0.7518,-0.7897,-0.8131,-0.8208,-0.8208,-0.8208,-0.8165,-0.8089,-0.7936,-0.7884,-0.7877,-0.7584,-0.7581,-0.766,-0.7582,-0.753,-0.7489,-0.7489,-0.7657,-0.7787,-0.7787,-0.7954,-0.8117,-0.8117,-0.822,-0.8349,-0.8484,-0.8517,-0.8517,-0.8517,-0.8517,-0.8517,-0.8517,-0.8517,-0.8517,-0.8517,-0.8517,-0.8517,-0.8517,-0.8517,-0.8517,-0.8517,-0.8517,-0.8517,-0.8517,-0.8517,-0.8517,-0.8517,-0.8517,-0.8728,-0.9248,-0.901,-0.8947,-0.9233,-0.9635,-0.9836,-0.9836,-1.0043,-1.0146,-1.0146,-1.0146,-1.0146,-1.0146,-1.0146,-1.0146,-0.2607,-0.2687,-0.2811,-0.2993,-0.3179,0.0,-0.3091,-0.3374,-0.3706,-0.379,-0.3742,-0.371,-0.379,-0.3853,-0.3857,-0.3849,-0.393,-0.399,-0.3982,-0.4102,-0.413,-0.4002,-0.411,-0.4128,-0.4002,-0.398,-0.3975,-0.3893,-0.3718,-0.3577,-0.3491,-0.3336,-0.321,-0.3194,-0.32,-0.32,-0.3192,-0.3318,-0.3445,-0.3501,-0.3585,-0.3675,-0.3841,-0.4927,-0.5467,-0.5544,-0.6209,-0.6563,-0.6641,-0.7176,-0.7407,-0.7407,-0.7407,-0.7284,-0.7011,-0.6633,-0.6525,-0.65,-0.5897,-0.6202,-0.6814,-0.6618,-0.6918,-0.7326,-0.7326,-0.7391,-0.7461,-0.7461,-0.7456,-0.7489,-0.7489,-0.7722,-0.8019,-0.8349,-0.8452,-0.8517,-0.8517,-0.8517,-0.8517,-0.8517,-0.8517,-0.8517,-0.8517,-0.8517,-0.8517,-0.8517,-0.8517,-0.8517,-0.8517,-0.8517,-0.8517,-0.8517,-0.8517,-0.8517,-0.8517,-0.8517,-0.8606,-0.884,-0.859,-0.8533,-0.8736,-0.9212,-0.951,-0.9536,-0.9536,-0.9562,-0.9588,-0.9588,-0.9588,-0.9588,-0.9588,-0.9588,-0.2607,-0.2517,0.0,-0.2642,-0.2645,-0.263,-0.2608,-0.2707,-0.2866,-0.3201,-0.2992,-0.2868,-0.3201,-0.3369,-0.339,-0.3292,-0.3685,-0.3968,-0.3938,-0.4008,-0.4017,-0.3996,-0.4012,-0.4017,-0.3996,-0.3906,-0.3853,-0.3833,-0.3628,-0.3487,-0.3434,-0.3424,-0.3375,-0.3196,-0.3297,-0.3299,-0.3194,-0.3318,-0.3445,-0.3501,-0.3585,-0.3675,-0.3802,-0.4075,-0.4462,-0.4932,-0.5547,-0.6131,-0.6602,-0.6756,-0.6795,-0.6795,-0.6795,-0.644,-0.5931,-0.5857,-0.5803,-0.5746,-0.5609,-0.5545,-0.55,-0.5467,-0.5716,-0.6009,-0.6009,-0.6474,-0.7045,-0.7045,-0.7265,-0.7489,-0.7489,-0.7554,-0.7619,-0.7689,-0.8117,-0.8517,-0.8517,-0.8517,-0.8517,-0.8517,-0.8517,-0.8517,-0.8517,-0.8517,-0.8517,-0.8517,-0.8517,-0.8517,-0.8517,-0.8517,-0.8517,-0.8517,-0.8517,-0.8517,-0.8517,-0.8517,-0.8716,-0.916,-0.8883,-0.8831,-0.9083,-0.882,-0.8817,-0.9133,-0.914,-0.929,-0.9588,-0.9588,-0.9588,-0.9588,-0.9588,-0.9588,-0.2597,0.0,0.0,-0.273,0.0,-0.2162,-0.2189,-0.1803,-0.1569,-0.196,-0.2078,-0.2125,-0.2389,-0.2497,-0.2507,-0.2439,-0.3002,-0.3475,-0.3639,-0.3711,-0.3768,-0.3934,-0.3971,-0.3952,-0.391,-0.3779,-0.3681,-0.3678,-0.3548,-0.3395,-0.3303,-0.3344,-0.3291,-0.3196,-0.3316,-0.332,-0.3194,-0.336,-0.3452,-0.3501,-0.3544,-0.3591,-0.3678,-0.3762,-0.3958,-0.4309,-0.489,-0.5356,-0.5709,-0.6015,-0.6131,-0.6131,-0.6131,-0.5744,-0.5162,-0.5162,-0.4893,-0.4559,-0.4559,-0.455,-0.4589,-0.4589,-0.5047,-0.5617,-0.5617,-0.6083,-0.6651,-0.6651,-0.6811,-0.697,-0.697,-0.7101,-0.7204,-0.7204,-0.7759,-0.8252,-0.8252,-0.8382,-0.8517,-0.8517,-0.8517,-0.8517,-0.8517,-0.8517,-0.8517,-0.8517,-0.8517,-0.8517,-0.8517,-0.8517,-0.8517,-0.8517,-0.8517,-0.8517,-0.8517,-0.8517,-0.8608,-0.8894,-0.8545,-0.837,-0.8534,-0.8055,-0.8076,-0.8692,-0.8718,-0.8923,-0.9309,-0.9309,-0.9413,-0.9588,-0.9588,-0.9588,-0.2297,0.0,-0.2675,-0.2683,-0.2217,0.0,-0.1802,-0.102,-0.0392,-0.0745,-0.1019,-0.1262,-0.1367,-0.1413,-0.1453,-0.1534,-0.2052,-0.2618,-0.3155,-0.3071,-0.3133,-0.3683,-0.354,-0.3465,-0.3591,-0.334,-0.3217,-0.33,-0.3229,-0.3226,-0.322,-0.3231,-0.3233,-0.325,-0.3358,-0.332,-0.3194,-0.3393,-0.3477,-0.3477,-0.3493,-0.3499,-0.3505,-0.369,-0.3765,-0.3779,-0.4302,-0.4621,-0.4737,-0.5237,-0.5428,-0.5428,-0.5428,-0.5085,-0.4543,-0.4523,-0.4091,-0.3497,-0.3483,-0.3646,-0.3861,-0.3861,-0.4525,-0.5352,-0.5448,-0.5848,-0.6284,-0.6383,-0.6387,-0.6387,-0.6387,-0.6618,-0.6815,-0.6815,-0.7335,-0.7824,-0.7884,-0.8182,-0.8382,-0.8349,-0.8382,-0.8447,-0.8484,-0.8517,-0.8517,-0.8517,-0.8517,-0.8517,-0.8517,-0.8517,-0.8517,-0.8517,-0.8517,-0.8517,-0.8517,-0.8517,-0.8501,-0.8458,-0.8081,-0.7822,-0.7742,-0.7359,-0.748,-0.8156,-0.8315,-0.8606,-0.9008,-0.9061,-0.9283,-0.9588,-0.9588,-0.9588,-0.1181,0.0,-0.1496,0.0,-0.1539,-0.1301,0.0,-0.0825,-0.0314,-0.0353,0.0,0.0196,-0.0157,-0.0236,-0.0393,-0.0905,-0.0947,-0.1305,-0.2455,-0.1661,-0.1541,-0.3036,-0.2126,-0.1753,-0.266,-0.2003,-0.1766,-0.2428,-0.2454,-0.2725,-0.3346,-0.342,-0.3428,-0.3383,-0.3393,-0.332,-0.3194,-0.333,-0.3416,-0.3418,-0.3462,-0.3499,-0.3501,-0.3524,-0.3575,-0.3648,-0.3844,-0.4231,-0.4701,-0.4776,-0.4815,-0.4815,-0.4815,-0.4465,-0.391,-0.3787,-0.3657,-0.3489,-0.3445,-0.3382,-0.3293,-0.3293,-0.3727,-0.4292,-0.4752,-0.5282,-0.5815,-0.6284,-0.6387,-0.6387,-0.6387,-0.6416,-0.6453,-0.6453,-0.6782,-0.7138,-0.7493,-0.7819,-0.7987,-0.7689,-0.7857,-0.8149,-0.8447,-0.8517,-0.8517,-0.8517,-0.8517,-0.8517,-0.8517,-0.8517,-0.8517,-0.8517,-0.8517,-0.8517,-0.8517,-0.8517,-0.8425,-0.8241,-0.8165,-0.7949,-0.7487,-0.7383,-0.7328,-0.7273,-0.8023,-0.8606,-0.9008,-0.9335,-0.9536,-0.9588,-0.9588,-0.9588,-0.1022,-0.087,-0.0796,0.0,-0.0793,-0.0342,-0.0653,0.0039,0.0745,0.0745,0.1255,0.149,0.0979,0.0901,0.0823,0.0548,0.0274,-0.0196,-0.0979,-0.0627,-0.0623,-0.1654,-0.1216,-0.1014,-0.1555,-0.118,-0.1188,-0.1817,-0.1999,-0.2373,-0.3043,-0.3248,-0.3352,-0.3399,-0.3399,-0.332,-0.3194,-0.3369,-0.3449,-0.3399,-0.3441,-0.3397,-0.335,-0.3452,-0.3546,-0.359,-0.3669,-0.387,-0.4192,-0.4192,-0.4158,-0.407,-0.407,-0.3884,-0.3609,-0.3571,-0.3499,-0.3453,-0.3412,-0.3303,-0.3192,-0.3192,-0.356,-0.4028,-0.4289,-0.4951,-0.565,-0.5881,-0.6185,-0.6387,-0.6387,-0.6387,-0.6387,-0.6387,-0.6519,-0.6679,-0.6839,-0.733,-0.7722,-0.7787,-0.7884,-0.8117,-0.8447,-0.8517,-0.8517,-0.8517,-0.8517,-0.8517,-0.8517,-0.8517,-0.8517,-0.8517,-0.8517,-0.8517,-0.8517,-0.8517,-0.8468,-0.8361,-0.8133,-0.786,-0.7626,-0.7358,-0.7192,-0.7112,-0.7482,-0.7996,-0.8666,-0.8837,-0.9145,-0.9588,-0.9588,-0.9588,0.0,0.0,-0.0241,-0.0802,-0.0243,0.0368,-0.0037,0.0761,0.1594,0.1594,0.206,0.2331,0.1903,0.1835,0.1763,0.1607,0.1294,0.0863,0.0235,0.0429,0.0308,-0.0454,-0.0224,-0.0147,-0.0469,-0.0281,-0.0347,-0.0908,-0.1312,-0.1798,-0.24,-0.2828,-0.3061,-0.3118,-0.3188,-0.318,-0.3058,-0.3293,-0.3395,-0.3364,-0.3364,-0.3293,-0.3196,-0.3369,-0.3477,-0.3563,-0.3632,-0.3675,-0.3736,-0.3758,-0.3675,-0.3558,-0.3558,-0.3556,-0.3497,-0.3475,-0.3457,-0.3395,-0.3373,-0.3283,-0.3192,-0.3192,-0.346,-0.3861,-0.4125,-0.4752,-0.5448,-0.5716,-0.6083,-0.6387,-0.6387,-0.6387,-0.6387,-0.6387,-0.6387,-0.642,-0.6519,-0.6909,-0.7363,-0.7787,-0.7792,-0.7792,-0.8019,-0.8084,-0.8052,-0.7922,-0.8084,-0.8252,-0.8252,-0.8382,-0.8517,-0.8517,-0.8517,-0.8517,-0.8517,-0.8517,-0.849,-0.8425,-0.8086,-0.783,-0.7682,-0.7284,-0.704,-0.6952,-0.6895,-0.7295,-0.8129,-0.8229,-0.8573,-0.9164,-0.9328,-0.9406,0.0,0.0203,0.0,-0.0146,0.0063,0.0409,0.0385,0.0952,0.1517,0.1517,0.1971,0.2386,0.2348,0.2394,0.2275,0.1685,0.2038,0.1961,0.0746,0.1539,0.1664,0.0076,0.1051,0.1442,0.0421,0.1027,0.1192,0.0524,-0.0107,-0.0762,-0.1451,-0.2152,-0.2467,-0.2353,-0.2662,-0.2797,-0.2721,-0.3066,-0.3204,-0.32,-0.32,-0.3196,-0.3192,-0.3202,-0.3291,-0.3426,-0.3684,-0.3703,-0.352,-0.3599,-0.3583,-0.3505,-0.3505,-0.3503,-0.3489,-0.3439,-0.3404,-0.3385,-0.3262,-0.3196,-0.3192,-0.3192,-0.3226,-0.3426,-0.4453,-0.4782,-0.5047,-0.6083,-0.6383,-0.6387,-0.6387,-0.6387,-0.6387,-0.6387,-0.6387,-0.6486,-0.6815,-0.6651,-0.6679,-0.7391,-0.7204,-0.6909,-0.6806,-0.69,-0.6798,-0.6305,-0.6999,-0.7554,-0.7554,-0.8117,-0.8517,-0.8517,-0.8517,-0.8517,-0.8517,-0.8517,-0.8414,-0.8214,-0.8207,-0.7935,-0.7355,-0.7126,-0.6862,-0.6544,-0.634,-0.6615,-0.7369,-0.7744,-0.7951,-0.8004,-0.8587,-0.8916,0.0,0.0,0.0,0.0536,0.098,0.1417,0.1051,0.153,0.1997,0.1997,0.2182,0.2328,0.2328,0.2375,0.2376,0.2145,0.2298,0.226,0.1802,0.2102,0.2093,0.1443,0.1808,0.1984,0.1607,0.1827,0.1722,0.1091,0.062,-0.007,-0.1029,-0.1481,-0.1895,-0.228,-0.2378,-0.2412,-0.2388,-0.2488,-0.2656,-0.2889,-0.2889,-0.2989,-0.3194,-0.3287,-0.3301,-0.3287,-0.3501,-0.3589,-0.3583,-0.3576,-0.3577,-0.3493,-0.3472,-0.3377,-0.332,-0.3287,-0.3277,-0.3271,-0.3204,-0.3192,-0.3192,-0.3192,-0.3192,-0.3259,-0.3656,-0.4023,-0.4359,-0.4758,-0.512,-0.5382,-0.5382,-0.5617,-0.5984,-0.6317,-0.6387,-0.6416,-0.6552,-0.6482,-0.6552,-0.7007,-0.6708,-0.6445,-0.6675,-0.647,-0.6199,-0.6005,-0.6338,-0.6601,-0.6601,-0.6929,-0.7321,-0.7819,-0.7852,-0.8019,-0.8452,-0.8517,-0.8479,-0.8388,-0.8268,-0.8108,-0.7899,-0.7434,-0.7075,-0.6825,-0.637,-0.6429,-0.7042,-0.7176,-0.7391,-0.7652,-0.7865,-0.8196,0.0961,0.0,0.0,0.0,0.1548,0.1932,0.1619,0.1914,0.2275,0.2275,0.2255,0.2269,0.2269,0.2299,0.2331,0.2351,0.2354,0.2354,0.2354,0.2305,0.2255,0.2214,0.2191,0.2199,0.2192,0.2188,0.2027,0.1635,0.1194,0.0653,-0.0105,-0.0654,-0.1301,-0.204,-0.2039,-0.2052,-0.2188,-0.2188,-0.2321,-0.252,-0.2653,-0.282,-0.3027,-0.3255,-0.3285,-0.32,-0.3387,-0.3469,-0.3459,-0.3526,-0.3487,-0.3401,-0.3342,-0.3281,-0.3192,-0.3192,-0.3192,-0.3192,-0.3192,-0.3192,-0.3192,-0.3192,-0.3192,-0.3228,-0.3426,-0.3727,-0.4028,-0.4225,-0.4519,-0.4815,-0.4815,-0.5047,-0.5415,-0.5782,-0.6017,-0.6115,-0.6115,-0.6284,-0.6416,-0.6449,-0.6178,-0.5914,-0.5815,-0.5547,-0.5312,-0.5113,-0.5411,-0.5679,-0.5679,-0.6005,-0.6433,-0.6961,-0.7256,-0.7619,-0.8117,-0.8382,-0.8517,-0.8517,-0.8361,-0.8238,-0.8143,-0.7578,-0.7116,-0.6813,-0.6218,-0.6088,-0.6372,-0.6485,-0.6669,-0.6939,-0.7122,-0.7498,0.0,0.0,0.0,0.1635,0.1748,0.1823,0.197,0.2092,0.2181,0.2183,0.2198,0.2205,0.2206,0.2206,0.2226,0.2284,0.2295,0.2296,0.2296,0.2245,0.2206,0.2206,0.2189,0.2188,0.2188,0.2188,0.2179,0.2167,0.1645,0.133,0.1365,0.028,-0.0726,-0.1549,-0.158,-0.1783,-0.2154,-0.2154,-0.2188,-0.2188,-0.252,-0.2686,-0.2686,-0.3023,-0.3159,-0.3165,-0.3322,-0.3309,-0.32,-0.3326,-0.3311,-0.3196,-0.3194,-0.3192,-0.3192,-0.3192,-0.3192,-0.3192,-0.3192,-0.3192,-0.3192,-0.3192,-0.3192,-0.3293,-0.3828,-0.3961,-0.4095,-0.4619,-0.4749,-0.4749,-0.4782,-0.4782,-0.4782,-0.4782,-0.5183,-0.558,-0.558,-0.5984,-0.6218,-0.5683,-0.558,-0.5219,-0.4195,-0.4159,-0.409,-0.3563,-0.4223,-0.4749,-0.4749,-0.5375,-0.5906,-0.6042,-0.6691,-0.7214,-0.7456,-0.8084,-0.8452,-0.8484,-0.8479,-0.8349,-0.7987,-0.7494,-0.6971,-0.6418,-0.5881,-0.5502,-0.5297,-0.5631,-0.5795,-0.5795,-0.6327,-0.6831,0.1208,0.0,0.0,0.0,0.0,0.0,0.1817,0.1933,0.2013,0.2102,0.2134,0.2127,0.2204,0.2213,0.2218,0.2236,0.2241,0.2234,0.2234,0.2217,0.2213,0.2213,0.2199,0.2188,0.2188,0.2188,0.2025,0.1597,0.1395,0.0986,0.0204,-0.051,-0.0983,-0.1244,-0.1244,-0.1277,-0.1412,-0.1412,-0.1513,-0.1783,-0.1849,-0.2051,-0.2354,-0.2421,-0.249,-0.249,-0.2779,-0.2875,-0.2861,-0.3255,-0.3383,-0.332,-0.3252,-0.3192,-0.3192,-0.3192,-0.3192,-0.3192,-0.3192,-0.3192,-0.3192,-0.3192,-0.3192,-0.3228,-0.336,-0.3426,-0.346,-0.3591,-0.3658,-0.3725,-0.4125,-0.4225,-0.4323,-0.4716,-0.4915,-0.5014,-0.5014,-0.515,-0.5315,-0.555,-0.4987,-0.4359,-0.4061,-0.3725,-0.346,-0.3293,-0.3627,-0.3861,-0.3861,-0.4156,-0.4586,-0.5113,-0.5342,-0.587,-0.6835,-0.7101,-0.7363,-0.7754,-0.8019,-0.7987,-0.7657,-0.7501,-0.7111,-0.6418,-0.6011,-0.5661,-0.5297,-0.538,-0.5434,-0.5466,-0.605,-0.6372,0.0,0.0,0.0,0.1658,0.0,0.0,0.18,0.1839,0.1903,0.1998,0.2038,0.2067,0.2103,0.2111,0.2118,0.2145,0.2146,0.2177,0.2203,0.221,0.2188,0.2188,0.2188,0.2188,0.2188,0.2188,0.2052,0.1715,0.1681,0.1277,0.0403,-0.0134,-0.0538,-0.0773,-0.0975,-0.1109,-0.1109,-0.1109,-0.121,-0.1379,-0.1311,-0.1513,-0.1951,-0.185,-0.1951,-0.2221,-0.2421,-0.2587,-0.2723,-0.284,-0.3065,-0.3301,-0.3248,-0.3192,-0.3192,-0.3192,-0.3192,-0.3192,-0.3192,-0.3192,-0.3192,-0.3192,-0.3192,-0.3192,-0.3192,-0.3192,-0.3192,-0.3192,-0.3192,-0.3259,-0.3594,-0.3661,-0.3758,-0.4054,-0.4287,-0.4453,-0.4453,-0.4453,-0.4553,-0.4888,-0.4425,-0.3928,-0.3694,-0.3393,-0.3192,-0.3192,-0.3295,-0.3362,-0.3362,-0.346,-0.3725,-0.4223,-0.4517,-0.5011,-0.5844,-0.6174,-0.6502,-0.683,-0.7228,-0.7363,-0.7162,-0.7232,-0.6976,-0.6418,-0.6061,-0.5713,-0.5297,-0.5297,-0.5297,-0.5301,-0.5673,-0.5837,0.0,0.0,0.0,0.1775,0.171,0.0,0.1827,0.1828,0.1813,0.1898,0.1955,0.1995,0.2001,0.2002,0.202,0.2076,0.2091,0.2117,0.2179,0.2188,0.2188,0.2188,0.2188,0.2188,0.2188,0.2188,0.2188,0.212,0.2052,0.1783,0.1244,0.0773,0.0269,-0.0202,-0.0672,-0.0941,-0.1008,-0.1008,-0.1042,-0.1109,-0.0874,-0.1008,-0.1446,-0.121,-0.1412,-0.1985,-0.2018,-0.2253,-0.2552,-0.2287,-0.2591,-0.3192,-0.3149,-0.3151,-0.3192,-0.3182,-0.3184,-0.3192,-0.3192,-0.3192,-0.3192,-0.3192,-0.3192,-0.3192,-0.3192,-0.3192,-0.3192,-0.3192,-0.3192,-0.3192,-0.3192,-0.3192,-0.3192,-0.3192,-0.356,-0.3894,-0.3894,-0.3894,-0.3894,-0.3894,-0.3894,-0.3761,-0.3293,-0.3192,-0.3192,-0.3192,-0.3192,-0.3192,-0.3192,-0.3192,-0.3261,-0.3464,-0.3987,-0.4447,-0.4683,-0.5312,-0.5708,-0.5771,-0.6305,-0.6605,-0.6576,-0.6778,-0.673,-0.6362,-0.5993,-0.5644,-0.5297,-0.5297,-0.5297,-0.5297,-0.5297,-0.5297,0.1437,0.1624,0.1771,0.1733,0.1744,0.0,0.1744,0.177,0.1813,0.1898,0.1921,0.1944,0.1994,0.2002,0.2008,0.2019,0.2063,0.2117,0.2179,0.2188,0.2188,0.2188,0.2188,0.2188,0.2188,0.2188,0.1985,0.1513,0.1076,0.0773,0.0672,0.0571,0.0437,0.0336,0.0235,-0.0034,-0.0437,-0.047,-0.0672,-0.1109,-0.0638,-0.0437,-0.0538,-0.0067,-0.0134,-0.0672,-0.0941,-0.1344,-0.1849,-0.2085,-0.2591,-0.3153,-0.2854,-0.2902,-0.3184,-0.3144,-0.3164,-0.3192,-0.3192,-0.3192,-0.3192,-0.3192,-0.3192,-0.3192,-0.3192,-0.3192,-0.3192,-0.3192,-0.3192,-0.3192,-0.3192,-0.3192,-0.3192,-0.3192,-0.3293,-0.336,-0.336,-0.336,-0.336,-0.336,-0.336,-0.3326,-0.3226,-0.3192,-0.3192,-0.3192,-0.3192,-0.3192,-0.3192,-0.3192,-0.3226,-0.3261,-0.3391,-0.3658,-0.4125,-0.4292,-0.4556,-0.4981,-0.5778,-0.6108,-0.5815,-0.6515,-0.6602,-0.6013,-0.5604,-0.5369,-0.5297,-0.5297,-0.5297,-0.5297,-0.5297,-0.5297,0.163,0.1719,0.1797,0.1794,0.1773,0.0,0.0,0.1773,0.1768,0.1827,0.1815,0.1812,0.1873,0.186,0.1858,0.1947,0.1983,0.2024,0.2087,0.2123,0.2142,0.2142,0.2142,0.2142,0.2142,0.217,0.2087,0.1783,0.1513,0.1344,0.1344,0.1076,0.0908,0.0908,0.0638,0.037,0.0101,0.0101,-0.0034,-0.0302,0.0235,0.037,0.0101,0.0638,0.0605,0.0067,-0.037,-0.0806,-0.121,-0.1513,-0.2051,-0.2683,-0.2445,-0.2471,-0.2658,-0.2612,-0.2727,-0.2894,-0.2894,-0.3021,-0.3192,-0.3192,-0.3192,-0.3192,-0.3192,-0.3192,-0.3192,-0.3192,-0.3192,-0.3192,-0.3192,-0.3192,-0.3192,-0.3192,-0.3192,-0.3192,-0.3192,-0.3192,-0.3192,-0.3192,-0.3192,-0.3192,-0.3192,-0.3192,-0.3192,-0.3192,-0.3192,-0.3192,-0.3192,-0.3192,-0.3192,-0.3192,-0.3192,-0.3293,-0.3594,-0.3594,-0.3725,-0.3987,-0.4655,-0.4987,-0.4821,-0.5749,-0.6149,-0.5896,-0.5506,-0.5297,-0.5297,-0.5297,-0.5297,-0.5297,-0.5297,-0.5297,0.1764,0.1819,0.1868,0.1908,0.1837,0.1805,0.0,0.0,0.0,0.1789,0.1758,0.1738,0.1788,0.1756,0.1755,0.185,0.1904,0.1929,0.1977,0.2028,0.2064,0.2076,0.2077,0.2077,0.2077,0.2111,0.2139,0.2152,0.2141,0.2139,0.2152,0.1696,0.1467,0.1467,0.1039,0.0773,0.0638,0.0638,0.0605,0.0504,0.1042,0.1076,0.0672,0.121,0.1176,0.0638,0.0101,-0.037,-0.0739,-0.0975,-0.1441,-0.1966,-0.1984,-0.2037,-0.2105,-0.2075,-0.228,-0.2531,-0.2531,-0.2735,-0.2991,-0.2991,-0.3058,-0.3125,-0.3192,-0.3192,-0.3192,-0.3125,-0.3092,-0.3092,-0.3092,-0.3092,-0.3125,-0.3192,-0.3192,-0.3192,-0.3192,-0.3192,-0.3192,-0.3192,-0.3192,-0.3192,-0.3192,-0.3192,-0.3192,-0.3192,-0.3192,-0.3192,-0.3192,-0.3192,-0.3192,-0.3192,-0.3192,-0.3192,-0.3192,-0.3192,-0.3192,-0.3192,-0.3694,-0.3995,-0.3995,-0.497,-0.5586,-0.5719,-0.5434,-0.5297,-0.5297,-0.5297,-0.5297,-0.5297,-0.5297,-0.5297,0.1735,0.1935,0.2109,0.195,0.2024,0.2082,0.1852,0.0,0.1849,0.1807,0.0,0.1789,0.1796,0.0,0.0,0.1805,0.1849,0.1912,0.1919,0.1927,0.1951,0.2008,0.2013,0.2013,0.2013,0.197,0.1965,0.202,0.1973,0.1966,0.202,0.2012,0.2009,0.2009,0.1993,0.1749,0.121,0.121,0.0975,0.0504,0.1042,0.1277,0.1244,0.1817,0.1783,0.1176,0.0638,0.0134,-0.0403,-0.0908,-0.1128,-0.1168,-0.1452,-0.1833,-0.217,-0.2043,-0.2124,-0.2243,-0.2243,-0.2283,-0.2322,-0.2322,-0.2522,-0.282,-0.3125,-0.3192,-0.3125,-0.2855,-0.2753,-0.2753,-0.2753,-0.2753,-0.2822,-0.3125,-0.3192,-0.3192,-0.3192,-0.3192,-0.3192,-0.3192,-0.3192,-0.3192,-0.3192,-0.3192,-0.3192,-0.3192,-0.3192,-0.3192,-0.3192,-0.3192,-0.3192,-0.3192,-0.3192,-0.3192,-0.3192,-0.3192,-0.3192,-0.3192,-0.3694,-0.3995,-0.3995,-0.4753,-0.5152,-0.5093,-0.5226,-0.5297,-0.5297,-0.5297,-0.5297,-0.5297,-0.5297,-0.5297,0.1901,0.2002,0.2106,0.1992,0.2023,0.2044,0.1907,0.1839,0.1826,0.1802,0.0,0.0,0.0,0.0,0.0,0.0,0.1816,0.182,0.1785,0.1779,0.1815,0.1939,0.195,0.1963,0.1999,0.1947,0.1936,0.1998,0.1945,0.1937,0.1999,0.2027,0.2059,0.2094,0.212,0.2051,0.1817,0.1817,0.1715,0.148,0.1715,0.1817,0.1817,0.2087,0.2052,0.1783,0.121,0.0672,0.0134,-0.0403,-0.0794,-0.1001,-0.1162,-0.1305,-0.1434,-0.1385,-0.156,-0.1791,-0.1791,-0.1963,-0.2188,-0.2188,-0.2287,-0.2421,-0.2589,-0.2624,-0.2589,-0.2455,-0.2421,-0.2421,-0.2421,-0.2421,-0.2455,-0.2589,-0.2757,-0.2922,-0.2922,-0.3058,-0.3192,-0.3192,-0.3192,-0.3192,-0.3192,-0.3192,-0.3192,-0.3192,-0.3192,-0.3192,-0.3192,-0.3192,-0.3192,-0.3192,-0.3192,-0.3192,-0.3192,-0.3192,-0.3192,-0.3192,-0.3426,-0.3666,-0.3934,-0.4114,-0.4354,-0.4597,-0.4566,-0.455,-0.455,-0.4829,-0.4939,-0.4967,-0.5187,-0.5297,0.2068,0.2091,0.2145,0.2031,0.2016,0.2004,0.1908,0.1852,0.1835,0.1804,0.1788,0.0,0.0,0.0,0.1745,0.179,0.0,0.1763,0.1734,0.1702,0.1719,0.1822,0.1849,0.1905,0.195,0.1854,0.1841,0.1948,0.1853,0.1842,0.195,0.1969,0.2006,0.2069,0.2087,0.2125,0.2186,0.2188,0.2188,0.2188,0.2188,0.2188,0.2188,0.2188,0.2188,0.2153,0.1434,0.0963,0.0664,-0.0033,-0.042,-0.0631,-0.0604,-0.0646,-0.0729,-0.0869,-0.1103,-0.1375,-0.1385,-0.1624,-0.1918,-0.2018,-0.2052,-0.2052,-0.2154,-0.2188,-0.2188,-0.2053,-0.2052,-0.2052,-0.2052,-0.2052,-0.2052,-0.2188,-0.2388,-0.2554,-0.2554,-0.2822,-0.3058,-0.3058,-0.3125,-0.3159,-0.3092,-0.3125,-0.3192,-0.3192,-0.3192,-0.3192,-0.3192,-0.3192,-0.3192,-0.3192,-0.3192,-0.3192,-0.3192,-0.3192,-0.3192,-0.3192,-0.3192,-0.3339,-0.3627,-0.3606,-0.3737,-0.405,-0.4014,-0.3996,-0.3996,-0.4356,-0.4494,-0.4522,-0.505,-0.5297,0.2232,0.2245,0.2234,0.2063,0.2048,0.2046,0.1839,0.1915,0.1965,0.182,0.1915,0.1959,0.1817,0.1796,0.1796,0.0,0.0,0.0,0.0,0.1693,0.1642,0.1704,0.1763,0.1801,0.1802,0.1695,0.1673,0.1793,0.1692,0.1676,0.1797,0.1854,0.1941,0.2004,0.2064,0.2125,0.2186,0.2188,0.2188,0.2188,0.2188,0.2188,0.2188,0.2188,0.2188,0.215,0.1077,0.087,0.1191,0.0125,-0.003,0.0356,0.0367,0.0119,-0.0284,-0.0811,-0.0999,-0.1036,-0.1097,-0.1107,-0.1176,-0.1513,-0.1614,-0.1681,-0.2087,-0.2188,-0.212,-0.1715,-0.1614,-0.1614,-0.1614,-0.1614,-0.1715,-0.212,-0.2221,-0.2221,-0.2221,-0.2488,-0.272,-0.272,-0.2989,-0.3092,-0.2787,-0.2989,-0.3192,-0.3192,-0.3192,-0.3192,-0.3192,-0.3192,-0.3192,-0.3192,-0.3192,-0.3192,-0.3192,-0.3192,-0.3192,-0.3192,-0.3192,-0.3146,-0.3028,-0.3383,-0.3552,-0.3423,-0.3805,-0.3996,-0.3996,-0.4024,-0.4024,-0.4049,-0.4908,-0.5297,0.2279,0.231,0.2343,0.2177,0.2141,0.2107,0.1923,0.1944,0.2088,0.2354,0.2181,0.2086,0.235,0.2074,0.0,0.0,0.0,0.0,0.0,0.1581,0.1538,0.1558,0.1676,0.1721,0.1681,0.1676,0.1692,0.1734,0.1699,0.1711,0.1793,0.1815,0.1871,0.1999,0.2023,0.2084,0.2186,0.2188,0.2188,0.2188,0.2188,0.2188,0.2188,0.2188,0.2165,0.2128,0.1783,0.1492,0.122,0.0885,0.0617,0.0413,0.0387,0.0321,0.0141,-0.0358,-0.07,-0.095,-0.0998,-0.106,-0.1109,-0.1244,-0.1277,-0.1311,-0.1446,-0.148,-0.1446,-0.1311,-0.1277,-0.1277,-0.1277,-0.1277,-0.1311,-0.1446,-0.1648,-0.1817,-0.1817,-0.2054,-0.2302,-0.2345,-0.2614,-0.2711,-0.2354,-0.258,-0.2827,-0.2846,-0.3058,-0.3192,-0.3192,-0.3192,-0.3192,-0.3192,-0.3192,-0.3192,-0.3192,-0.3192,-0.3192,-0.3192,-0.3192,-0.3144,-0.2991,-0.3138,-0.3109,-0.2944,-0.3079,-0.3135,-0.3135,-0.3441,-0.3608,-0.3608,-0.4187,-0.4605,0.2366,0.2371,0.2456,0.2605,0.2661,0.2603,0.2412,0.2437,0.2561,0.2815,0.2574,0.2539,0.3239,0.2684,0.2231,0.0,0.0,0.0,0.0,0.191,0.1751,0.1726,0.1674,0.1668,0.165,0.1644,0.1669,0.1733,0.1699,0.171,0.1793,0.1797,0.1852,0.1999,0.2002,0.2063,0.2186,0.2188,0.2188,0.2188,0.2188,0.2188,0.2188,0.2188,0.2165,0.2129,0.1981,0.1751,0.1503,0.1358,0.1178,0.0957,0.0946,0.0848,0.0668,0.0147,-0.0329,-0.0735,-0.0732,-0.0887,-0.1109,-0.1109,-0.1117,-0.1094,-0.1139,-0.1142,-0.114,-0.1095,-0.1134,-0.1103,-0.0878,-0.0812,-0.075,-0.0546,-0.0648,-0.0821,-0.0794,-0.1057,-0.1355,-0.1657,-0.1928,-0.209,-0.1993,-0.222,-0.2429,-0.2476,-0.2779,-0.2988,-0.3019,-0.3125,-0.3192,-0.3192,-0.3192,-0.3192,-0.3192,-0.3192,-0.3192,-0.3192,-0.3192,-0.316,-0.304,-0.3001,-0.2917,-0.2742,-0.2707,-0.2691,-0.2691,-0.2998,-0.3165,-0.3163,-0.358,-0.3941]}]]